[[{"header":{"parameterUnit":"m.s-1","parameterCategory":1,"la1":31.0,"la2":29.5877,"lo1":-88.7671,"lo2":-86.6584,"dy":0.0162,"dx":0.0185,"nx":115,"ny":88,"refTime":"2024-09-04T12:00:00:Z","depth":0,"parameterNumber":2,"parameterNumberName":"U-component_of_WINDS"},"data":[0.0,0.0,0.0,0.0,0.0,0.0,0.0,0.0,0.0,0.0,0.0,0.0,0.0,0.0,0.0,0.0,0.0,0.0,0.0,0.0,0.0,0.0,0.0,0.0,0.0,0.0,0.0,0.0,0.0,0.0,0.0,0.0,0.0,0.0,0.0,0.0,0.0,0.0,0.0,0.0,0.0,0.0,0.0,0.0,0.0,0.0,0.0,0.0,0.0,0.0,0.0,0.0,0.0,0.0,0.0,0.0,0.0,0.0,0.0,0.0,0.0,0.0,0.0,0.0,0.0,0.0,0.0,0.0,0.0,0.0,0.0,0.0,0.0,0.0,0.0,0.0,0.0,0.0,0.0,0.0,0.0,0.0,0.0,0.0,0.0,0.0,0.0,0.0,0.0,0.0,0.0,0.0,0.0,0.0,0.0,0.0,0.0,0.0,0.0,0.0,0.0,0.0,0.0,0.0,0.0,0.0,0.0,0.0,0.0,0.0,0.0,0.0,0.0,0.0,0.0,0.0,0.0,0.0,0.0,0.0,0.0,0.0,0.0,0.0,0.0,0.0,0.0,0.0,0.0,0.0,0.0,0.0,0.0,0.0,0.0,0.0,0.0,0.0,0.0,0.0,0.0,0.0,0.0,0.0,0.0,0.0,0.0,0.0,0.0,0.0,0.0,0.0,0.0,0.0,0.0,0.0,0.0,0.0,0.0,0.0,0.0,0.0,0.0,0.0,0.0,0.0,0.0,0.0,0.0,0.0,0.0,0.0,0.0,0.0,0.0,0.0,0.0,0.0,0.0,0.0,0.0,0.0,0.0,0.0,0.0,0.0,0.0,0.0,0.0,0.0,0.0,0.0,0.0,0.0,0.0,0.0,0.0,0.0,0.0,0.0,0.0,0.0,0.0,0.0,0.0,0.0,0.0,0.0,0.0,0.0,0.0,0.0,0.0,0.0,0.0,0.0,0.0,0.0,0.0,0.0,0.0,0.0,0.0,0.0,0.0,0.0,0.0,0.0,0.0,0.0,0.0,0.0,0.0,0.0,0.0,0.0,0.0,0.0,0.0,0.0,0.0,0.0,0.0,0.0,0.0,0.0,0.0,0.0,0.0,0.0,0.0,0.0,0.0,0.0,0.0,0.0,0.0,0.0,0.0,0.0,0.0,0.0,0.0,0.0,0.0,0.0,0.0,0.0,0.0,0.0,0.0,0.0,0.0,0.0,0.0,0.0,0.0,0.0,0.0,0.0,0.0,0.0,0.0,0.0,0.0,0.0,0.0,0.0,0.0,0.0,0.0,0.0,0.0,0.0,0.0,0.0,0.0,0.0,0.0,0.0,0.0,0.0,0.0,0.0,0.0,0.0,0.0,0.0,0.0,0.0,0.0,0.0,0.0,0.0,0.0,0.0,0.0,0.0,0.0,0.0,0.0,0.0,0.0,0.0,0.0,0.0,0.0,0.0,0.0,0.0,0.0,0.0,0.0,0.0,0.0,0.0,0.0,0.0,0.0,0.0,0.0,0.0,0.0,0.0,0.0,0.0,0.0,0.0,0.0,0.0,0.0,0.0,0.0,0.0,0.0,0.0,0.0,0.0,0.0,0.0,0.0,0.0,0.0,0.0,0.0,0.0,0.0,0.0,0.0,0.0,0.0,0.0,0.0,0.0,0.0,0.0,0.0,0.0,0.0,0.0,0.0,0.0,0.0,0.0,0.0,0.0,0.0,0.0,0.0,0.0,0.0,0.0,0.0,0.0,0.0,0.0,0.0,0.0,0.0,0.0,0.0,0.0,0.0,0.0,0.0,0.0,0.0,0.0,0.0,0.0,0.0,0.0,0.0,0.0,0.0,0.0,0.0,0.0,0.0,0.0,0.0,0.0,0.0,0.0,0.0,0.0,0.0,0.0,0.0,0.0,0.0,0.0,0.0,0.0,0.0,0.0,0.0,0.0,0.0,0.0,0.0,0.0,0.0,0.0,0.0,0.0,0.0,0.0,0.0,0.0,0.0,0.0,0.0,0.0,0.0,0.0,0.0,0.0,0.0,0.0,0.0,0.0,0.0,0.0,0.0,0.0,0.0,0.0,0.0,0.0,0.0,0.0,0.0,0.0,0.0,0.0,0.0,0.0,0.0,0.0,0.0,0.0,0.0,0.0,0.0,0.0,0.0,0.0,0.0,0.0,0.0,0.0,0.0,0.0,0.0,0.0,0.0,0.0,0.0,0.0,0.0,0.0,0.0,0.0,0.0,0.0,0.0,0.0,0.0,0.0,0.0,0.0,0.0,0.0,0.0,0.0,0.0,0.0,0.0,0.0,0.0,0.0,0.0,0.0,0.0,0.0,0.0,0.0,0.0,0.0,0.0,0.0,0.0,0.0,0.0,0.0,0.0,0.0,0.0,0.0,0.0,0.0,0.0,0.0,0.0,0.0,0.0,0.0,0.0,0.0,0.0,0.0,0.0,0.0,0.0,0.0,0.0,0.0,0.0,0.0,0.0,0.0,0.0,0.0,0.0,0.0,0.0,0.0,0.0,0.0,0.0,0.0,0.0,0.0,0.0,0.0,0.0,0.0,0.0,0.0,0.0,0.0,0.0,0.0,0.0,0.0,0.0,0.0,0.0,0.0,0.0,0.0,0.0,0.0,0.0,0.0,0.0,0.0,0.0,0.0,0.0,0.0,0.0,0.0,0.0,0.0,0.0,0.0,0.0,0.0,0.0,0.0,0.0,0.0,0.0,0.0,0.0,0.0,0.0,0.0,0.0,0.0,0.0,0.0,0.0,0.0,0.0,0.0,0.0,0.0,0.0,0.0,0.0,0.0,0.0,0.0,0.0,0.0,0.0,0.0,0.0,0.0,0.0,0.0,0.0,0.0,0.0,0.0,0.0,0.0,0.0,0.0,0.0,0.0,0.0,0.0,0.0,0.0,0.0,0.0,0.0,0.0,0.0,0.0,0.0,0.0,0.0,0.0,0.0,0.0,0.0,0.0,0.0,0.0,0.0,0.0,0.0,0.0,0.0,0.0,0.0,0.0,0.0,0.0,0.0,0.0,0.0,0.0,0.0,0.0,0.0,0.0,0.0,0.0,0.0,0.0,0.0,0.0,0.0,0.0,0.0,0.0,0.0,0.0,0.0,0.0,0.0,0.0,0.0,0.0,0.0,0.0,0.0,0.0,0.0,0.0,0.0,0.0,0.0,0.0,0.0,0.0,0.0,0.0,0.0,0.0,0.0,0.0,0.0,0.0,0.0,0.0,0.0,0.0,0.0,0.0,0.0,0.0,0.0,0.0,0.0,0.0,0.0,0.0,0.0,0.0,0.0,0.0,0.0,0.0,0.0,0.0,0.0,0.0,0.0,0.0,0.0,0.0,0.0,0.0,0.0,0.0,0.0,0.0,0.0,0.0,0.0,0.0,0.0,0.0,0.0,0.0,0.0,0.0,0.0,0.0,0.0,0.0,0.0,0.0,0.0,0.0,0.0,0.0,0.0,0.0,0.0,0.0,0.0,0.0,0.0,0.0,0.0,0.0,0.0,0.0,0.0,0.0,0.0,0.0,0.0,0.0,0.0,0.0,0.0,0.0,0.0,0.0,0.0,0.0,0.0,0.0,0.0,0.0,0.0,0.0,0.0,0.0,0.0,0.0,0.0,0.0,0.0,0.0,0.0,0.0,0.0,0.0,0.0,0.0,0.0,0.0,0.0,0.0,0.0,0.0,0.0,0.0,0.0,0.0,0.0,0.0,0.0,0.0,0.0,0.0,0.0,0.0,0.0,0.0,0.0,0.0,0.0,0.0,0.0,0.0,0.0,0.0,0.0,0.0,0.0,0.0,0.0,0.0,0.0,0.0,0.0,0.0,0.0,0.0,0.0,0.0,0.0,0.0,0.0,0.0,0.0,0.0,0.0,0.0,0.0,0.0,0.0,0.0,0.0,0.0,0.0,0.0,0.0,0.0,0.0,0.0,0.0,0.0,0.0,0.0,0.0,0.0,0.0,0.0,0.0,0.0,0.0,0.0,0.0,0.0,0.0,0.0,0.0,0.0,0.0,0.0,0.0,0.0,0.0,0.0,0.0,0.0,0.0,0.0,0.0,0.0,0.0,0.0,0.0,0.0,0.0,0.0,0.0,0.0,0.0,0.0,0.0,0.0,0.0,0.0,0.0,0.0,0.0,0.0,0.0,0.0,0.0,0.0,0.0,0.0,0.0,0.0,0.0,0.0,0.0,0.0,0.0,0.0,0.0,0.0,0.0,0.0,0.0,0.0,0.0,0.0,0.0,0.0,0.0,0.0,0.0,0.0,0.0,0.0,0.0,0.0,0.0,0.0,0.0,0.0,0.0,0.0,0.0,0.0,0.0,0.0,0.0,0.0,0.0,0.0,0.0,0.0,0.0,0.0,0.0,0.0,0.0,0.0,0.0,0.0,0.0,0.0,0.0,0.0,0.0,0.0,0.0,0.0,0.0,0.0,0.0,0.0,0.0,0.0,0.0,0.0,0.0,0.0,0.0,0.0,0.0,0.0,0.0,0.0,0.0,0.0,0.0,0.0,0.0,0.0,0.0,0.0,0.0,0.0,0.0,0.0,0.0,0.0,0.0,0.0,0.0,0.0,0.0,0.0,0.0,0.0,0.0,0.0,0.0,0.0,0.0,0.0,0.0,0.0,0.0,0.0,0.0,0.0,0.0,0.0,0.0,0.0,0.0,0.0,0.0,0.0,0.0,0.0,0.0,0.0,0.0,0.0,0.0,0.0,0.0,0.0,0.0,0.0,0.0,0.0,0.0,0.0,0.0,0.0,0.0,0.0,0.0,0.0,0.0,0.0,0.0,0.0,0.0,0.0,0.0,0.0,0.0,0.0,0.0,0.0,0.0,0.0,0.0,0.0,0.0,0.0,0.0,0.0,0.0,0.0,0.0,0.0,0.0,0.0,0.0,0.0,0.0,0.0,0.0,0.0,0.0,0.0,0.0,0.0,0.0,0.0,0.0,0.0,0.0,0.0,0.0,0.0,0.0,0.0,0.0,0.0,0.0,0.0,0.0,0.0,0.0,0.0,0.0,0.0,0.0,0.0,0.0,0.0,0.0,0.0,0.0,0.0,0.0,0.0,0.0,0.0,0.0,0.0,0.0,0.0,0.0,0.0,0.0,0.0,0.0,0.0,0.0,0.0,0.0,0.0,0.0,0.0,0.0,0.0,0.0,0.0,0.0,0.0,0.0,0.0,0.0,0.0,0.0,0.0,0.0,0.0,0.0,0.0,0.0,0.0,0.0,0.0,0.0,0.0,0.0,0.0,0.0,0.0,0.0,0.0,0.0,0.0,0.0,0.0,0.0,0.0,0.0,0.0,0.0,0.0,0.0,0.0,0.0,0.0,0.0,0.0,0.0,0.0,0.0,0.0,0.0,0.0,0.0,0.0,0.0,0.0,0.0,0.0,0.0,0.0,0.0,0.0,0.0,0.0,0.0,0.0,0.0,0.0,0.0,0.0,0.0,0.0,0.0,0.0,0.0,0.0,0.0,0.0,0.0,0.0,0.0,0.0,0.0,0.0,0.0,0.0,0.0,0.0,0.0,0.0,0.0,0.0,0.0,0.0,0.0,0.0,0.0,0.0,0.0,0.0,0.0,0.0,0.0,0.0,0.0,0.0,0.0,0.0,0.0,0.0,0.0,0.0,0.0,0.0,0.0,0.0,0.0,0.0,0.0,0.0,0.0,0.0,0.0,0.0,0.0,0.0,0.0,0.0,0.0,0.0,0.0,0.0,0.0,0.0,0.0,0.0,0.0,0.0,0.0,0.0,0.0,0.0,0.0,0.0,0.0,0.0,0.0,0.0,0.0,0.0,0.0,0.0,0.0,0.0,0.0,0.0,0.0,0.0,0.0,0.0,0.0,0.0,0.0,0.0,0.0,0.0,0.0,0.0,0.0,0.0,0.0,0.0,0.0,0.0,0.0,0.0,0.0,0.0,0.0,0.0,0.0,0.0,0.0,0.0,0.0,0.0,0.0,0.0,0.0,0.0,0.0,0.0,0.0,0.0,0.0,0.0,0.0,0.0,0.0,0.0,0.0,0.0,0.0,0.0,0.0,0.0,0.0,0.0,0.0,0.0,0.0,0.0,0.0,0.0,0.0,0.0,0.0,0.0,0.0,0.0,0.0,0.0,0.0,0.0,0.0,0.0,0.0,0.0,0.0,0.0,0.0,0.0,0.0,0.0,0.0,0.0,0.0,0.0,0.0,0.0,0.0,0.0,0.0,0.0,0.0,0.0,0.0,0.0,0.0,0.0,0.0,0.0,0.0,0.0,0.0,0.0,0.0,0.0,0.0,0.0,0.0,0.0,0.0,0.0,0.0,0.0,0.0,0.0,0.0,0.0,0.0,0.0,0.0,0.0,0.0,0.0,0.0,0.0,0.0,0.0,0.0,0.0,0.0,0.0,0.0,0.0,0.0,0.0,0.0,0.0,0.0,0.0,0.0,0.0,0.0,0.0,0.0,0.0,0.0,0.0,0.0,0.0,0.0,0.0,0.0,0.0,0.0,0.0,0.0,0.0,0.0,0.0,0.0,0.0,0.0,0.0,0.0,0.0,0.0,0.0,0.0,0.0,0.0,0.0,0.0,0.0,0.0,0.0,0.0,0.0,0.0,0.0,0.0,0.0,0.0,0.0,0.0,0.0,0.0,0.0,0.0,0.0,0.0,0.0,0.0,0.0,0.0,0.0,0.0,0.0,0.0,0.0,0.0,0.0,0.0,0.0,0.0,0.0,0.0,0.0,0.0,0.0,0.0,0.0,0.0,0.0,0.0,0.0,0.0,0.0,0.0,0.0,0.0,0.0,0.0,0.0,0.0,0.0,0.0,0.0,0.0,0.0,0.0,0.0,0.0,0.0,0.0,0.0,0.0,0.0,0.0,0.0,0.0,0.0,0.0,0.0,0.0,0.0,0.0,0.0,0.0,0.0,0.0,0.0,0.0,0.0,0.0,0.0,0.0,0.0,0.0,0.0,0.0,0.0,0.0,0.0,0.0,0.0,0.0,0.0,0.0,0.0,0.0,0.0,0.0,0.0,0.0,0.0,0.0,0.0,0.0,0.0,0.0,0.0,0.0,0.0,0.0,0.0,0.0,0.0,0.0,0.0,0.0,0.0,0.0,0.0,0.0,0.0,0.0,0.0,0.0,0.0,0.0,0.0,0.0,0.0,0.0,0.0,0.0,0.0,0.0,0.0,0.0,0.0,0.0,0.0,0.0,0.0,0.0,0.0,0.0,0.0,0.0,0.0,0.0,0.0,0.0,0.0,0.0,0.0,0.0,0.0,0.0,0.0,0.0,0.0,0.0,0.0,0.0,0.0,0.0,0.0,0.0,0.0,0.0,0.0,0.0,0.0,0.0,0.0,0.0,0.0,0.0,0.0,0.0,0.0,0.0,0.0,0.0,0.0,0.0,0.0,0.0,0.0,0.0,0.0,0.0,0.0,0.0,0.0,0.0,0.0,0.0,0.0,0.0,0.0,0.0,0.0,0.0,0.0,0.0,0.0,0.0,0.0,0.0,0.0,0.0,0.0,0.0,0.0,0.0,0.0,0.0,0.0,0.0,0.0,0.0,0.0,0.0,0.0,0.0,0.0,0.0,0.0,0.0,0.0,0.0,0.0,0.0,0.0,0.0,0.0,0.0,0.0,0.0,0.0,0.0,0.0,0.0,0.0,0.0,0.0,0.0,0.0,0.0,0.0,0.0,0.0,0.0,0.0,0.0,0.0,0.0,0.0,0.0,0.0,0.0,0.0,0.0,0.0,0.0,0.0,0.0,0.0,0.0,0.0,0.0,0.0,0.0,0.0,0.0,0.0,0.0,0.0,0.0,0.0,0.0,0.0,0.0,0.0,0.0,0.0,0.0,0.0,0.0,0.0,0.0,0.0,0.0,0.0,0.0,0.0,0.0,0.0,0.0,0.0,0.0,0.0,0.0,0.0,0.0,0.0,0.0,0.0,0.0,0.0,0.0,0.0,0.0,0.0,0.0,0.0,0.0,0.0,0.0,0.0,0.0,0.0,0.0,0.0,0.0,0.0,0.0,0.0,0.0,0.0,0.0,0.0,0.0,0.0,0.0,0.0,0.0,0.0,0.0,0.0,0.0,0.0,0.0,0.0,0.0,0.0,0.0,0.0,0.0,0.0,0.0,0.0,0.0,0.0,0.0,0.0,0.0,0.0,0.0,0.0,0.0,0.0,0.0,0.0,0.0,0.0,0.0,0.0,0.0,0.0,0.0,0.0,0.0,0.0,0.0,0.0,0.0,0.0,0.0,0.0,0.0,0.0,0.0,0.0,0.0,0.0,0.0,0.0,0.0,0.0,0.0,0.0,0.0,0.0,0.0,0.0,0.0,0.0,0.0,0.0,0.0,0.0,0.0,0.0,0.0,0.0,0.0,0.0,0.0,0.0,0.0,0.0,0.0,0.0,0.0,0.0,0.0,0.0,0.0,0.0,0.0,0.0,0.0,0.0,0.0,0.0,0.0,0.0,0.0,0.0,0.0,0.0,0.0,0.0,0.0,0.0,0.0,0.0,0.0,0.0,0.0,0.0,0.0,0.0,0.0,0.0,0.0,0.0,0.0,0.0,0.0,0.0,0.0,0.0,0.0,0.0,0.0,0.0,0.0,0.0,0.0,0.0,0.0,0.0,0.0,0.0,0.0,0.0,0.0,0.0,0.0,0.0,0.0,0.0,0.0,0.0,0.0,0.0,0.0,0.0,0.0,0.0,0.0,0.0,0.0,0.0,0.0,0.0,0.0,0.0,0.0,0.0,0.0,0.0,0.0,0.0,0.0,0.0,0.0,0.0,0.0,0.0,0.0,0.0,0.0,0.0,0.0,0.0,0.0,0.0,0.0,0.0,0.0,0.0,0.0,0.0,0.0,0.0,0.0,0.0,0.0,0.0,0.0,0.0,0.0,0.0,0.0,0.0,0.0,0.0,0.0,0.0,0.0,0.0,0.0,0.0,0.0,0.0,0.0,0.0,0.0,0.0,0.0,0.0,0.0,0.0,0.0,0.0,0.0,0.0,0.0,0.0,0.0,0.0,0.0,0.0,0.0,0.0,0.0,0.0,0.0,0.0,0.0,0.0,0.0,0.0,0.0,0.0,0.0,0.0,0.0,0.0,0.0,0.0,0.0,0.0,0.0,0.0,0.0,0.0,0.0,0.0,0.0,0.0,0.0,0.0,0.0,0.0,0.0,0.0,0.0,0.0,0.0,0.0,0.0,0.0,0.0,0.0,0.0,0.0,0.0,0.0,0.0,0.0,0.0,0.0,0.0,0.0,0.0,0.0,0.0,0.0,0.0,0.0,0.0,0.0,0.0,0.0,-0.198,-0.3337,-0.3368,-0.2082,-0.3157,-0.305,0.0,0.0,0.0,0.0,0.0,0.0,0.0,0.0,0.0,0.0,0.0,0.0,0.0,0.0,0.0,0.0,0.0,0.0,0.0,0.0,0.0,0.0,0.0,0.0,0.0,0.0,0.0,0.0,0.0,0.0,0.0,0.0,0.0,0.0,0.0,0.0,0.0,0.0,0.0,0.0,0.0,0.0,0.0,0.0,0.0,0.0,0.0,0.0,0.0,0.0,0.0,0.0,0.0,0.0,0.0,0.0,0.0,0.0,0.0,0.0,0.0,0.0,0.0,0.0,0.0,0.0,0.0,0.0,0.0,0.0,0.0,0.0,0.0,0.0,0.0,0.0,0.0,0.0,0.0,0.0,0.0,0.0,0.0,0.0,0.0,0.0,0.0,0.0,0.0,0.0,0.0,0.0,0.0,0.0,0.0,0.0,0.0,0.0,0.0,0.0,0.0,0.0,0.0,0.0,0.0,0.0,0.0,0.0,0.0,-0.2844,-0.3352,-0.3081,-0.1841,-0.2866,-0.3033,-0.2391,0.0,0.0,0.0,0.0,0.0,0.0,0.0,0.0,0.0,0.0,0.0,0.0,0.0,0.0,0.0,0.0,0.0,0.0,0.0,0.0,0.0,0.0,0.0,0.0,0.0,0.0,0.0,0.0,0.0,0.0,0.0,0.0,0.0,0.0,0.0,0.0,0.0,0.0,0.0,0.0,0.0,0.0,0.0,0.0,0.0,0.0,0.0,0.0,0.0,0.0,0.0,0.0,0.0,0.0,0.0,0.0,0.0,0.0,0.0,0.0,0.0,0.0,0.0,0.0,0.0,0.0,0.0,0.0,0.0,0.0,0.0,0.0,0.0,0.0,0.0,0.0,0.0,0.0,0.0,0.0,0.0,0.0,0.0,0.0,0.0,0.0,0.0,0.0,0.0,0.0,0.0,0.0,0.0,0.0,0.0,0.0,0.0,0.0,0.0,0.0,0.0,0.0,0.0,0.0,0.0,0.0,0.0,0.0,-0.2776,-0.0952,-0.0146,-0.0212,-0.0343,-0.0991,0.0,0.0,0.0,0.0,0.0,0.0,0.0,0.0,0.0,0.0,0.0,0.0,0.0,0.0,0.0,0.0,0.0,0.0,0.0,0.0,0.0,0.0,0.0,0.0,0.0,0.0,0.0,0.0,0.0,0.0,0.0,0.0,0.0,0.0,0.0,0.0,0.0,0.0,0.0,0.0,0.0,0.0,0.0,0.0,0.0,0.0,0.0,0.0,0.0,0.0,0.0,0.0,0.0,0.0,0.0,0.0,0.0,0.0,0.0,0.0,0.0,0.0,0.0,0.0,0.0,0.0,0.0,0.0,0.0,0.0,0.0,0.0,0.0,0.0,0.0,0.0,0.0,0.0,0.0,0.0,0.0,0.0,0.0,0.0,0.0,0.0,0.0,0.0,0.0,0.0,0.0,0.0,0.0,0.0,0.0,0.0,0.0,0.0,0.0,0.0,0.0,0.0,0.0,0.0,0.0,0.0,0.0,0.0,0.0,-0.0775,-0.0289,-0.0662,-0.2146,-0.3329,-0.3473,0.0,0.0,0.0,0.0,0.0,0.0,0.0,0.0,0.0,0.0,0.0,0.0,0.0,0.0,0.0,0.0,0.0,0.0,0.0,0.0,0.0,0.0,0.0,0.0,0.0,0.0,0.0,0.0,0.0,0.0,0.0,0.0,0.0,0.0,0.0,0.0,0.0,0.0,0.0,0.0,0.0,0.0,0.0,0.0,0.0,0.0,0.0,0.0,0.0,0.0,0.0,0.0,0.0,0.0,0.0,0.0,0.0,0.0,0.0,0.0,0.0,0.0,0.0,0.0,0.0,0.0,0.0,0.0,0.0,0.0,0.0,0.0,0.0,0.0,0.0,0.0,0.0,0.0,0.0,0.0,0.0,0.0,0.0,0.0,0.0,0.0,0.0,0.0,0.0,0.0,0.0,0.0,0.0,0.0,0.0,0.0,0.0,0.0,0.0,0.0,0.0,0.0,0.0,0.0,0.0,0.0,0.0,0.0,0.0,0.0,0.0,-0.0525,-0.1663,-0.2616,-0.2862,0.0,0.0,0.0,0.0,0.0,0.0,0.0,0.0,0.0,0.0,0.0,0.0,0.0,0.0,0.0,0.0,0.0,0.0,0.0,0.0,0.0,0.0,0.0,0.0,0.0,0.0,0.0,0.0,0.0,0.0,0.0,0.0,0.0,0.0,0.0,0.0,0.0,0.0,0.0,0.0,0.0,0.0,0.0,0.0,0.0,0.0,0.0,0.0,0.0,0.0,0.0,0.0,0.0,0.0,0.0,0.0,0.0,0.0,0.0,0.0,0.0,0.0,0.0,0.0,0.0,0.0,0.0,0.0,0.0,0.0,0.0,0.0,0.0,0.0,0.0,0.0,0.0,0.0,0.0,0.0,0.0,0.0,0.0,0.0,0.0,0.0,0.0,0.0,0.0,0.0,0.0,0.0,0.0,0.0,0.0,0.0,0.0,0.0,0.0,0.0,0.0,0.0,0.0,0.0,0.0,0.0,0.0,0.0,0.0,0.0,0.0,0.0,0.0,0.0,-0.0713,0.0,0.0,0.0,0.0,0.0,0.0,0.0,0.0,0.0,0.0,0.0,0.0,0.0,0.0,0.0,0.0,0.0,0.0,0.0,0.0,0.0,0.0,0.0,0.0,0.0,0.0,0.0,0.0,0.0,0.0,0.0,0.0,0.0,0.0,0.0,0.0,0.0,0.0,0.0,0.0,0.0,0.0,0.0,0.0,0.0,0.0,0.0,0.0,0.0,0.0,0.0,0.0,0.0,0.0,0.0,0.0,0.0,0.0,0.0,0.0,0.0,0.0,0.0,0.0,0.0,0.0,0.0,0.0,0.0,0.0,0.0,0.0,0.0,0.0,0.0,0.0,0.0,0.0,0.0,0.0,0.0,0.0,0.0,0.0,0.0,0.0,0.0,0.0,0.0,0.0,0.0,0.0,0.0,0.0,0.0,0.0,0.0,0.0,0.0,0.0,0.0,0.0,0.0,0.0,0.0,0.0,0.0,0.0,0.0,0.0,0.0,0.0,0.0,0.0,-0.0145,0.0,0.0,0.0,0.0,0.0,0.0,0.0,0.0,0.0,0.0,0.0,0.0,0.0,0.0,0.0,0.0,0.0,0.0,0.0,0.0,0.0,0.0,0.0,0.0,0.0,0.0,0.0,0.0,0.0,0.0,0.0,0.0,0.0,0.0,0.0,0.0,0.0,0.0,0.0,0.0,0.0,0.0,0.0,0.0,0.0,0.0,0.0,0.0,0.0,0.0,0.0,0.0,0.0,0.0,0.0,0.0,0.0,0.0,0.0,0.0,0.0,0.0,0.0,0.0,0.0,0.0,0.0,0.0,0.0,0.0,0.0,0.0,0.0,0.0,0.0,0.0,0.0,0.0,0.0,0.0,0.0,0.0,0.0,0.0,0.0,0.0,0.0,0.0,0.0,0.0,0.0,0.0,0.0,0.0,0.0,0.0,0.0,0.0,0.0,0.0,0.0,0.0,0.0,0.0,0.0,0.0,0.0,0.0,0.0,0.0,0.0,0.0,0.0,0.0,0.0,0.0,0.0,0.0,0.0,0.0,0.0,0.0,0.0,0.0,0.0,0.0,0.0,0.0,0.0,0.0,0.0,0.0,0.0,0.0,0.0,0.0,0.0,0.0,0.0,0.0,0.0,0.0,0.0,0.0,0.0,0.0,0.0,0.0,0.0,0.0,0.0,0.0,0.0,0.0,0.0,0.0,0.0,0.0,0.0,0.0,0.0,0.0,0.0,0.0,0.0,0.0,0.0,0.0,0.0,0.0,0.0,0.0,0.0,0.0,0.0,0.0,0.0,0.0,0.0,0.0,0.0,0.0,0.0,0.0,0.0,0.0,0.0,0.0,0.0,0.0,0.0,0.0,0.0,0.0,0.0,0.0,0.0,0.0,0.0,0.0,0.0,0.0,0.0,0.0,0.0,0.0,0.0,0.0,0.0,0.0,0.0,0.0,0.0,0.0,0.0,0.0,0.0,0.0,0.0,0.0,0.0,0.0,0.0,0.0,0.0,0.0,0.0,0.0,0.0,0.0,0.0,0.0,0.0,0.0,0.0,0.0,0.0,0.0,0.0,0.0,0.0,0.0,0.0,0.0,0.0,0.0,0.0,0.0,0.0,0.0,0.0,0.0,0.0,0.0,0.0,0.0,0.0,0.0,0.0,0.0,0.0,0.0,0.0,0.0,0.0,0.0,0.0,0.0,0.0,-0.8905,-0.8183,0.0,0.0,0.0,0.0,0.0,0.0,0.0,0.0,0.0,0.0,0.0,0.0,0.0,0.0,0.0,0.0,0.0,0.0,0.0,0.0,0.0,0.0,0.0,0.0,0.0,0.0,0.0,0.0,0.0,0.0,0.0,0.0,0.0,0.0,0.0,0.0,0.0,0.0,0.0,0.0,0.0,0.0,0.0,0.0,0.0,0.0,0.0,0.0,0.0,0.0,0.0,0.0,0.0,0.0,0.0,0.0,0.0,0.0,0.0,0.0,0.0,0.0,0.0,0.0,0.0,0.0,0.0,0.0,0.0,0.0,0.0,0.0,0.0,0.0,0.0,0.0,0.0,0.0,0.0,0.0,0.0,0.0,0.0,0.0,0.0,0.0,0.0,0.0,0.0,0.0,0.0,0.0,0.0,0.0,0.0,0.0,0.0,0.0,0.0,0.0,0.0,0.0,0.0,0.0,0.0,0.0,0.0,0.0,0.0,0.0,0.0,0.0,0.0,0.0,-0.4618,-0.346,0.0,0.0,0.0,0.0,0.0,0.0,0.0,0.0,0.0,0.0,0.0,0.0,0.0,0.0,0.0,0.0,0.0,0.0,0.0,0.0,0.0,0.0,0.0,0.0,0.0,0.0,0.0,0.0,0.0,0.0,0.0,0.0,0.0,0.0,0.0,0.0,0.0,0.0,0.0,0.0,0.0,0.0,0.0,0.0,0.0,0.0,0.0,0.0,0.0,0.0,0.0,0.0,0.0,0.0,0.0,0.0,0.0,0.0,0.0,0.0,0.0,0.0,0.0,0.0,0.0,0.0,0.0,0.0,0.0,0.0,0.0,0.0,0.0,0.0,0.0,0.0,0.0,0.0,0.0,0.0,0.0,0.0,0.0,0.0,0.0,0.0,0.0,0.0,0.0,0.0,0.0,0.0,0.0,0.0,0.0,0.0,0.0,0.0,0.0,0.0,0.0,0.0,0.0,0.0,0.0,0.0,0.0,0.0,0.0,0.0,0.0,0.0,0.0,-0.4558,-0.415,-0.4195,0.0,0.0,0.0,0.0,0.0,0.0,-0.1372,-0.1609,0.0,0.0,0.0,0.0,0.0,0.0,0.0,0.0,0.0,0.0,0.0,0.0,0.0,0.0,0.0,0.0,0.0,0.0,0.0,0.0,0.0,0.0,0.0,0.0,0.0,0.0,0.0,0.0,0.0,0.0,0.0,0.0,0.0,0.0,0.0,0.0,0.0,0.0,0.0,0.0,0.0,0.0,0.0,0.0,0.0,0.0,0.0,0.0,0.0,0.0,0.0,0.0,0.0,0.0,0.0,0.0,0.0,0.0,0.0,0.0,0.0,0.0,0.0,0.0,0.0,0.0,0.0,0.0,0.0,0.0,0.0,0.0,0.0,0.0,0.0,0.0,0.0,0.0,0.0,0.0,0.0,0.0,0.0,0.0,0.0,0.0,0.0,0.0,0.0,0.0,0.0,0.0,0.0,0.0,0.0,0.0,0.0,0.0,0.0,0.0,0.0,0.0,0.0,0.0,0.0,-0.5158,-0.5381,-0.5566,0.0,0.0,0.0,0.0,-0.3297,-0.3165,0.0,0.0,0.0,0.0,0.0,0.0,0.0,0.0,0.0,0.0,0.0,0.0,0.0,0.0,0.0,0.0,0.0,0.0,0.0,0.0,0.0,0.0,0.0,0.0,0.0,0.0,0.0,0.0,0.0,0.0,0.0,0.0,0.0,0.0,0.0,0.0,0.0,0.0,0.0,0.0,0.0,0.0,0.0,0.0,0.0,0.0,0.0,0.0,0.0,0.0,0.0,0.0,0.0,0.0,0.0,0.0,0.0,0.0,0.0,0.0,0.0,0.0,0.0,0.0,0.0,0.0,0.0,0.0,0.0,0.0,0.0,0.0,0.0,0.0,0.0,0.0,0.0,0.0,0.0,0.0,0.0,0.0,0.0,0.0,0.0,0.0,0.0,0.0,0.0,0.0,0.0,0.0,0.0,0.0,0.0,0.0,0.0,0.0,0.0,0.0,0.0,0.0,0.0,0.0,0.0,0.0,-0.3903,-0.5337,-0.5815,-0.5818,0.0,0.0,-0.5384,-0.526,-0.5252,0.0,0.0,0.0,0.0,0.0,0.0,0.0,0.0,0.0,0.0,0.0,0.0,0.0,0.0,0.0,0.0,0.0,0.0,0.0,0.0,0.0,0.0,0.0,0.0,0.0,0.0,0.0,0.0,0.0,0.0,0.0,0.0,0.0,0.0,0.0,0.0,0.0,0.0,0.0,0.0,0.0,0.0,0.0,0.0,0.0,0.0,0.0,0.0,0.0,0.0,0.0,0.0,0.0,0.0,0.0,0.0,0.0,0.0,0.0,0.0,0.0,0.0,0.0,0.0,0.0,0.0,0.0,0.0,0.0,0.0,0.0,0.0,0.0,0.0,0.0,0.0,0.0,0.0,0.0,0.0,0.0,0.0,0.0,0.0,0.0,0.0,0.0,0.0,0.0,0.0,0.0,0.0,0.0,0.0,0.0,0.0,0.0,0.0,0.0,0.0,0.0,0.0,0.0,0.0,0.0,0.0,0.0,-0.6931,-0.7454,0.0,0.0,0.0,-0.733,-0.7265,0.0,0.0,0.0,0.0,0.0,0.0,0.0,0.0,0.0,0.0,0.0,0.0,0.0,0.0,0.0,0.0,0.0,0.0,0.0,0.0,0.0,0.0,0.0,0.0,0.0,0.0,0.0,0.0,0.0,0.0,0.0,0.0,0.0,0.0,0.0,0.0,0.0,0.0,0.0,0.0,0.0,0.0,0.0,0.0,0.0,0.0,0.0,0.0,0.0,0.0,0.0,0.0,0.0,0.0,0.0,0.0,0.0,0.0,0.0,0.0,0.0,0.0,0.0,0.0,0.0,0.0,0.0,0.0,0.0,0.0,0.0,0.0,0.0,0.0,0.0,0.0,0.0,0.0,0.0,0.0,0.0,0.0,0.0,0.0,0.0,0.0,0.0,0.0,0.0,0.0,0.0,0.0,0.0,0.0,0.0,0.0,0.0,0.0,0.0,0.0,0.0,0.0,0.0,0.0,0.0,0.0,0.0,-0.5285,-0.8956,-0.9523,-0.963,0.0,0.0,-0.9285,-0.9236,-0.8988,-0.9172,0.0,0.0,0.0,0.0,0.0,0.0,0.0,0.0,0.0,0.0,0.0,0.0,0.0,0.0,0.0,0.0,0.0,0.0,0.0,0.0,0.0,0.0,0.0,0.0,0.0,0.0,0.0,0.0,0.0,0.0,0.0,0.0,0.0,0.0,0.0,0.0,0.0,0.0,0.0,0.0,0.0,0.0,0.0,0.0,0.0,0.0,0.0,0.0,0.0,0.0,0.0,0.0,0.0,0.0,0.0,0.0,0.0,0.0,0.0,0.0,0.0,0.0,0.0,0.0,0.0,0.0,0.0,0.0,0.0,0.0,0.0,0.0,0.0,0.0,0.0,0.0,0.0,0.0,0.0,0.0,0.0,0.0,0.0,0.0,0.0,0.0,0.0,0.0,0.0,0.0,0.0,0.0,0.0,0.0,0.0,0.0,0.0,0.0,0.0,0.0,0.0,0.0,0.0,0.0,0.0,-0.7402,-1.1091,-1.1836,-1.2038,0.0,-1.1744,-1.1477,-1.1217,-1.1038,-1.0846,-1.0548,0.0,0.0,0.0,0.0,0.0,0.0,0.0,0.0,0.0,0.0,0.0,0.0,0.0,0.0,0.0,0.0,0.0,0.0,0.0,0.0,0.0,0.0,0.0,0.0,0.0,0.0,0.0,0.0,0.0,0.0,0.0,0.0,0.0,0.0,0.0,0.0,0.0,0.0,0.0,0.0,0.0,0.0,0.0,0.0,0.0,0.0,0.0,0.0,0.0,0.0,0.0,0.0,0.0,0.0,0.0,0.0,0.0,0.0,0.0,0.0,0.0,0.0,0.0,0.0,0.0,0.0,0.0,0.0,0.0,0.0,0.0,0.0,0.0,0.0,0.0,0.0,0.0,0.0,0.0,0.0,0.0,0.0,0.0,0.0,0.0,0.0,0.0,0.0,0.0,0.0,0.0,0.0,0.0,0.0,0.0,0.0,0.0,0.0,0.0,0.0,0.0,0.0,0.0,0.0,-0.9125,-1.1727,-1.2135,0.0,0.0,-1.1857,-1.1694,-1.1667,-1.1457,-1.1212,-1.0948,-1.0833,0.0,0.0,0.0,0.0,0.0,0.0,0.0,0.0,0.0,0.0,0.0,0.0,0.0,0.0,0.0,0.0,0.0,0.0,0.0,0.0,0.0,0.0,0.0,0.0,0.0,0.0,0.0,0.0,0.0,0.0,0.0,0.0,0.0,0.0,0.0,0.0,0.0,0.0,0.0,0.0,0.0,0.0,0.0,0.0,0.0,0.0,0.0,0.0,0.0,0.0,0.0,0.0,0.0,0.0,0.0,0.0,0.0,0.0,0.0,0.0,0.0,0.0,0.0,0.0,0.0,0.0,0.0,0.0,0.0,0.0,0.0,0.0,0.0,0.0,0.0,0.0,0.0,0.0,0.0,0.0,0.0,0.0,0.0,0.0,0.0,0.0,0.0,0.0,0.0,0.0,0.0,0.0,0.0,0.0,0.0,0.0,0.0,0.0,0.0,0.0,0.0,0.0,0.0,-0.9167,-1.1097,-1.1878,-1.2038,-1.1428,-1.1569,-1.1769,-1.1823,-1.1619,-1.1375,-1.1138,0.0,0.0,0.0,0.0,0.0,0.0,0.0,0.0,0.0,0.0,0.0,0.0,0.0,0.0,0.0,0.0,0.0,0.0,0.0,0.0,0.0,0.0,0.0,0.0,0.0,0.0,0.0,0.0,0.0,0.0,0.0,0.0,0.0,0.0,0.0,0.0,0.0,0.0,0.0,0.0,0.0,0.0,0.0,0.0,0.0,0.0,0.0,0.0,0.0,0.0,0.0,0.0,0.0,0.0,0.0,0.0,0.0,0.0,0.0,0.0,0.0,0.0,0.0,0.0,0.0,0.0,0.0,0.0,0.0,0.0,0.0,0.0,0.0,0.0,0.0,0.0,0.0,0.0,0.0,0.0,0.0,0.0,0.0,0.0,0.0,0.0,0.0,0.0,0.0,0.0,0.0,0.0,0.0,0.0,0.0,0.0,0.0,0.0,0.0,0.0,0.0,0.0,0.0,-0.6361,-0.7111,-0.9216,-1.1166,-1.1702,-0.9826,-1.1011,-1.1999,-1.1857,-1.1714,-1.1463,0.0,0.0,0.0,0.0,0.0,0.0,0.0,0.0,0.0,0.0,0.0,0.0,0.0,0.0,0.0,0.0,0.0,0.0,0.0,0.0,0.0,0.0,0.0,0.0,0.0,0.0,0.0,0.0,0.0,0.0,0.0,0.0,0.0,0.0,0.0,0.0,0.0,0.0,0.0,0.0,0.0,0.0,0.0,0.0,0.0,0.0,0.0,0.0,0.0,0.0,0.0,0.0,0.0,0.0,0.0,0.0,0.0,0.0,0.0,0.0,0.0,0.0,0.0,0.0,0.0,0.0,0.0,0.0,0.0,0.0,0.0,0.0,0.0,0.0,0.0,0.0,0.0,0.0,0.0,0.0,0.0,0.0,0.0,0.0,0.0,0.0,0.0,0.0,0.0,0.0,0.0,0.0,0.0,0.0,0.0,0.0,0.0,0.0,0.0,0.0,0.0,0.0,-0.2601,-0.3957,-0.5413,-0.7084,-0.9273,-1.0039,-1.0615,0.0,0.0,0.0,0.0,0.0,0.0,0.0,0.0,0.0,0.0,0.0,0.0,0.0,0.0,-0.7595,-0.624,-0.6484,-0.6924,-0.6762,0.0,0.0,0.0,0.0,0.0,0.0,0.0,0.0,0.0,0.0,0.0,0.0,0.0,0.0,0.0,0.0,0.0,0.0,0.0,0.0,0.0,0.0,0.0,0.0,0.0,0.0,0.0,0.0,0.0,0.0,0.0,0.0,0.0,0.0,0.0,0.0,0.0,0.0,0.0,0.0,0.0,0.0,0.0,0.0,0.0,0.0,0.0,0.0,0.0,0.0,0.0,0.0,0.0,0.0,0.0,0.0,0.0,0.0,0.0,0.0,0.0,0.0,0.0,0.0,0.0,0.0,0.0,0.0,0.0,0.0,0.0,0.0,0.0,0.0,0.0,0.0,0.0,0.0,0.0,0.0,0.0,0.0,0.0,0.0,0.0,0.0,0.0,-0.0077,-0.1179,-0.2313,-0.2984,-0.4263,-0.6006,-0.8232,0.0,0.0,0.0,0.0,0.0,0.0,0.0,-1.1371,-0.9387,-0.8939,-0.7969,-0.5261,-0.4935,-0.4732,-0.4079,0.0,0.0,-0.4381,-0.5852,-0.7026,-0.6992,-0.8655,-1.0254,-1.0672,-1.0975,-1.1084,0.0,0.0,0.0,0.0,0.0,0.0,0.0,0.0,0.0,0.0,0.0,0.0,0.0,0.0,0.0,0.0,0.0,0.0,0.0,0.0,0.0,0.0,0.0,0.0,0.0,0.0,0.0,0.0,0.0,0.0,0.0,0.0,0.0,0.0,0.0,0.0,0.0,0.0,0.0,0.0,0.0,0.0,0.0,0.0,0.0,0.0,0.0,0.0,0.0,0.0,0.0,0.0,0.0,0.0,0.0,0.0,0.0,0.0,0.0,0.0,0.0,0.0,0.0,0.0,0.0,0.0,0.0,0.0,0.0,0.0,0.0,0.0,0.0,0.0,0.0,0.0,0.0,0.0,0.0,0.0,0.0,0.0,-0.0498,-0.0251,-0.0846,-0.2897,0.0,0.0,0.0,0.0,-0.7236,-0.9922,-0.9848,-1.0379,-1.2669,-1.2678,-1.1619,-0.9177,0.0,0.0,-0.3487,-0.2959,-0.2529,-0.0542,-0.0545,-0.086,-0.2927,-0.4839,-0.5968,-0.5907,-0.7498,-0.9419,-1.1077,-1.1511,-1.1518,0.0,0.0,0.0,0.0,0.0,0.0,0.0,0.0,0.0,0.0,0.0,0.0,0.0,0.0,0.0,0.0,0.0,0.0,0.0,0.0,0.0,0.0,0.0,0.0,0.0,0.0,0.0,0.0,0.0,0.0,0.0,0.0,0.0,0.0,0.0,0.0,0.0,0.0,0.0,0.0,0.0,0.0,0.0,0.0,0.0,0.0,0.0,0.0,0.0,0.0,0.0,0.0,0.0,0.0,0.0,0.0,0.0,0.0,0.0,0.0,0.0,0.0,0.0,0.0,0.0,0.0,0.0,0.0,0.0,0.0,0.0,0.0,0.0,0.0,0.0,0.0,0.0,0.0,0.0,0.0,0.0,0.0,-0.2444,-0.2616,-0.295,0.0,0.0,-0.2352,-0.6262,-0.671,-0.7912,-1.1785,-1.2117,0.0,-1.2579,-1.2474,-1.1152,-0.7591,-0.4562,-0.2208,-0.1023,-0.2125,-0.2905,-0.2261,-0.3513,-0.4678,-0.5231,-0.5547,-0.573,-0.5839,-0.8304,-1.0632,-1.1181,-1.1375,-1.1409,0.0,0.0,0.0,0.0,0.0,0.0,0.0,0.0,0.0,0.0,0.0,0.0,0.0,0.0,0.0,0.0,0.0,0.0,0.0,0.0,0.0,0.0,0.0,0.0,0.0,0.0,0.0,0.0,0.0,0.0,0.0,0.0,0.0,0.0,0.0,0.0,0.0,0.0,0.0,0.0,0.0,0.0,0.0,0.0,0.0,0.0,0.0,0.0,0.0,0.0,0.0,0.0,0.0,0.0,0.0,0.0,0.0,0.0,0.0,0.0,0.0,0.0,0.0,0.0,0.0,0.0,0.0,0.0,0.0,0.0,0.0,0.0,0.0,0.0,0.0,0.0,0.0,0.0,0.0,0.0,-0.088,-0.203,-0.3504,-0.3775,-0.4101,-0.4893,-0.299,-0.2718,-0.6322,0.0,-0.5625,-1.0097,-0.983,-0.9403,-1.0201,-1.0849,-1.0442,-0.8027,-0.4836,-0.2219,-0.1427,-0.299,-0.399,-0.3599,-0.4849,-0.6318,-0.6273,-0.5974,-0.6075,-0.6929,-0.9401,-1.1389,-1.1443,-1.1457,-1.1436,0.0,0.0,0.0,0.0,0.0,0.0,0.0,0.0,0.0,0.0,0.0,0.0,0.0,0.0,0.0,0.0,0.0,0.0,0.0,0.0,0.0,0.0,0.0,0.0,0.0,0.0,0.0,0.0,0.0,0.0,0.0,0.0,0.0,0.0,0.0,0.0,0.0,0.0,0.0,0.0,0.0,0.0,0.0,0.0,0.0,0.0,0.0,0.0,0.0,0.0,0.0,0.0,0.0,0.0,0.0,0.0,0.0,0.0,0.0,0.0,0.0,0.0,0.0,0.0,0.0,0.0,0.0,0.0,0.0,0.0,0.0,0.0,0.0,0.0,0.0,0.0,0.0,0.0,0.0,0.0,0.0,0.0,-0.3729,-0.3758,-0.4557,-0.6614,-0.4801,-0.4152,-0.6407,-0.3192,-0.1836,-0.6528,-0.5143,-0.4453,-0.6892,-0.8445,-0.9486,-0.9332,-0.7645,-0.5089,-0.3447,-0.4461,-0.5006,-0.3443,-0.4849,-0.6254,-0.6254,-0.6109,-0.6663,-0.8398,-0.9996,-1.1231,-1.1351,-1.1253,-1.1201,0.0,0.0,0.0,0.0,0.0,0.0,0.0,0.0,0.0,0.0,0.0,0.0,0.0,0.0,0.0,0.0,0.0,0.0,0.0,0.0,0.0,0.0,0.0,0.0,0.0,0.0,0.0,0.0,0.0,0.0,0.0,0.0,0.0,0.0,0.0,0.0,0.0,0.0,0.0,0.0,0.0,0.0,0.0,0.0,0.0,0.0,0.0,0.0,0.0,0.0,0.0,0.0,0.0,0.0,0.0,0.0,0.0,0.0,0.0,0.0,0.0,0.0,0.0,0.0,0.0,0.0,0.0,0.0,0.0,0.0,0.0,0.0,0.0,0.0,0.0,0.0,0.0,0.0,0.0,0.0,-0.0548,-0.1639,-0.3456,-0.3645,-0.4418,-0.646,-0.3434,-0.2296,-0.6055,-0.4438,-0.356,-0.6111,-0.6032,-0.5961,-0.6384,-0.6841,-0.7693,-0.9312,-0.6459,-0.3677,-0.3208,-0.3443,-0.3677,-0.3286,-0.4849,-0.6098,-0.6257,-0.624,-0.6379,-0.6887,-0.7109,-0.7694,-0.9092,-0.9445,-0.9784,0.0,0.0,0.0,0.0,0.0,0.0,0.0,0.0,0.0,0.0,0.0,0.0,0.0,0.0,0.0,0.0,0.0,0.0,0.0,0.0,0.0,0.0,0.0,0.0,0.0,0.0,0.0,0.0,0.0,0.0,0.0,0.0,0.0,0.0,0.0,0.0,0.0,0.0,0.0,0.0,0.0,0.0,0.0,0.0,0.0,0.0,0.0,0.0,0.0,0.0,0.0,0.0,0.0,0.0,0.0,0.0,0.0,0.0,0.0,0.0,0.0,0.0,0.0,0.0,0.0,0.0,0.0,0.0,0.0,0.0,0.0,0.0,0.0,0.0,0.0,0.0,0.0,0.0,0.0,0.0,0.0,-0.0543,-0.1808,-0.1989,-0.2779,-0.4986,-0.2207,-0.1235,-0.4293,-0.3316,-0.2374,-0.3639,-0.3686,-0.398,-0.4869,-0.4953,-0.5605,-0.7477,-0.6145,-0.4224,-0.3365,-0.3912,-0.4224,-0.3443,-0.4849,-0.6257,-0.6257,-0.5474,-0.4927,-0.4753,-0.3971,-0.4342,-0.6857,-0.8158,-0.9069,0.0,0.0,0.0,0.0,0.0,0.0,0.0,0.0,0.0,0.0,0.0,0.0,0.0,0.0,0.0,0.0,0.0,0.0,0.0,0.0,0.0,0.0,0.0,0.0,0.0,0.0,0.0,0.0,0.0,0.0,0.0,0.0,0.0,0.0,0.0,0.0,0.0,0.0,0.0,0.0,0.0,0.0,0.0,0.0,0.0,0.0,0.0,0.0,0.0,0.0,0.0,0.0,0.0,0.0,0.0,0.0,0.0,0.0,0.0,0.0,0.0,0.0,0.0,0.0,0.0,0.0,0.0,0.0,0.0,0.0,0.0,0.0,0.0,0.0,0.0,0.0,0.0,0.0,0.0,0.0,0.0,0.0,0.0,0.0,-0.0804,-0.2385,-0.1324,-0.0787,-0.2295,-0.1352,0.0,0.0,0.0,0.0,-0.2984,-0.3277,-0.3967,-0.6001,-0.5947,-0.5263,-0.3376,-0.4245,-0.4716,-0.3219,-0.4003,-0.5254,-0.5489,-0.3918,-0.274,-0.2661,-0.1462,-0.1515,-0.474,-0.6937,-0.8348,0.0,0.0,0.0,0.0,0.0,0.0,0.0,0.0,0.0,0.0,0.0,0.0,0.0,0.0,0.0,0.0,0.0,0.0,0.0,0.0,0.0,0.0,0.0,0.0,0.0,0.0,0.0,0.0,0.0,0.0,0.0,0.0,0.0,0.0,0.0,0.0,0.0,0.0,0.0,0.0,0.0,0.0,0.0,0.0,0.0,0.0,0.0,0.0,0.0,0.0,0.0,0.0,0.0,0.0,0.0,0.0,0.0,0.0,0.0,0.0,0.0,0.0,0.0,0.0,0.0,0.0,0.0,0.0,0.0,0.0,0.0,0.0,0.0,0.0,0.0,0.0,0.0,0.0,0.0,0.0,0.0,0.0,0.0,0.0,0.0,0.0,0.0,-0.0176,0.0,0.0,0.0,0.0,0.0,0.0,-0.293,-0.3064,-0.3692,-0.564,-0.4864,-0.3613,-0.3105,-0.1843,0.0,0.0,-0.0955,0.0,0.0,-0.0869,0.0,0.0,0.0,-0.0689,-0.3026,-0.5028,-0.6821,0.0,0.0,0.0,0.0,0.0,0.0,0.0,0.0,0.0,0.0,0.0,0.0,0.0,0.0,0.0,0.0,0.0,0.0,0.0,0.0,0.0,0.0,0.0,0.0,0.0,0.0,0.0,0.0,0.0,0.0,0.0,0.0,0.0,0.0,0.0,0.0,0.0,0.0,0.0,0.0,0.0,0.0,0.0,0.0,0.0,0.0,0.0,0.0,0.0,0.0,0.0,0.0,0.0,0.0,0.0,0.0,0.0,0.0,0.0,0.0,0.0,0.0,0.0,0.0,0.0,0.0,0.0,0.0,0.0,0.0,0.0,0.0,0.0,0.0,0.0,0.0,0.0,0.0,0.0,0.0,0.0,0.0,0.0,0.0,0.0,0.0,0.0,0.0,0.0,0.0,0.0,0.0,0.0,0.0,-0.1337,-0.166,0.0,-0.2867,-0.2281,-0.1702,-0.1532,-0.0729,0.0,0.0,0.0,0.0,0.0,0.0,0.0,0.0,0.0,0.0,-0.1374,-0.3004,-0.4949,0.0,0.0,0.0,0.0,0.0,0.0,0.0,0.0,0.0,0.0,0.0,0.0,0.0,0.0,0.0,0.0,0.0,0.0,0.0,0.0,0.0,0.0,0.0,0.0,0.0,0.0,0.0,0.0,0.0,0.0,0.0,0.0,0.0,0.0,0.0,0.0,0.0,0.0,0.0,0.0,0.0,0.0,0.0,0.0,0.0,0.0,0.0,0.0,0.0,0.0,0.0,0.0,0.0,0.0,0.0,0.0,0.0,0.0,0.0,0.0,0.0,0.0,0.0,0.0,0.0,0.0,0.0,0.0,0.0,0.0,0.0,0.0,0.0,0.0,0.0,0.0,0.0,0.0,0.0,0.0,0.0,0.0,0.0,0.0,0.0,0.0,0.0,0.0,0.0,0.0,0.0,0.0,0.0,0.0,0.0,0.0,0.0,0.0,0.0,0.0,0.0,0.0,0.0,0.0,0.0,0.0,0.0,0.0,0.0,0.0,0.0,-0.0155,-0.0618,-0.1839,-0.3631,0.0,0.0,0.0,0.0,0.0,0.0,0.0,0.0,0.0,0.0,0.0,0.0,0.0,0.0,0.0,0.0,0.0,0.0,0.0,0.0,0.0,0.0,0.0,0.0,0.0,0.0,0.0,0.0,0.0,0.0,0.0,0.0,0.0,0.0,0.0,0.0,0.0,0.0,0.0,0.0,0.0,0.0,0.0,0.0,0.0,0.0,0.0,0.0,0.0,0.0,0.0,0.0,0.0,0.0,0.0,0.0,0.0,0.0,0.0,0.0,0.0,0.0,0.0,0.0,0.0,0.0,0.0,0.0,0.0,0.0,0.0,0.0,0.0,0.0,0.0,0.0,0.0,0.0,0.0,0.0,0.0,0.0,0.0,0.0,0.0,0.0,0.0,0.0,0.0,0.0,0.0,0.0,0.0,0.0,0.0,0.0,0.0,0.0,0.0,0.0,0.0,0.0,0.0,0.0,0.0,0.0,0.0,0.0,0.0,0.0,0.0,-0.0627,-0.211,-0.2959,-0.3938,0.0,0.0,0.0,0.0,0.0,0.0,0.0,0.0,0.0,0.0,0.0,0.0,0.0,0.0,0.0,0.0,0.0,0.0,0.0,0.0,0.0,0.0,0.0,0.0,0.0,0.0,0.0,0.0,0.0,0.0,0.0,0.0,0.0,0.0,0.0,0.0,0.0,0.0,0.0,0.0,0.0,0.0,0.0,0.0,0.0,0.0,0.0,0.0,0.0,0.0,0.0,0.0,0.0,0.0,0.0,0.0,0.0,0.0,0.0,0.0,0.0,0.0,0.0,0.0,0.0,0.0,0.0,0.0,0.0,0.0,0.0,0.0,0.0,0.0,0.0,0.0,0.0,0.0,0.0,0.0,0.0,0.0,0.0,0.0,0.0,0.0,0.0,0.0,0.0,0.0,0.0,0.0,0.0,0.0,0.0,0.0,0.0,0.0,0.0,0.0,0.0,0.0,0.0,0.0,0.0,0.0,0.0,0.0,0.0,0.0,-0.1038,-0.2059,-0.3003,-0.4792,-0.677,0.0,0.0,0.0,0.0,0.0,0.0,0.0,0.0,0.0,0.0,0.0,0.0,0.0,0.0,0.0,0.0,0.0,0.0,0.0,0.0,0.0,0.0,0.0,0.0,0.0,0.0,0.0,0.0,0.0,0.0,0.0,0.0,0.0,0.0,0.0,0.0,0.0,0.0,0.0,0.0,0.0,0.0,0.0,0.0,0.0,0.0,0.0,0.0,0.0,0.0,0.0,0.0,0.0,0.0,0.0,0.0,0.0,0.0,0.0,0.0,0.0,0.0,0.0,0.0,0.0,0.0,0.0,0.0,0.0,0.0,0.0,0.0,0.0,0.0,0.0,0.0,0.0,0.0,0.0,0.0,0.0,0.0,0.0,0.0,0.0,0.0,0.0,0.0,0.0,0.0,0.0,0.0,0.0,0.0,0.0,0.0,0.0,0.0,0.0,0.0,0.0,0.0,0.0,0.0,0.0,0.0,0.0,0.0,0.0,-0.082,-0.2024,-0.336,-0.4873,-0.7698,-0.9662,0.0,0.0,0.0,0.0,0.0,0.0,0.0,0.0,0.0,0.0,0.0,0.0,0.0,0.0,0.0,0.0,0.0,0.0,0.0,0.0,0.0,0.0,0.0,0.0,0.0,0.0,0.0,0.0,0.0,0.0,0.0,0.0,0.0,0.0,0.0,0.0,0.0,0.0,0.0,0.0,0.0,0.0,0.0,0.0,0.0,0.0,0.0,0.0,0.0,0.0,0.0,0.0,0.0,0.0,0.0,0.0,0.0,0.0,0.0,0.0,0.0,0.0,0.0,0.0,0.0,0.0,0.0,0.0,0.0,0.0,0.0,0.0,0.0,0.0,0.0,0.0,0.0,0.0,0.0,0.0,0.0,0.0,0.0,0.0,0.0,0.0,0.0,0.0,0.0,0.0,0.0,0.0,0.0,0.0,0.0,0.0,0.0,0.0,0.0,0.0,0.0,0.0,0.0,0.0,0.0,0.0,0.0,0.0,0.0,-0.2326,-0.3449,-0.4609,-0.8156,-1.0793,-1.1598,0.0,0.0,0.0,0.0,0.0,0.0,0.0,0.0,0.0,0.0,0.0,0.0,0.0,0.0,0.0,0.0,0.0,0.0,0.0,0.0,0.0,0.0,0.0,0.0,0.0,0.0,0.0,0.0,0.0,0.0,0.0,0.0,0.0,0.0,0.0,0.0,0.0,0.0,0.0,0.0,0.0,0.0,0.0,0.0,0.0,0.0,0.0,0.0,0.0,0.0,0.0,0.0,0.0,0.0,0.0,0.0,0.0,0.0,0.0,0.0,0.0,0.0,0.0,0.0,0.0,0.0,0.0,0.0,0.0,0.0,0.0,0.0,0.0,0.0,0.0,0.0,0.0,0.0,0.0,0.0,0.0,0.0,0.0,0.0,0.0,0.0,0.0,0.0,0.0,0.0,0.0,0.0,0.0,0.0,0.0,0.0,0.0,0.0,0.0,0.0,0.0,0.0,0.0,0.0,0.0,0.0,0.0,0.0,-0.2361,-0.3864,-0.6218,-0.8161,-1.1103,-1.2388,-1.2323,0.0,0.0,0.0,0.0,0.0,0.0,0.0,0.0,0.0,0.0,0.0,0.0,0.0,0.0,0.0,0.0,0.0,0.0,0.0,0.0,0.0,0.0,0.0,0.0,0.0,0.0,0.0,0.0,0.0,0.0,0.0,0.0,0.0,0.0,0.0,0.0,0.0,0.0,0.0,0.0,0.0,0.0,0.0,0.0,0.0,0.0,0.0,0.0,0.0,0.0,0.0,0.0,0.0,0.0,0.0,0.0,0.0,0.0,0.0,0.0,0.0,0.0,0.0,0.0,0.0,0.0,0.0,0.0,0.0,0.0,0.0,0.0,0.0,0.0,0.0,0.0,0.0,0.0,0.0,0.0,0.0,0.0,0.0,0.0,0.0,0.0,0.0,0.0,0.0,0.0,0.0,0.0,0.0,0.0,0.0,0.0,0.0,0.0,0.0,0.0,0.0,0.0,0.0,0.0,0.0,0.0,0.0,0.0,-0.4265,-0.5653,-0.8098,-1.0919,-1.2488,-1.301,-1.3064,0.0,0.0,0.0,0.0,0.0,0.0,0.0,0.0,0.0,0.0,0.0,0.0,0.0,0.0,0.0,0.0,0.0,0.0,0.0,0.0,0.0,0.0,0.0,0.0,0.0,0.0,0.0,0.0,0.0,0.0,0.0,0.0,0.0,0.0,0.0,0.0,0.0,0.0,0.0,0.0,0.0,0.0,0.0,0.0,0.0,0.0,0.0,0.0,0.0,0.0,0.0,0.0,0.0,0.0,0.0,0.0,0.0,0.0,0.0,0.0,0.0,0.0,0.0,0.0,0.0,0.0,0.0,0.0,0.0,0.0,0.0,0.0,0.0,0.0,0.0,0.0,0.0,0.0,0.0,0.0,0.0,0.0,0.0,0.0,0.0,0.0,0.0,0.0,0.0,0.0,0.0,0.0,0.0,0.0,0.0,0.0,0.0,0.0,0.0,0.0,0.0,0.0,0.0,0.0,0.0,0.0,0.0,-0.2466,-0.5612,-0.8021,-1.0699,-1.3061,-1.3307,-1.3383,-1.3329,0.0,0.0,0.0,0.0,0.0,0.0,0.0,0.0,-0.195,-0.2649,-0.2919,-0.4497,-0.4284,-0.2592,-0.2569,-0.1573,0.0,0.0,0.0,0.0,0.0,0.0,0.0,0.0,0.0,0.0,0.0,0.0,0.0,0.0,0.0,0.0,0.0,0.0,0.0,0.0,0.0,0.0,0.0,0.0,0.0,0.0,0.0,0.0,0.0,0.0,0.0,0.0,0.0,0.0,0.0,0.0,0.0,0.0,-0.0769,-0.2114,-0.0968,0.0,0.0,0.0,0.0,0.0,0.0,0.0,0.0,0.0,0.0,0.0,0.0,0.0,0.0,0.0,0.0,0.0,0.0,0.0,0.0,0.0,0.0,0.0,0.0,0.0,0.0,0.0,0.0,0.0,0.0,0.0,0.0,0.0,0.0,0.0,0.0,0.0,0.0,0.0,0.0,0.0,0.0,0.0,0.0,0.0,0.0,0.0,0.0,0.0,-0.098,-0.3613,-0.6932,-1.0859,-1.3566,-1.3506,-1.359,-1.3519,-1.3458,0.0,0.0,0.0,0.0,0.0,0.0,-0.0526,-0.1459,-0.3328,-0.4652,-0.5735,-0.7525,-0.6786,-0.4445,-0.4019,-0.2594,0.0,0.0,0.0,0.0,0.0,0.0,0.0,0.0,0.0,0.0,0.0,0.0,0.0,0.0,0.0,0.0,0.0,0.0,0.0,0.0,0.0,0.0,0.0,0.0,0.0,0.0,0.0,0.0,0.0,0.0,0.0,0.0,0.0,0.0,-0.0765,-0.1636,0.0,-0.2626,-0.3328,-0.4794,-0.3633,-0.2559,-0.2557,-0.2536,0.0,0.0,0.0,-0.1226,-0.1227,-0.0476,0.0,0.0,0.0,0.0,0.0,0.0,0.0,0.0,0.0,0.0,0.0,0.0,0.0,0.0,0.0,0.0,0.0,0.0,0.0,0.0,0.0,0.0,0.0,0.0,0.0,0.0,0.0,0.0,0.0,0.0,0.0,0.0,0.0,0.0,0.0,0.0,0.0,0.0,0.0,0.0,-0.2484,-0.501,-0.8561,-1.2613,-1.3732,-1.3651,-1.3668,-1.3546,-1.3498,0.0,0.0,0.0,0.0,0.0,0.0,-0.1694,-0.3675,-0.4509,-0.6462,-0.8369,-0.8873,-0.7696,-0.49,-0.4681,-0.2843,0.0,0.0,0.0,0.0,0.0,0.0,0.0,0.0,0.0,0.0,0.0,0.0,0.0,0.0,0.0,0.0,0.0,0.0,0.0,0.0,0.0,0.0,0.0,0.0,0.0,0.0,0.0,0.0,0.0,0.0,0.0,0.0,0.0,0.0,-0.2739,-0.5282,-0.7232,-0.744,-0.7824,-0.7844,-0.7793,-0.7725,-0.7623,-0.727,-0.6936,-0.6629,-0.5094,-0.3429,-0.3048,0.0,0.0,0.0,0.0,0.0,0.0,0.0,0.0,0.0,0.0,0.0,0.0,0.0,0.0,0.0,0.0,0.0,0.0,0.0,0.0,0.0,0.0,0.0,0.0,0.0,0.0,0.0,0.0,0.0,0.0,0.0,0.0,0.0,0.0,0.0,0.0,0.0,0.0,0.0,0.0,0.0,0.0,-0.567,-0.8132,-1.1434,-1.2286,-1.3488,-1.3804,-1.3722,-1.3539,0.0,0.0,0.0,0.0,0.0,-0.2028,-0.3503,-0.4657,-0.8134,-1.0508,-1.1578,-1.3336,-1.1573,-0.7766,-0.7035,-0.4485,0.0,0.0,0.0,0.0,0.0,0.0,0.0,0.0,0.0,0.0,0.0,0.0,0.0,0.0,0.0,0.0,0.0,0.0,0.0,0.0,0.0,0.0,0.0,0.0,0.0,0.0,0.0,0.0,-0.1759,-0.2734,-0.2745,-0.2737,-0.3721,-0.5431,-0.6418,-0.8014,-0.9938,-0.9062,-0.8963,-1.0356,-0.8982,-0.8004,-0.7994,-0.8031,-0.7987,-0.7482,-0.5463,-0.416,-0.3658,-0.1552,0.0,0.0,0.0,0.0,0.0,0.0,0.0,0.0,0.0,0.0,0.0,0.0,0.0,0.0,0.0,0.0,0.0,0.0,0.0,0.0,0.0,0.0,0.0,0.0,0.0,0.0,0.0,0.0,0.0,0.0,0.0,0.0,0.0,0.0,0.0,0.0,0.0,0.0,0.0,0.0,0.0,-0.5717,-0.7744,-0.9735,-1.1036,-1.2328,-1.3593,-1.3899,-1.3583,0.0,0.0,0.0,-0.0645,-0.1609,-0.3517,-0.5523,-0.7641,-1.113,-1.3211,-1.4418,-1.5995,-1.4296,-1.0415,-0.8851,-0.5862,-0.1749,0.0,0.0,0.0,0.0,0.0,0.0,0.0,0.0,0.0,0.0,0.0,0.0,0.0,0.0,0.0,0.0,0.0,0.0,0.0,0.0,0.0,0.0,0.0,0.0,0.0,0.0,0.0,-0.1679,-0.297,-0.3788,-0.398,-0.5282,-0.7904,-0.9009,-1.094,-1.3112,-1.2074,-1.1853,-1.2752,-1.2048,-1.0745,-0.9736,-0.9555,-0.8818,-0.7718,-0.5408,-0.3998,-0.3489,-0.1463,0.0,0.0,0.0,0.0,0.0,0.0,0.0,0.0,0.0,0.0,0.0,0.0,0.0,0.0,0.0,0.0,0.0,0.0,0.0,0.0,0.0,0.0,0.0,0.0,0.0,0.0,0.0,0.0,0.0,0.0,0.0,0.0,0.0,0.0,0.0,0.0,0.0,0.0,0.0,0.0,-0.3403,-0.3848,-0.5355,-0.735,-0.9684,-1.1068,-1.237,-1.3555,-1.3546,0.0,-0.0436,0.0,-0.2236,-0.4361,-0.4995,-0.7852,-1.1978,-1.3037,-1.4522,-1.6433,-1.6853,-1.5284,-1.2454,-1.012,-0.7179,-0.4152,0.0,0.0,0.0,0.0,0.0,0.0,0.0,0.0,0.0,0.0,0.0,0.0,0.0,0.0,0.0,0.0,0.0,0.0,0.0,0.0,0.0,0.0,0.0,0.0,0.0,0.0,0.0,-0.06,-0.1898,-0.3616,-0.4457,-0.5806,-0.8462,-1.1208,-1.3559,-1.5568,-1.6064,-1.5199,-1.5081,-1.5578,-1.3555,-1.2127,-1.0875,-1.0024,-0.7939,-0.5528,-0.3806,-0.3495,0.0,0.0,0.0,0.0,0.0,0.0,0.0,0.0,0.0,0.0,0.0,0.0,0.0,0.0,0.0,0.0,0.0,0.0,0.0,0.0,0.0,0.0,0.0,0.0,0.0,0.0,0.0,0.0,0.0,0.0,0.0,0.0,0.0,0.0,0.0,0.0,0.0,0.0,0.0,0.0,0.0,0.0,0.0,0.0,-0.5881,-0.7883,-0.9605,-1.1308,-1.2632,-1.3594,-0.4347,-0.6361,-0.6293,-0.6687,-0.7641,-0.9545,-1.113,-1.2932,-1.5054,-1.6124,-1.6978,-1.6978,-1.5517,-1.2766,-1.1924,-0.8987,-0.523,-0.3461,-0.1793,0.0,0.0,0.0,0.0,0.0,-0.1146,-0.2666,-0.2973,-0.4091,-0.5774,-0.3735,-0.2814,-0.2901,0.0,0.0,0.0,0.0,0.0,0.0,0.0,0.0,0.0,0.0,0.0,0.0,-0.181,-0.3014,-0.4132,-0.6024,-0.8437,-1.1116,-1.3979,-1.5692,-1.5734,-1.4333,-1.3245,-1.2979,-1.1349,-1.0045,-0.9336,-0.9021,-0.8606,-0.7911,-0.5291,-0.3968,-0.3907,-0.1566,0.0,0.0,0.0,0.0,0.0,0.0,0.0,0.0,0.0,0.0,0.0,0.0,0.0,0.0,0.0,0.0,0.0,0.0,0.0,0.0,0.0,0.0,0.0,0.0,0.0,0.0,0.0,0.0,0.0,0.0,0.0,0.0,0.0,0.0,0.0,0.0,0.0,0.0,0.0,0.0,0.0,0.0,0.0,0.0,-0.6127,-0.7941,-1.0522,-1.2261,-1.3239,-0.5975,-0.8637,-0.8532,-0.9224,-1.0391,-1.1978,-1.3359,-1.4633,-1.6229,-1.6978,-1.6978,-1.6978,-1.6079,-1.4522,-1.3252,-1.1045,-0.7792,-0.527,-0.3282,-0.1914,0.0,0.0,0.0,0.0,-0.2613,-0.4139,-0.537,-0.6694,-0.7476,-0.5489,-0.4252,-0.354,-0.1314,0.0,0.0,0.0,0.0,0.0,0.0,0.0,0.0,0.0,0.0,0.0,-0.1614,-0.2323,-0.2651,-0.504,-0.7851,-1.0239,-1.2171,-1.3118,-1.2887,-1.1449,-1.0463,-1.0301,-0.8762,-0.7637,-0.6534,-0.6333,-0.5733,-0.4931,-0.3825,-0.4087,-0.4033,-0.3231,-0.312,0.0,0.0,-0.1074,0.0,0.0,0.0,0.0,0.0,0.0,0.0,0.0,0.0,0.0,0.0,0.0,0.0,0.0,0.0,0.0,0.0,0.0,0.0,0.0,0.0,0.0,0.0,0.0,0.0,0.0,0.0,0.0,0.0,0.0,0.0,0.0,0.0,0.0,0.0,0.0,0.0,0.0,0.0,-0.2503,-0.4263,-0.6295,-0.8711,-1.1025,-1.2115,-0.6528,-0.9555,-0.9397,-1.0813,-1.2932,-1.3248,-1.4633,-1.6551,-1.6978,-1.6978,-1.6978,-1.6978,-1.6866,-1.6873,-1.4499,-1.2922,-1.2074,-0.7208,-0.446,-0.2763,0.0,0.0,0.0,-0.2623,-0.4176,-0.5315,-0.7566,-0.9098,-0.9364,-0.6953,-0.5399,-0.4973,-0.2526,-0.0711,0.0,0.0,0.0,0.0,0.0,0.0,0.0,0.0,0.0,0.0,0.0,0.0,0.0,-0.2587,-0.4864,-0.7241,-0.7928,-0.8893,-0.8667,-0.8133,-0.7661,-0.7328,-0.678,-0.5546,-0.4129,-0.3529,-0.3028,-0.1921,-0.3231,-0.4202,-0.4741,-0.5989,-0.5958,-0.3586,-0.377,-0.2346,0.0,0.0,0.0,0.0,0.0,0.0,0.0,0.0,0.0,0.0,0.0,0.0,0.0,0.0,0.0,0.0,0.0,0.0,0.0,0.0,0.0,0.0,0.0,0.0,0.0,0.0,0.0,0.0,0.0,0.0,0.0,0.0,0.0,0.0,0.0,0.0,0.0,0.0,0.0,-0.0986,-0.2944,-0.4639,-0.6433,-0.8651,-1.0219,-1.0665,-1.539,-1.5238,-1.5487,-1.6019,-1.6124,-1.6446,-1.6978,-1.6978,-1.6978,-1.6978,-1.6978,-1.6978,-1.6985,-1.6124,-1.4949,-1.2716,-0.8907,-0.5417,-0.0957,-0.042,0.0,0.0,-0.2841,-0.5347,-0.7292,-1.0211,-1.2471,-1.3211,-1.1153,-1.045,-0.9577,-0.545,-0.3046,-0.2777,0.0,0.0,0.0,0.0,0.0,0.0,0.0,0.0,0.0,0.0,0.0,0.0,-0.0517,-0.1145,-0.2618,-0.568,-0.7678,-0.7333,-0.5949,-0.5069,-0.4504,0.0,0.0,-0.1113,-0.1319,-0.1733,-0.305,-0.4059,-0.4961,-0.7208,-0.7827,-0.6886,-0.4694,-0.3905,-0.2943,0.0,0.0,0.0,0.0,0.0,0.0,0.0,0.0,0.0,0.0,0.0,0.0,0.0,0.0,0.0,0.0,0.0,0.0,0.0,0.0,0.0,0.0,0.0,0.0,0.0,0.0,0.0,0.0,0.0,0.0,0.0,0.0,0.0,0.0,0.0,0.0,0.0,0.0,0.0,0.0,0.0,-0.3224,-0.4919,-0.6882,-0.7855,-1.1951,-1.7163,-1.7073,-1.6978,-1.6978,-1.6978,-1.6978,-1.6978,-1.6978,-1.6978,-1.6978,-1.6978,-1.6978,-1.6978,-1.6978,-1.6019,-1.3979,-1.024,-0.5382,0.0,0.0,0.0,0.0,-0.2719,-0.5224,-0.6864,-0.9184,-1.1989,-1.327,-1.2303,-1.067,-1.1924,-0.7854,-0.515,-0.4191,-0.2476,0.0,0.0,0.0,0.0,0.0,0.0,0.0,0.0,0.0,0.0,0.0,0.0,0.0,0.0,0.0,0.0,0.0,0.0,0.0,-0.1858,0.0,0.0,0.0,-0.1216,-0.2637,-0.4059,-0.6179,-0.8231,-0.9968,-1.0787,-0.9571,-0.6863,-0.548,0.0,0.0,0.0,0.0,0.0,0.0,0.0,0.0,0.0,0.0,0.0,0.0,0.0,0.0,0.0,0.0,0.0,0.0,0.0,0.0,0.0,0.0,0.0,0.0,0.0,0.0,0.0,0.0,0.0,0.0,0.0,0.0,0.0,0.0,0.0,0.0,0.0,0.0,0.0,0.0,0.0,0.0,0.0,-0.3403,-0.4919,-0.5454,-1.1965,-1.7331,-1.7087,-1.6978,-1.6978,-1.6978,-1.6978,-1.6978,-1.6978,-1.6978,-1.6978,-1.6978,-1.6978,-1.6978,-1.6978,-1.6768,-1.4289,-1.0962,-0.5477,0.0,0.0,0.0,0.0,-0.2065,-0.332,-0.3969,-0.7928,-1.0838,-1.1704,-1.0893,-1.1898,-1.2276,-1.0083,-0.7474,-0.5277,-0.3992,-0.249,0.0,0.0,0.0,0.0,0.0,0.0,0.0,0.0,0.0,0.0,0.0,0.0,0.0,0.0,0.0,0.0,0.0,0.0,0.0,0.0,0.0,0.0,-0.223,-0.4054,-0.4647,-0.8966,-1.152,-1.2118,-1.2601,-1.1082,-0.8285,-0.5715,0.0,0.0,0.0,0.0,0.0,0.0,0.0,0.0,0.0,0.0,0.0,0.0,0.0,0.0,0.0,0.0,0.0,0.0,0.0,0.0,0.0,0.0,0.0,0.0,0.0,0.0,0.0,0.0,0.0,0.0,0.0,0.0,0.0,0.0,0.0,0.0,0.0,0.0,0.0,0.0,0.0,0.0,0.0,-0.2061,-0.2955,0.0,-1.1885,-1.7046,-1.7005,-1.6978,-1.6978,-1.6978,-1.6978,-1.6978,-1.6978,-1.6978,-1.6978,-1.6978,-1.6978,-1.6978,-1.6978,-1.4534,-1.1125,-0.8664,-0.5479,0.0,0.0,0.0,0.0,0.0,0.0,-0.2776,-0.7314,-1.1437,-1.241,-1.397,-1.3995,-1.4519,-1.2768,-1.01,-0.7137,-0.5237,-0.2899,0.0,0.0,0.0,0.0,0.0,0.0,0.0,0.0,0.0,0.0,0.0,0.0,0.0,0.0,0.0,0.0,0.0,0.0,0.0,0.0,0.0,0.0,-0.2665,-0.5138,-0.7594,-1.0701,-1.212,-1.2388,-1.231,-1.0409,-0.6198,0.0,0.0,0.0,0.0,0.0,0.0,0.0,0.0,0.0,0.0,0.0,0.0,0.0,0.0,0.0,0.0,0.0,0.0,0.0,0.0,0.0,0.0,0.0,0.0,0.0,0.0,0.0,0.0,0.0,0.0,0.0,0.0,0.0,0.0,0.0,0.0,0.0,0.0,0.0,0.0,0.0,0.0,0.0,0.0,0.0,0.0,0.0,-1.0993,-1.4945,-1.6374,-1.6978,-1.6978,-1.6978,-1.6978,-1.6978,-1.6978,-1.6978,-1.6978,-1.6978,-1.6978,-1.6978,-1.6978,-1.3785,-0.9749,-0.844,-0.5249,0.0,0.0,0.0,0.0,0.0,0.0,-0.306,-0.7544,-1.0401,-1.0379,-1.2664,-1.4838,-1.5704,-1.4669,-1.2114,-0.8745,-0.673,-0.3702,0.0,0.0,0.0,0.0,0.0,0.0,0.0,0.0,0.0,0.0,0.0,0.0,0.0,0.0,0.0,0.0,0.0,0.0,0.0,0.0,0.0,0.0,-0.3488,-0.6752,-0.835,-1.1695,-1.3189,-1.2568,-1.1703,-0.9279,-0.5036,0.0,0.0,0.0,0.0,0.0,0.0,0.0,0.0,0.0,0.0,0.0,0.0,0.0,0.0,0.0,0.0,0.0,0.0,0.0,0.0,0.0,0.0,0.0,0.0,0.0,0.0,0.0,0.0,0.0,0.0,0.0,0.0,0.0,0.0,0.0,0.0,0.0,0.0,0.0,0.0,0.0,0.0,0.0,0.0,0.0,0.0,0.0,-0.9386,-1.2311,-1.4358,-1.5277,-1.5277,-1.5277,-1.5165,-1.5277,-1.5066,-1.4955,-1.5382,-1.5809,-1.6013,-1.6223,-1.5987,-1.3951,-0.8773,-0.849,-0.5202,0.0,0.0,0.0,0.0,-0.0812,-0.1923,-0.3856,-0.778,-0.8776,-1.002,-1.2305,-1.4177,-1.5472,-1.6083,-1.3384,-0.8993,-0.7708,-0.4585,0.0,0.0,0.0,0.0,0.0,0.0,0.0,0.0,0.0,0.0,0.0,0.0,0.0,0.0,0.0,0.0,0.0,0.0,0.0,0.0,0.0,0.0,-0.3995,-0.654,-0.6997,-1.1656,-1.2194,-1.0654,-0.8683,-0.7389,-0.3731,0.0,0.0,0.0,0.0,0.0,0.0,0.0,0.0,0.0,0.0,0.0,0.0,0.0,0.0,0.0,0.0,0.0,0.0,0.0,0.0,0.0,0.0,0.0,0.0,0.0,0.0,0.0,0.0,0.0,0.0,0.0,0.0,0.0,0.0,0.0,0.0,0.0,0.0,0.0,0.0,0.0,0.0,0.0,0.0,0.0,0.0,0.0,-0.642,-0.9031,-0.9443,-0.9439,-0.9757,-0.9862,-0.9651,-0.9757,-0.9968,-0.9439,-1.0395,-1.2084,-1.3248,-1.3857,-1.5774,-1.3318,-0.9824,-0.7695,-0.5059,0.0,0.0,0.0,0.0,0.0,-0.3731,-0.5556,-0.9356,-1.1349,-1.1869,-1.386,-1.5472,-1.6083,-1.5386,-1.3401,-0.8507,-0.7578,-0.5208,0.0,0.0,0.0,0.0,0.0,0.0,0.0,0.0,0.0,0.0,0.0,0.0,0.0,0.0,0.0,0.0,0.0,0.0,0.0,0.0,0.0,0.0,-0.3101,-0.5027,-0.5591,-0.8099,-0.7383,-0.6283,0.0,0.0,-0.0909,0.0,0.0,0.0,0.0,0.0,0.0,0.0,0.0,0.0,0.0,0.0,0.0,0.0,0.0,0.0,0.0,0.0,0.0,0.0,0.0,0.0,0.0,0.0,0.0,0.0,0.0,0.0,0.0,0.0,0.0,0.0,0.0,0.0,0.0,0.0,0.0,0.0,0.0,0.0,0.0,0.0,0.0,0.0,0.0,0.0,0.0,0.0,-0.352,-0.616,-0.7852,-0.8484,-0.8484,-0.8484,-0.8484,-0.8484,-0.8484,-0.8484,-0.8699,-0.9647,-1.1103,-1.2624,-1.4036,-1.2201,-0.8725,-0.6825,-0.3912,-0.082,0.0,-0.0817,0.0,-0.3636,-0.4938,-0.8378,-1.0563,-1.1699,-1.2897,-1.4427,-1.6083,-1.5671,-1.4364,-1.1963,-0.7894,-0.645,-0.365,0.0,0.0,0.0,0.0,0.0,0.0,0.0,0.0,0.0,0.0,0.0,0.0,0.0,0.0,0.0,0.0,0.0,0.0,0.0,0.0,0.0,0.0,0.0,-0.3508,-0.4592,-0.6098,-0.7064,-0.4416,0.0,0.0,0.0,0.0,0.0,0.0,0.0,0.0,0.0,0.0,0.0,0.0,0.0,0.0,0.0,0.0,0.0,0.0,0.0,0.0,0.0,0.0,0.0,0.0,0.0,0.0,0.0,0.0,0.0,0.0,0.0,0.0,0.0,0.0,0.0,0.0,0.0,0.0,0.0,0.0,0.0,0.0,0.0,0.0,0.0,0.0,0.0,0.0,0.0,0.0,-0.1278,-0.3296,-0.5523,-0.6369,-0.6369,-0.6356,-0.6251,-0.6367,-0.614,-0.6243,-0.6871,-0.7805,-1.0069,-1.1998,-1.2471,-1.1166,-0.8232,-0.5449,-0.2665,-0.092,-0.0816,-0.2138,-0.3851,-0.5244,-0.7861,-1.1161,-1.1478,-1.1495,-1.155,-1.2655,-1.3498,-1.4018,-1.1838,-0.954,-0.7136,-0.5132,0.0,0.0,0.0,0.0,0.0,0.0,0.0,0.0,0.0,0.0,0.0,0.0,0.0,0.0,0.0,0.0,0.0,0.0,0.0,0.0,0.0,0.0,0.0,-0.167,-0.2793,-0.3688,-0.4383,-0.4623,-0.3193,0.0,0.0,0.0,0.0,0.0,0.0,0.0,0.0,0.0,0.0,0.0,0.0,0.0,0.0,0.0,0.0,0.0,0.0,0.0,0.0,0.0,0.0,0.0,0.0,0.0,0.0,0.0,0.0,0.0,0.0,0.0,0.0,0.0,0.0,0.0,0.0,0.0,0.0,0.0,0.0,0.0,0.0,0.0,0.0,0.0,0.0,0.0,0.0,0.0,0.0,-0.0107,-0.032,0.0,0.0,0.0,0.0,0.0,0.0,0.0,0.0,-0.2101,-0.572,-0.9407,-1.1446,-1.1269,-1.0198,-0.8052,-0.5262,-0.2825,-0.1815,-0.242,-0.403,-0.5834,-0.8138,-0.9945,-0.946,-1.0445,-1.0193,-0.8936,-0.8727,-0.8933,-0.8434,-0.8371,-0.6617,-0.5128,-0.3822,-0.232,0.0,0.0,0.0,0.0,0.0,0.0,0.0,0.0,0.0,0.0,0.0,0.0,0.0,0.0,0.0,0.0,0.0,0.0,0.0,0.0,0.0,0.0,0.0,0.0,0.0,0.0,0.0,0.0,0.0,0.0,0.0,0.0,0.0,0.0,0.0,0.0,0.0,0.0,0.0,0.0,0.0,0.0,0.0,0.0,0.0,0.0,0.0,0.0,0.0,0.0,0.0,0.0,0.0,0.0,0.0,0.0,0.0,0.0,0.0,0.0,0.0,0.0,0.0,0.0,0.0,0.0,0.0,0.0,0.0,0.0,0.0,0.0,0.0,0.0,0.0,0.0,0.0,0.0,0.0,0.0,0.0,0.0,0.0,0.0,0.0,0.0,0.0,0.0,-0.0208,-0.3999,-0.632,-0.7235,-0.7361,-0.6814,-0.5609,-0.467,-0.3273,-0.3572,-0.4869,-0.7072,-0.8776,-0.9209,-0.9644,-1.0036,-1.0132,-0.8169,-0.5811,-0.5629,-0.4225,-0.4029,-0.4829,-0.4962,-0.3887,0.0,0.0,0.0,0.0,0.0,0.0,0.0,0.0,0.0,0.0,0.0,0.0,0.0,0.0,0.0,0.0,0.0,0.0,0.0,0.0,0.0,0.0,0.0,0.0,0.0,0.0,0.0,0.0,0.0,0.0,0.0,0.0,0.0,0.0,0.0,0.0,0.0,0.0,0.0,0.0,0.0,0.0,0.0,0.0,0.0,0.0,0.0,0.0,0.0,0.0,0.0,0.0,0.0,0.0,0.0,0.0,0.0,0.0,0.0,0.0,0.0,0.0,0.0,0.0,0.0,0.0,0.0,0.0,0.0,0.0,0.0,0.0,0.0,0.0,0.0,0.0,0.0,0.0,0.0,0.0,0.0,0.0,0.0,0.0,0.0,0.0,0.0,0.0,0.0,0.0,0.0,-0.2826,-0.4616,-0.4919,-0.5411,-0.6346,-0.6437,-0.5813,-0.5203,-0.5989,-0.7675,-0.9862,-1.0778,-1.1299,-1.1525,-1.1451,-0.9253,-0.6713,-0.4292,-0.3242,-0.2049,-0.1454,-0.1745,-0.2541,-0.2276,0.0,0.0,0.0,0.0,0.0,0.0,0.0,0.0,0.0,0.0,0.0,0.0,0.0,0.0,0.0,0.0,0.0,0.0,0.0,0.0,0.0,0.0,0.0,0.0,0.0,0.0,0.0,0.0,0.0,0.0,0.0,0.0,0.0,0.0,0.0,0.0,0.0,0.0,0.0,0.0,0.0,0.0,0.0,0.0,0.0,0.0,0.0,0.0,0.0,0.0,0.0,0.0,0.0,0.0,0.0,0.0,0.0,0.0,0.0,0.0,0.0,0.0,0.0,0.0,0.0,0.0,0.0,0.0,0.0,0.0,0.0,0.0,0.0,0.0,0.0,0.0,0.0,0.0,0.0,0.0,0.0,0.0,0.0,0.0,0.0,0.0,0.0,0.0,0.0,0.0,0.0,-0.3077,-0.5331,-0.6892,-0.7138,-0.799,-0.9111,-0.8249,-0.7652,-0.8189,-1.0237,-1.1518,-1.2315,-1.3028,-1.2488,-1.1149,-0.9009,-0.6451,-0.377,-0.2426,-0.0868,-0.0383,-0.0959,-0.0966,-0.0294,0.0,0.0,0.0,0.0,0.0,0.0,0.0,0.0,0.0,0.0,0.0,0.0,0.0,0.0,0.0,0.0,0.0,0.0,0.0,0.0,0.0,0.0,0.0,0.0,0.0,0.0,0.0,0.0,0.0,0.0,0.0,0.0,0.0,0.0,0.0,0.0,0.0,0.0,0.0,0.0,0.0,0.0,0.0,0.0,0.0,0.0,0.0,0.0,0.0,0.0,0.0,0.0,0.0,0.0,0.0,0.0,0.0,0.0,0.0,0.0,0.0,0.0,0.0,0.0,0.0,0.0,0.0,0.0,0.0,0.0,0.0,0.0,0.0,0.0,0.0,0.0,0.0,0.0,0.0,0.0,0.0,0.0,0.0,0.0,0.0,0.0,0.0,0.0,0.0,-0.0983,-0.2453,-0.3692,-0.5245,-0.7015,-0.7866,-0.8536,-0.9108,-1.0759,-1.0172,-1.0467,-1.2729,-1.3824,-1.4143,-1.3318,-1.2778,-1.1226,-0.8978,-0.6606,-0.3765,-0.2604,-0.1345,-0.0669,-0.143,-0.1439,0.0,0.0,0.0,0.0,0.0,0.0,0.0,0.0,0.0593,0.1981,0.0794,0.0696,0.1698,0.07,0.0,0.0,0.0,0.0,0.0,0.0,0.0,0.0,0.0,0.0,0.0,0.0,0.0,0.0,0.0,0.0,0.0,0.0,0.0,0.0,0.0,0.0,0.0,0.0,0.0,0.0,0.0,0.0,0.0,0.0,0.0,0.0,0.0,-0.429,-0.5137,-0.5235,-0.5268,-0.4716,-0.3798,-0.256,0.0,0.0,0.0,0.0,0.0,0.0,0.0,0.0,0.0,0.0,0.0,0.0,0.0,0.0,0.0,0.0,0.0,0.0,0.0,0.0,0.0,0.0,0.0,0.0,0.0,0.0,0.0,0.0,0.0,0.0,0.0,0.0,0.0,0.0,0.0,-0.0878,-0.2331,-0.3676,-0.4698,-0.6612,-0.8384,-0.8952,-0.9828,-1.0258,-1.1857,-1.2733,-1.2928,-1.4323,-1.4937,-1.4501,-1.377,-1.3591,-1.2085,-1.0344,-0.7993,-0.6803,-0.47,-0.3062,-0.2287,-0.2949,-0.334,0.0,0.0,0.0,0.0,0.0,0.0,0.0,-0.1174,-0.0195,0.098,0.1081,0.0689,0.1482,0.0,0.0,0.0,0.0,0.0,0.0,0.0,0.0,0.0,0.0,0.0,0.0,0.0,0.0,0.0,0.0,0.0,0.0,0.0,0.0,0.0,0.0,0.0,0.0,0.0,0.0,0.0,0.0,0.0,0.0,0.0,-0.5275,-0.5899,-0.6415,-0.763,-0.885,-0.9039,-0.9059,-0.8226,-0.7393,-0.5914,-0.4013,0.0,0.0,0.0,0.0,0.0,0.0,0.0,0.0,0.0,0.0,0.0,0.0,0.0,0.0,0.0,0.0,0.0,0.0,0.0,0.0,0.0,0.0,0.0,0.0,0.0,0.0,0.0,0.0,0.0,0.0,0.0,0.0,0.0,-0.0484,-0.263,-0.3866,-0.4373,-0.6988,-0.9353,-1.1416,-1.1851,-1.3233,-1.4691,-1.5437,-1.5194,-1.5053,-1.5213,-1.5234,-1.514,-1.4872,-1.4429,-1.3952,-1.2716,-1.0918,-1.0625,-0.6737,-0.4367,-0.4079,-0.4822,-0.5769,-0.6624,-0.7956,-0.7436,-0.6708,-0.6609,-0.5673,-0.4451,-0.3871,-0.2421,-0.1165,-0.0487,-0.0293,0.0,0.0,0.0,0.0,0.0,0.0,0.0,0.0,0.0,0.0,0.0,0.0,0.0,0.0,0.0,0.0,0.0,0.0,0.0,0.0,0.0,0.0,0.0,0.0,0.0,0.0,0.0,0.0,0.0,0.0,0.0,-0.5856,-0.7352,-0.8242,-0.8534,-0.9638,-1.1172,-1.1741,-1.1631,-1.1357,-1.0036,-0.7259,-0.5103,0.0,0.0,0.0,0.0,0.0,0.0,0.0,0.0,0.0,0.0,0.0,0.0,0.0,0.0,0.0,0.0,0.0,0.0,0.0,0.0,0.0,0.0,0.0,0.0,0.0,0.0,0.0,0.0,0.0,-0.0997,-0.288,-0.4632,-0.4391,-0.2994,-0.3653,-0.5515,-0.9109,-0.9795,-1.2278,-1.6034,-1.6291,-1.7644,-1.8267,-1.8342,-1.7528,-1.6796,-1.5554,-1.5066,-1.4882,-1.4903,-1.4936,-1.4778,-1.4031,-1.283,-1.1048,-0.7642,-0.6389,-0.6477,-0.7476,-0.8942,-1.0781,-1.334,-1.1346,-0.9924,-1.0099,-0.92,-0.7725,-0.7147,-0.5437,-0.4007,-0.3067,-0.2403,0.0,0.0,0.0,0.0,0.0,0.0,0.0,0.0,0.0,0.0,0.0,0.0,0.0,0.0,0.0,0.0,0.0,0.0,0.0,0.0,0.0,0.0,0.0,0.0,-0.2524,-0.2931,-0.3431,-0.4636,-0.5846,-0.6648,-0.7421,-0.8826,-1.0197,-1.0675,-1.1041,-1.1921,-1.3465,-1.378,-1.3667,-1.385,-1.2489,-0.9315,-0.6266,-0.2768,0.0,0.0,0.0,0.0,0.0,0.0,0.0,0.0,0.0,0.0,0.0,0.0,0.0,0.0,0.0,0.0,0.0,0.0,0.0,0.0,0.0,0.0,0.0,0.0,0.0,-0.1517,-0.1403,-0.0396,-0.1473,-0.3999,-0.6492,-0.7112,-0.6669,-0.6746,-0.868,-1.1124,-1.2194,-1.4696,-1.7541,-1.8092,-1.9158,-2.1115,-1.9086,-1.801,-1.7475,-1.5804,-1.5027,-1.4746,-1.4733,-1.4801,-1.4814,-1.4638,-1.3916,-1.2151,-1.0268,-0.8825,-0.8913,-1.0509,-1.142,-1.3339,-1.6174,-1.6408,-1.4756,-1.3782,-1.3524,-1.2615,-1.1408,-1.0055,-0.8199,-0.7303,-0.5188,-0.2941,-0.229,-0.1062,0.0,0.0,0.0,0.0,0.0,0.0,0.0,0.0,0.0,0.0,0.0,0.0,0.0,-0.0996,0.0,0.0,0.0,0.0,0.0,0.0,-0.3811,-0.473,-0.5755,-0.6651,-0.7644,-0.8564,-0.9488,-1.0708,-1.1983,-1.2748,-1.321,-1.3865,-1.4519,-1.5168,-1.5303,-1.5113,-1.4487,-1.2933,-1.0167,-0.7197,-0.4259,-0.1604,0.0,0.0,0.0,0.0,0.0,0.0,0.0,0.0,0.0,0.0,0.0,0.0,0.0,0.0,0.0,0.0,0.0,0.0,0.0,0.0,0.0,0.0,0.0,0.0,-0.4095,-0.3561,-0.146,-0.2209,-0.4371,-0.7213,-0.962,-1.1403,-1.1559,-1.1652,-1.2096,-1.3669,-1.5948,-1.8471,-1.8999,-2.0149,-2.1107,-2.0051,-1.8535,-1.8099,-1.5716,-1.4631,-1.4645,-1.4699,-1.4672,-1.4699,-1.4608,-1.4386,-1.3971,-1.2415,-1.1216,-1.112,-1.0816,-1.1795,-1.443,-1.7437,-1.8105,-1.8369,-1.8899,-1.9616,-1.8372,-1.7673,-1.7095,-1.4674,-1.2494,-1.0198,-0.7631,-0.5357,0.0,0.0,0.0,0.0,0.0,0.0,0.0,0.0,0.0,0.0,0.0,0.0,0.0,0.0,-0.2678,-0.4644,-0.5431,-0.5275,-0.6175,-0.6768,-0.7051,-0.8073,-0.9109,-0.8743,-0.9151,-1.0449,-1.1568,-1.2184,-1.2935,-1.3875,-1.4285,-1.4546,-1.4629,-1.5282,-1.5228,-1.5269,-1.5303,-1.4649,-1.3664,-1.1291,-0.877,-0.6108,-0.3276,-0.1023,0.0,0.0,0.0,0.0,0.0,0.0,0.0,0.0,0.0,0.0,0.0,0.0,0.0,0.0,0.0,0.0,0.0,0.0,0.0,0.0,0.0,0.0,0.0,-0.5583,-0.398,-0.527,-0.616,-0.7136,-1.1351,-1.3339,-1.4042,-1.5745,-1.5355,-1.4062,-1.466,-1.6894,-2.0228,-2.0569,-2.1705,-2.2826,-2.1134,-1.9568,-1.7668,-1.549,-1.4468,-1.4428,-1.4462,-1.4482,-1.4502,-1.4496,-1.4489,-1.428,-1.3745,-1.3468,-1.3269,-1.2315,-1.2365,-1.4352,-1.6952,-1.8206,-2.0204,-2.2595,-2.3031,-2.1541,-2.0986,-2.0224,-1.9106,-1.7534,-1.5091,-1.2193,-0.8469,-0.5592,0.0,0.0,0.0,0.0,0.0,0.0,0.0,0.0,0.0,0.0,0.0,0.0,-0.3394,-0.5614,-0.8856,-1.0326,-0.9967,-1.013,-1.0722,-1.1432,-1.2579,-1.3144,-1.2395,-1.1938,-1.3339,-1.4545,-1.4844,-1.5042,-1.5244,-1.5518,-1.5499,-1.5384,-1.5296,-1.5228,-1.5221,-1.5262,-1.5147,-1.5013,-1.3533,-1.1429,-0.8845,-0.5308,-0.287,-0.0643,0.0,0.0,0.0,0.0,0.0,0.0,0.0,0.0,0.0,0.0,0.0,0.0,0.0,0.0,0.0,0.0,0.0,0.0,0.0,0.0,0.0,0.0,-0.8291,-0.7178,-0.8446,-0.9051,-0.9843,-1.4271,-1.631,-1.6603,-1.8529,-1.8779,-1.7571,-1.7731,-1.9416,-2.2439,-2.2783,-2.2955,-2.4081,-2.218,-1.9873,-1.7693,-1.5601,-1.4666,-1.4299,-1.4299,-1.4353,-1.438,-1.4353,-1.436,-1.4421,-1.4332,-1.414,-1.414,-1.2799,-1.2857,-1.455,-1.5996,-1.8183,-2.1393,-2.4395,-2.5137,-2.4243,-2.4418,-2.458,-2.3838,-2.2231,-1.9753,-1.6666,-1.2891,-0.9547,-0.6866,-0.4783,-0.3891,0.0,0.0,0.0,0.0,0.0,-0.1645,-0.1731,-0.2213,-0.3581,-0.6539,-0.9564,-1.3198,-1.6102,-1.6081,-1.7818,-1.8407,-1.7793,-1.8576,-1.8842,-1.845,-1.7184,-1.7493,-1.738,-1.7169,-1.6203,-1.5365,-1.5527,-1.5459,-1.533,-1.5194,-1.5133,-1.5079,-1.5092,-1.4984,-1.4891,-1.4056,-1.2351,-1.1441,-0.7929,-0.4875,-0.2826,0.0,0.0,0.0,0.0,0.0,0.0,0.0,0.0,0.0,0.0,0.0,0.0,0.0,0.0,0.0,0.0,0.0,0.0,0.0,0.0,0.0,0.0,-1.133,-1.0957,-1.0851,-1.111,-1.2016,-1.6107,-1.8186,-1.8725,-2.0803,-2.1751,-2.1608,-2.1932,-2.3298,-2.4081,-2.4691,-2.452,-2.3652,-2.1998,-1.9922,-1.7159,-1.5168,-1.4557,-1.4299,-1.4299,-1.4319,-1.4319,-1.4306,-1.4299,-1.4326,-1.4326,-1.4326,-1.4306,-1.4122,-1.4115,-1.577,-1.7755,-2.0096,-2.2385,-2.4947,-2.7279,-2.7812,-2.8234,-2.7767,-2.714,-2.6338,-2.4062,-2.1027,-1.7806,-1.4157,-1.1737,-0.9521,-0.8691,-0.8015,-0.7764,-0.6645,-0.5612,-0.451,-0.4698,-0.4961,-0.5361,-0.8259,-1.1518,-1.4525,-1.7365,-2.027,-2.2379,-2.4101,-2.4373,-2.378,-2.3328,-2.3551,-2.2914,-2.1555,-2.0289,-1.9666,-1.8511,-1.6913,-1.552,-1.5459,-1.5404,-1.5276,-1.5133,-1.5045,-1.4991,-1.4896,-1.478,-1.4173,-1.3151,-1.2306,-1.2074,-1.0398,-0.7725,-0.5416,0.0,0.0,0.0,0.0,0.0,0.0,0.0,0.0,0.0,0.0,0.0,0.0,0.0,0.0,0.0,0.0,0.0,0.0,0.0,0.0,0.0,0.0,-1.2821,-1.0942,-1.0947,-1.1973,-1.3925,-1.691,-1.8955,-2.0868,-2.3031,-2.4029,-2.4434,-2.5884,-2.6406,-2.4691,-2.4691,-2.4081,-2.2353,-2.1307,-1.8375,-1.5168,-1.4646,-1.4387,-1.4299,-1.4299,-1.4299,-1.4299,-1.4299,-1.4299,-1.4564,-1.4476,-1.4387,-1.4564,-1.2497,-1.3634,-1.6793,-1.8418,-1.9433,-2.2579,-2.4861,-2.6758,-2.7968,-2.8234,-2.8234,-2.791,-2.7754,-2.603,-2.3858,-2.1287,-1.8768,-1.6468,-1.443,-1.3461,-1.2835,-1.2173,-1.1003,-1.0023,-0.8778,-0.8857,-0.9311,-0.9815,-1.2707,-1.6321,-1.8989,-2.101,-2.368,-2.6017,-2.7129,-2.7549,-2.6884,-2.6039,-2.5754,-2.4451,-2.3049,-2.1696,-2.0706,-1.8488,-1.6437,-1.5705,-1.5398,-1.5337,-1.5248,-1.5106,-1.497,-1.4909,-1.4841,-1.474,-1.4672,-1.3738,-1.3559,-1.3142,-1.2556,-1.0342,-0.7788,0.0,0.0,0.0,0.0,0.0,0.0,0.0,0.0,0.0,0.0,0.0,0.0,0.0,0.0,0.0,0.0,0.0,0.0,0.0,0.0,-0.1158,-0.2211]},{"header":{"parameterUnit":"m.s-1","parameterCategory":1,"la1":31.0,"la2":29.5877,"lo1":-88.7671,"lo2":-86.6584,"dy":0.0162,"dx":0.0185,"nx":115,"ny":88,"refTime":"2024-09-04T12:00:00:Z","depth":0,"parameterNumber":3,"parameterNumberName":"V-component_of_WINDS"},"data":[0.0,0.0,0.0,0.0,0.0,0.0,0.0,0.0,0.0,0.0,0.0,0.0,0.0,0.0,0.0,0.0,0.0,0.0,0.0,0.0,0.0,0.0,0.0,0.0,0.0,0.0,0.0,0.0,0.0,0.0,0.0,0.0,0.0,0.0,0.0,0.0,0.0,0.0,0.0,0.0,0.0,0.0,0.0,0.0,0.0,0.0,0.0,0.0,0.0,0.0,0.0,0.0,0.0,0.0,0.0,0.0,0.0,0.0,0.0,0.0,0.0,0.0,0.0,0.0,0.0,0.0,0.0,0.0,0.0,0.0,0.0,0.0,0.0,0.0,0.0,0.0,0.0,0.0,0.0,0.0,0.0,0.0,0.0,0.0,0.0,0.0,0.0,0.0,0.0,0.0,0.0,0.0,0.0,0.0,0.0,0.0,0.0,0.0,0.0,0.0,0.0,0.0,0.0,0.0,0.0,0.0,0.0,0.0,0.0,0.0,0.0,0.0,0.0,0.0,0.0,0.0,0.0,0.0,0.0,0.0,0.0,0.0,0.0,0.0,0.0,0.0,0.0,0.0,0.0,0.0,0.0,0.0,0.0,0.0,0.0,0.0,0.0,0.0,0.0,0.0,0.0,0.0,0.0,0.0,0.0,0.0,0.0,0.0,0.0,0.0,0.0,0.0,0.0,0.0,0.0,0.0,0.0,0.0,0.0,0.0,0.0,0.0,0.0,0.0,0.0,0.0,0.0,0.0,0.0,0.0,0.0,0.0,0.0,0.0,0.0,0.0,0.0,0.0,0.0,0.0,0.0,0.0,0.0,0.0,0.0,0.0,0.0,0.0,0.0,0.0,0.0,0.0,0.0,0.0,0.0,0.0,0.0,0.0,0.0,0.0,0.0,0.0,0.0,0.0,0.0,0.0,0.0,0.0,0.0,0.0,0.0,0.0,0.0,0.0,0.0,0.0,0.0,0.0,0.0,0.0,0.0,0.0,0.0,0.0,0.0,0.0,0.0,0.0,0.0,0.0,0.0,0.0,0.0,0.0,0.0,0.0,0.0,0.0,0.0,0.0,0.0,0.0,0.0,0.0,0.0,0.0,0.0,0.0,0.0,0.0,0.0,0.0,0.0,0.0,0.0,0.0,0.0,0.0,0.0,0.0,0.0,0.0,0.0,0.0,0.0,0.0,0.0,0.0,0.0,0.0,0.0,0.0,0.0,0.0,0.0,0.0,0.0,0.0,0.0,0.0,0.0,0.0,0.0,0.0,0.0,0.0,0.0,0.0,0.0,0.0,0.0,0.0,0.0,0.0,0.0,0.0,0.0,0.0,0.0,0.0,0.0,0.0,0.0,0.0,0.0,0.0,0.0,0.0,0.0,0.0,0.0,0.0,0.0,0.0,0.0,0.0,0.0,0.0,0.0,0.0,0.0,0.0,0.0,0.0,0.0,0.0,0.0,0.0,0.0,0.0,0.0,0.0,0.0,0.0,0.0,0.0,0.0,0.0,0.0,0.0,0.0,0.0,0.0,0.0,0.0,0.0,0.0,0.0,0.0,0.0,0.0,0.0,0.0,0.0,0.0,0.0,0.0,0.0,0.0,0.0,0.0,0.0,0.0,0.0,0.0,0.0,0.0,0.0,0.0,0.0,0.0,0.0,0.0,0.0,0.0,0.0,0.0,0.0,0.0,0.0,0.0,0.0,0.0,0.0,0.0,0.0,0.0,0.0,0.0,0.0,0.0,0.0,0.0,0.0,0.0,0.0,0.0,0.0,0.0,0.0,0.0,0.0,0.0,0.0,0.0,0.0,0.0,0.0,0.0,0.0,0.0,0.0,0.0,0.0,0.0,0.0,0.0,0.0,0.0,0.0,0.0,0.0,0.0,0.0,0.0,0.0,0.0,0.0,0.0,0.0,0.0,0.0,0.0,0.0,0.0,0.0,0.0,0.0,0.0,0.0,0.0,0.0,0.0,0.0,0.0,0.0,0.0,0.0,0.0,0.0,0.0,0.0,0.0,0.0,0.0,0.0,0.0,0.0,0.0,0.0,0.0,0.0,0.0,0.0,0.0,0.0,0.0,0.0,0.0,0.0,0.0,0.0,0.0,0.0,0.0,0.0,0.0,0.0,0.0,0.0,0.0,0.0,0.0,0.0,0.0,0.0,0.0,0.0,0.0,0.0,0.0,0.0,0.0,0.0,0.0,0.0,0.0,0.0,0.0,0.0,0.0,0.0,0.0,0.0,0.0,0.0,0.0,0.0,0.0,0.0,0.0,0.0,0.0,0.0,0.0,0.0,0.0,0.0,0.0,0.0,0.0,0.0,0.0,0.0,0.0,0.0,0.0,0.0,0.0,0.0,0.0,0.0,0.0,0.0,0.0,0.0,0.0,0.0,0.0,0.0,0.0,0.0,0.0,0.0,0.0,0.0,0.0,0.0,0.0,0.0,0.0,0.0,0.0,0.0,0.0,0.0,0.0,0.0,0.0,0.0,0.0,0.0,0.0,0.0,0.0,0.0,0.0,0.0,0.0,0.0,0.0,0.0,0.0,0.0,0.0,0.0,0.0,0.0,0.0,0.0,0.0,0.0,0.0,0.0,0.0,0.0,0.0,0.0,0.0,0.0,0.0,0.0,0.0,0.0,0.0,0.0,0.0,0.0,0.0,0.0,0.0,0.0,0.0,0.0,0.0,0.0,0.0,0.0,0.0,0.0,0.0,0.0,0.0,0.0,0.0,0.0,0.0,0.0,0.0,0.0,0.0,0.0,0.0,0.0,0.0,0.0,0.0,0.0,0.0,0.0,0.0,0.0,0.0,0.0,0.0,0.0,0.0,0.0,0.0,0.0,0.0,0.0,0.0,0.0,0.0,0.0,0.0,0.0,0.0,0.0,0.0,0.0,0.0,0.0,0.0,0.0,0.0,0.0,0.0,0.0,0.0,0.0,0.0,0.0,0.0,0.0,0.0,0.0,0.0,0.0,0.0,0.0,0.0,0.0,0.0,0.0,0.0,0.0,0.0,0.0,0.0,0.0,0.0,0.0,0.0,0.0,0.0,0.0,0.0,0.0,0.0,0.0,0.0,0.0,0.0,0.0,0.0,0.0,0.0,0.0,0.0,0.0,0.0,0.0,0.0,0.0,0.0,0.0,0.0,0.0,0.0,0.0,0.0,0.0,0.0,0.0,0.0,0.0,0.0,0.0,0.0,0.0,0.0,0.0,0.0,0.0,0.0,0.0,0.0,0.0,0.0,0.0,0.0,0.0,0.0,0.0,0.0,0.0,0.0,0.0,0.0,0.0,0.0,0.0,0.0,0.0,0.0,0.0,0.0,0.0,0.0,0.0,0.0,0.0,0.0,0.0,0.0,0.0,0.0,0.0,0.0,0.0,0.0,0.0,0.0,0.0,0.0,0.0,0.0,0.0,0.0,0.0,0.0,0.0,0.0,0.0,0.0,0.0,0.0,0.0,0.0,0.0,0.0,0.0,0.0,0.0,0.0,0.0,0.0,0.0,0.0,0.0,0.0,0.0,0.0,0.0,0.0,0.0,0.0,0.0,0.0,0.0,0.0,0.0,0.0,0.0,0.0,0.0,0.0,0.0,0.0,0.0,0.0,0.0,0.0,0.0,0.0,0.0,0.0,0.0,0.0,0.0,0.0,0.0,0.0,0.0,0.0,0.0,0.0,0.0,0.0,0.0,0.0,0.0,0.0,0.0,0.0,0.0,0.0,0.0,0.0,0.0,0.0,0.0,0.0,0.0,0.0,0.0,0.0,0.0,0.0,0.0,0.0,0.0,0.0,0.0,0.0,0.0,0.0,0.0,0.0,0.0,0.0,0.0,0.0,0.0,0.0,0.0,0.0,0.0,0.0,0.0,0.0,0.0,0.0,0.0,0.0,0.0,0.0,0.0,0.0,0.0,0.0,0.0,0.0,0.0,0.0,0.0,0.0,0.0,0.0,0.0,0.0,0.0,0.0,0.0,0.0,0.0,0.0,0.0,0.0,0.0,0.0,0.0,0.0,0.0,0.0,0.0,0.0,0.0,0.0,0.0,0.0,0.0,0.0,0.0,0.0,0.0,0.0,0.0,0.0,0.0,0.0,0.0,0.0,0.0,0.0,0.0,0.0,0.0,0.0,0.0,0.0,0.0,0.0,0.0,0.0,0.0,0.0,0.0,0.0,0.0,0.0,0.0,0.0,0.0,0.0,0.0,0.0,0.0,0.0,0.0,0.0,0.0,0.0,0.0,0.0,0.0,0.0,0.0,0.0,0.0,0.0,0.0,0.0,0.0,5.3906,0.0,0.0,0.0,0.0,0.0,0.0,0.0,0.0,0.0,0.0,0.0,0.0,0.0,0.0,0.0,0.0,0.0,0.0,0.0,0.0,0.0,0.0,0.0,0.0,0.0,0.0,0.0,0.0,0.0,0.0,0.0,0.0,0.0,0.0,0.0,0.0,0.0,0.0,0.0,0.0,0.0,0.0,0.0,0.0,0.0,0.0,0.0,0.0,0.0,0.0,0.0,0.0,0.0,0.0,0.0,0.0,0.0,0.0,0.0,0.0,0.0,0.0,0.0,0.0,0.0,0.0,0.0,0.0,0.0,0.0,0.0,0.0,0.0,0.0,0.0,0.0,0.0,0.0,0.0,0.0,0.0,0.0,0.0,0.0,0.0,0.0,0.0,0.0,0.0,0.0,0.0,0.0,0.0,0.0,0.0,0.0,0.0,0.0,0.0,0.0,0.0,0.0,0.0,0.0,0.0,0.0,0.0,0.0,0.0,0.0,5.7226,5.7305,5.7305,5.6484,5.4765,0.0,0.0,0.0,0.0,0.0,0.0,0.0,0.0,0.0,0.0,0.0,0.0,0.0,0.0,0.0,0.0,0.0,0.0,0.0,0.0,0.0,0.0,0.0,0.0,0.0,0.0,0.0,0.0,0.0,0.0,0.0,0.0,0.0,0.0,0.0,0.0,0.0,0.0,0.0,0.0,0.0,0.0,0.0,0.0,0.0,0.0,0.0,0.0,0.0,0.0,0.0,0.0,0.0,0.0,0.0,0.0,0.0,0.0,0.0,0.0,0.0,0.0,0.0,0.0,0.0,0.0,0.0,0.0,0.0,0.0,0.0,0.0,0.0,0.0,0.0,0.0,0.0,0.0,0.0,0.0,0.0,0.0,0.0,0.0,0.0,0.0,0.0,0.0,0.0,0.0,0.0,0.0,0.0,0.0,0.0,0.0,0.0,0.0,0.0,0.0,0.0,0.0,0.0,0.0,0.0,0.0,0.0,0.0,0.0,0.0,0.0,0.0,5.8672,5.7851,5.5937,0.0,0.0,0.0,0.0,0.0,0.0,0.0,0.0,0.0,0.0,0.0,0.0,0.0,0.0,0.0,0.0,0.0,0.0,0.0,0.0,0.0,0.0,0.0,0.0,0.0,0.0,0.0,0.0,0.0,0.0,0.0,0.0,0.0,0.0,0.0,0.0,0.0,0.0,0.0,0.0,0.0,0.0,0.0,0.0,0.0,0.0,0.0,0.0,0.0,0.0,0.0,0.0,0.0,0.0,0.0,0.0,0.0,0.0,0.0,0.0,0.0,0.0,0.0,0.0,0.0,0.0,0.0,0.0,0.0,0.0,0.0,0.0,0.0,0.0,0.0,0.0,0.0,0.0,0.0,0.0,0.0,0.0,0.0,0.0,0.0,0.0,0.0,0.0,0.0,0.0,0.0,0.0,0.0,0.0,0.0,0.0,0.0,0.0,0.0,0.0,0.0,0.0,0.0,0.0,0.0,0.0,0.0,0.0,0.0,0.0,5.7734,6.0117,6.0898,0.0,5.7812,0.0,0.0,0.0,0.0,0.0,0.0,0.0,0.0,0.0,0.0,0.0,0.0,0.0,0.0,0.0,0.0,0.0,0.0,0.0,0.0,0.0,0.0,0.0,0.0,0.0,0.0,0.0,0.0,0.0,0.0,0.0,0.0,0.0,0.0,0.0,0.0,0.0,0.0,0.0,0.0,0.0,0.0,0.0,0.0,0.0,0.0,0.0,0.0,0.0,0.0,0.0,0.0,0.0,0.0,0.0,0.0,0.0,0.0,0.0,0.0,0.0,0.0,0.0,0.0,0.0,0.0,0.0,0.0,0.0,0.0,0.0,0.0,0.0,0.0,0.0,0.0,0.0,0.0,0.0,0.0,0.0,0.0,0.0,0.0,0.0,0.0,0.0,0.0,0.0,0.0,0.0,0.0,0.0,0.0,0.0,0.0,0.0,0.0,0.0,0.0,0.0,0.0,0.0,0.0,0.0,0.0,0.0,0.0,0.0,0.0,5.8867,6.039,5.9765,5.8711,0.0,0.0,0.0,0.0,0.0,0.0,0.0,0.0,0.0,0.0,0.0,0.0,0.0,0.0,0.0,0.0,0.0,0.0,0.0,0.0,0.0,0.0,0.0,0.0,0.0,0.0,0.0,0.0,0.0,0.0,0.0,0.0,0.0,0.0,0.0,0.0,0.0,0.0,0.0,0.0,0.0,0.0,0.0,0.0,0.0,0.0,0.0,0.0,0.0,0.0,0.0,0.0,0.0,0.0,0.0,0.0,0.0,0.0,0.0,0.0,0.0,0.0,0.0,0.0,0.0,0.0,0.0,0.0,0.0,0.0,0.0,0.0,0.0,0.0,0.0,0.0,0.0,0.0,0.0,0.0,0.0,0.0,0.0,0.0,0.0,0.0,0.0,0.0,0.0,0.0,0.0,0.0,0.0,0.0,0.0,0.0,0.0,0.0,0.0,0.0,0.0,0.0,0.0,0.0,0.0,0.0,0.0,0.0,0.0,0.0,5.7812,5.9453,6.0625,5.9805,5.8437,5.664,0.0,0.0,0.0,0.0,0.0,0.0,0.0,0.0,0.0,0.0,0.0,0.0,0.0,0.0,0.0,0.0,0.0,0.0,0.0,0.0,0.0,0.0,0.0,0.0,0.0,0.0,0.0,0.0,0.0,0.0,0.0,0.0,0.0,0.0,0.0,0.0,0.0,0.0,0.0,0.0,0.0,0.0,0.0,0.0,0.0,0.0,0.0,0.0,0.0,0.0,0.0,0.0,0.0,0.0,0.0,0.0,0.0,0.0,0.0,0.0,0.0,0.0,0.0,0.0,0.0,0.0,0.0,0.0,0.0,0.0,0.0,0.0,0.0,0.0,0.0,0.0,0.0,0.0,0.0,0.0,0.0,0.0,0.0,0.0,0.0,0.0,0.0,0.0,0.0,0.0,0.0,0.0,0.0,0.0,0.0,0.0,0.0,0.0,0.0,0.0,0.0,0.0,0.0,0.0,0.0,0.0,0.0,0.0,5.9726,5.8672,5.914,6.1601,6.2383,6.082,0.0,0.0,0.0,0.0,0.0,0.0,0.0,0.0,0.0,0.0,0.0,0.0,0.0,0.0,0.0,0.0,0.0,0.0,0.0,0.0,0.0,0.0,0.0,0.0,0.0,0.0,0.0,0.0,0.0,0.0,0.0,0.0,0.0,0.0,0.0,0.0,0.0,0.0,0.0,0.0,0.0,0.0,0.0,0.0,0.0,0.0,0.0,0.0,0.0,0.0,0.0,0.0,0.0,0.0,0.0,0.0,0.0,0.0,0.0,0.0,0.0,0.0,0.0,0.0,0.0,0.0,0.0,0.0,0.0,0.0,0.0,0.0,0.0,0.0,0.0,0.0,0.0,0.0,0.0,0.0,0.0,0.0,0.0,0.0,0.0,0.0,0.0,0.0,0.0,0.0,0.0,0.0,0.0,0.0,0.0,0.0,0.0,0.0,0.0,0.0,0.0,0.0,0.0,0.0,0.0,0.0,0.0,0.0,0.0,5.6211,5.7851,6.0234,6.3125,6.0508,5.8672,0.0,0.0,0.0,0.0,0.0,0.0,0.0,0.0,0.0,0.0,0.0,0.0,0.0,0.0,0.0,0.0,0.0,0.0,0.0,0.0,0.0,0.0,0.0,0.0,0.0,0.0,0.0,0.0,0.0,0.0,0.0,0.0,0.0,0.0,0.0,0.0,0.0,0.0,0.0,0.0,0.0,0.0,0.0,0.0,0.0,0.0,0.0,0.0,0.0,0.0,0.0,0.0,0.0,0.0,0.0,0.0,0.0,0.0,0.0,0.0,0.0,0.0,0.0,0.0,0.0,0.0,0.0,0.0,0.0,0.0,0.0,0.0,0.0,0.0,0.0,0.0,0.0,0.0,0.0,0.0,0.0,0.0,0.0,0.0,0.0,0.0,0.0,0.0,0.0,0.0,0.0,0.0,0.0,0.0,0.0,0.0,0.0,0.0,0.0,0.0,0.0,0.0,0.0,0.0,0.0,0.0,0.0,0.0,0.0,5.6094,0.0,6.1875,0.0,5.9687,5.7617,0.0,0.0,0.0,0.0,0.0,0.0,0.0,0.0,0.0,0.0,0.0,0.0,0.0,0.0,0.0,0.0,0.0,0.0,0.0,0.0,0.0,0.0,0.0,0.0,0.0,0.0,0.0,0.0,0.0,0.0,0.0,0.0,0.0,0.0,0.0,0.0,0.0,0.0,0.0,0.0,0.0,0.0,0.0,0.0,0.0,0.0,0.0,0.0,0.0,0.0,0.0,0.0,0.0,0.0,0.0,0.0,0.0,0.0,0.0,0.0,0.0,0.0,0.0,0.0,0.0,0.0,0.0,0.0,0.0,0.0,0.0,0.0,0.0,0.0,0.0,0.0,0.0,0.0,0.0,0.0,0.0,0.0,0.0,0.0,0.0,0.0,0.0,0.0,0.0,0.0,0.0,0.0,0.0,0.0,0.0,0.0,0.0,0.0,0.0,0.0,0.0,0.0,0.0,0.0,0.0,0.0,0.0,0.0,5.5273,6.0156,6.3555,6.3711,6.0625,6.0351,5.7969,0.0,0.0,0.0,0.0,0.0,0.0,0.0,0.0,0.0,0.0,0.0,0.0,0.0,0.0,0.0,0.0,0.0,0.0,0.0,0.0,0.0,0.0,0.0,0.0,0.0,0.0,0.0,0.0,0.0,0.0,0.0,0.0,0.0,0.0,0.0,0.0,0.0,0.0,0.0,0.0,0.0,0.0,0.0,0.0,0.0,0.0,0.0,0.0,0.0,0.0,0.0,0.0,0.0,0.0,0.0,0.0,0.0,0.0,0.0,0.0,0.0,0.0,0.0,0.0,0.0,0.0,0.0,0.0,0.0,0.0,0.0,0.0,0.0,0.0,0.0,0.0,0.0,0.0,0.0,0.0,0.0,0.0,0.0,0.0,0.0,0.0,0.0,0.0,0.0,0.0,0.0,0.0,0.0,0.0,0.0,0.0,0.0,0.0,0.0,0.0,0.0,0.0,0.0,0.0,0.0,0.0,0.0,0.0,0.0,5.8521,6.112,6.2957,6.3599,6.023,5.8201,0.0,0.0,0.0,0.0,0.0,0.0,0.0,0.0,0.0,0.0,0.0,0.0,0.0,0.0,0.0,0.0,0.0,0.0,0.0,0.0,0.0,0.0,0.0,0.0,0.0,0.0,0.0,0.0,0.0,0.0,0.0,0.0,0.0,0.0,0.0,0.0,0.0,0.0,0.0,0.0,0.0,0.0,0.0,0.0,0.0,0.0,0.0,0.0,0.0,0.0,0.0,0.0,0.0,0.0,0.0,0.0,0.0,0.0,0.0,0.0,0.0,0.0,0.0,0.0,0.0,0.0,0.0,0.0,0.0,0.0,0.0,0.0,0.0,0.0,0.0,0.0,0.0,0.0,0.0,0.0,0.0,0.0,0.0,0.0,0.0,0.0,0.0,0.0,0.0,0.0,0.0,0.0,0.0,0.0,0.0,0.0,0.0,0.0,0.0,0.0,0.0,0.0,0.0,0.0,0.0,0.0,0.0,0.0,0.0,6.0597,6.2645,6.4145,6.4896,6.1065,5.9102,5.9209,0.0,0.0,0.0,0.0,0.0,0.0,0.0,0.0,0.0,0.0,0.0,0.0,0.0,0.0,0.0,0.0,0.0,0.0,0.0,0.0,0.0,0.0,0.0,0.0,0.0,0.0,0.0,0.0,0.0,0.0,0.0,0.0,0.0,0.0,0.0,0.0,0.0,0.0,0.0,0.0,0.0,0.0,0.0,0.0,0.0,0.0,0.0,0.0,0.0,0.0,0.0,0.0,0.0,0.0,0.0,0.0,0.0,0.0,0.0,0.0,0.0,0.0,0.0,0.0,0.0,0.0,0.0,0.0,0.0,0.0,0.0,0.0,0.0,0.0,0.0,0.0,0.0,0.0,0.0,0.0,0.0,0.0,0.0,0.0,0.0,0.0,0.0,0.0,0.0,0.0,0.0,0.0,0.0,0.0,0.0,0.0,0.0,0.0,0.0,0.0,0.0,0.0,0.0,0.0,0.0,0.0,0.0,0.0,6.5214,6.7102,6.6953,6.4687,6.2811,6.0578,0.0,0.0,0.0,0.0,0.0,0.0,0.0,0.0,0.0,0.0,0.0,0.0,0.0,0.0,0.0,0.0,0.0,0.0,0.0,0.0,0.0,0.0,0.0,0.0,0.0,0.0,0.0,0.0,0.0,0.0,0.0,0.0,0.0,0.0,0.0,0.0,0.0,0.0,0.0,0.0,0.0,0.0,0.0,0.0,0.0,0.0,0.0,0.0,0.0,0.0,0.0,0.0,0.0,0.0,0.0,0.0,0.0,0.0,0.0,0.0,0.0,0.0,0.0,0.0,0.0,0.0,0.0,0.0,0.0,0.0,0.0,0.0,0.0,0.0,0.0,0.0,0.0,0.0,0.0,0.0,0.0,0.0,0.0,0.0,0.0,0.0,0.0,0.0,0.0,0.0,0.0,0.0,0.0,0.0,0.0,0.0,0.0,0.0,0.0,0.0,0.0,0.0,0.0,0.0,0.0,0.0,0.0,0.0,0.0,6.4566,6.6327,6.7458,6.7817,6.4875,6.2364,0.0,0.0,0.0,0.0,0.0,0.0,0.0,0.0,0.0,0.0,0.0,0.0,0.0,0.0,0.0,0.0,0.0,0.0,0.0,0.0,0.0,0.0,0.0,0.0,0.0,0.0,0.0,0.0,0.0,0.0,0.0,0.0,0.0,0.0,0.0,0.0,0.0,0.0,0.0,0.0,0.0,0.0,0.0,0.0,0.0,0.0,0.0,0.0,0.0,0.0,0.0,0.0,0.0,0.0,0.0,0.0,0.0,0.0,0.0,0.0,0.0,0.0,0.0,0.0,0.0,0.0,0.0,0.0,0.0,0.0,0.0,0.0,0.0,0.0,0.0,0.0,0.0,0.0,0.0,0.0,0.0,0.0,0.0,0.0,0.0,0.0,0.0,0.0,0.0,0.0,0.0,0.0,0.0,0.0,0.0,0.0,0.0,0.0,0.0,0.0,0.0,0.0,0.0,0.0,0.0,0.0,0.0,0.0,6.5039,6.6953,6.7969,6.8748,6.9277,6.6589,6.3959,0.0,0.0,0.0,0.0,0.0,0.0,0.0,0.0,0.0,0.0,0.0,0.0,0.0,0.0,0.0,0.0,0.0,0.0,0.0,0.0,0.0,0.0,0.0,0.0,0.0,0.0,0.0,0.0,0.0,0.0,0.0,0.0,0.0,0.0,0.0,0.0,0.0,0.0,0.0,0.0,0.0,0.0,0.0,0.0,0.0,0.0,0.0,0.0,0.0,0.0,0.0,0.0,0.0,0.0,0.0,0.0,0.0,0.0,0.0,0.0,0.0,0.0,0.0,0.0,0.0,0.0,0.0,0.0,0.0,0.0,0.0,0.0,0.0,0.0,0.0,0.0,0.0,0.0,0.0,0.0,0.0,0.0,0.0,0.0,0.0,0.0,0.0,0.0,0.0,0.0,0.0,0.0,0.0,0.0,0.0,0.0,0.0,0.0,0.0,0.0,0.0,0.0,0.0,0.0,0.0,0.0,0.0,0.0,6.7265,7.0351,7.043,7.0117,6.9414,6.7851,6.5348,0.0,0.0,0.0,0.0,0.0,0.0,0.0,0.0,0.0,0.0,0.0,0.0,0.0,0.0,0.0,0.0,0.0,0.0,0.0,0.0,0.0,0.0,0.0,0.0,0.0,0.0,0.0,0.0,0.0,0.0,0.0,0.0,0.0,0.0,0.0,0.0,0.0,0.0,0.0,0.0,0.0,0.0,0.0,0.0,0.0,0.0,0.0,0.0,0.0,0.0,0.0,0.0,0.0,0.0,0.0,0.0,0.0,0.0,0.0,0.0,0.0,0.0,0.0,0.0,0.0,0.0,0.0,0.0,0.0,0.0,0.0,0.0,0.0,0.0,0.0,0.0,0.0,0.0,0.0,0.0,0.0,0.0,0.0,0.0,0.0,0.0,0.0,0.0,0.0,0.0,0.0,0.0,0.0,0.0,0.0,0.0,0.0,0.0,0.0,0.0,0.0,0.0,0.0,0.0,0.0,0.0,0.0,0.0,6.7305,6.8672,6.875,6.8984,6.9492,6.8476,6.6289,0.0,0.0,0.0,0.0,0.0,0.0,0.0,0.0,0.0,0.0,0.0,0.0,0.0,0.0,0.0,0.0,0.0,0.0,0.0,0.0,0.0,0.0,0.0,0.0,0.0,0.0,0.0,0.0,0.0,0.0,0.0,0.0,0.0,0.0,0.0,0.0,0.0,0.0,0.0,0.0,0.0,0.0,0.0,0.0,0.0,0.0,0.0,0.0,5.8867,0.0,0.0,0.0,0.0,0.0,0.0,0.0,0.0,0.0,0.0,0.0,0.0,0.0,0.0,0.0,0.0,0.0,0.0,0.0,0.0,0.0,0.0,0.0,0.0,0.0,0.0,0.0,0.0,0.0,0.0,0.0,0.0,0.0,0.0,0.0,0.0,0.0,0.0,0.0,0.0,0.0,0.0,0.0,0.0,0.0,0.0,0.0,0.0,0.0,0.0,0.0,0.0,0.0,0.0,0.0,0.0,0.0,0.0,0.0,6.8906,6.9375,6.9375,6.9219,6.8906,6.8437,6.6367,0.0,0.0,0.0,0.0,0.0,0.0,0.0,0.0,0.0,0.0,0.0,0.0,0.0,0.0,0.0,0.0,0.0,0.0,0.0,0.0,0.0,0.0,0.0,0.0,0.0,0.0,0.0,0.0,0.0,0.0,0.0,0.0,0.0,0.0,0.0,0.0,0.0,0.0,0.0,0.0,0.0,0.0,0.0,0.0,0.0,0.0,0.0,0.0,0.0,0.0,0.0,0.0,0.0,0.0,0.0,0.0,0.0,0.0,0.0,0.0,0.0,0.0,0.0,0.0,0.0,0.0,0.0,0.0,0.0,0.0,0.0,0.0,0.0,0.0,0.0,0.0,0.0,0.0,0.0,0.0,0.0,0.0,0.0,0.0,0.0,0.0,0.0,0.0,0.0,0.0,0.0,0.0,0.0,0.0,0.0,0.0,0.0,0.0,0.0,0.0,0.0,0.0,0.0,0.0,0.0,0.0,0.0,6.8398,7.0312,7.0703,7.0586,6.9765,6.8281,6.8047,6.6015,6.1875,0.0,0.0,0.0,0.0,0.0,0.0,0.0,0.0,0.0,0.0,0.0,0.0,0.0,0.0,0.0,0.0,0.0,0.0,0.0,0.0,0.0,0.0,0.0,0.0,0.0,0.0,0.0,0.0,0.0,0.0,0.0,0.0,0.0,0.0,0.0,0.0,0.0,0.0,5.7439,6.0622,0.0,0.0,0.0,0.0,0.0,0.0,0.0,0.0,6.0469,0.0,0.0,0.0,0.0,0.0,0.0,0.0,0.0,0.0,0.0,0.0,0.0,0.0,0.0,0.0,0.0,0.0,0.0,0.0,0.0,0.0,0.0,0.0,0.0,0.0,0.0,0.0,0.0,0.0,0.0,0.0,0.0,0.0,0.0,0.0,0.0,0.0,0.0,0.0,0.0,0.0,0.0,0.0,0.0,0.0,0.0,0.0,0.0,0.0,0.0,0.0,0.0,0.0,0.0,0.0,0.0,6.8437,6.789,6.8555,7.0625,7.0,6.918,6.8242,6.75,6.539,6.1875,0.0,0.0,0.0,0.0,0.0,0.0,0.0,0.0,0.0,0.0,0.0,0.0,0.0,0.0,0.0,0.0,0.0,0.0,0.0,0.0,0.0,0.0,0.0,0.0,0.0,0.0,0.0,0.0,0.0,0.0,0.0,0.0,0.0,0.0,0.0,0.0,0.0,0.0,0.0,6.3073,6.4673,0.0,0.0,0.0,0.0,0.0,0.0,0.0,0.0,5.957,0.0,0.0,0.0,0.0,0.0,0.0,0.0,0.0,0.0,0.0,0.0,0.0,0.0,0.0,0.0,0.0,0.0,0.0,0.0,0.0,0.0,0.0,0.0,0.0,0.0,0.0,0.0,0.0,0.0,0.0,0.0,0.0,0.0,0.0,0.0,0.0,0.0,0.0,0.0,0.0,0.0,0.0,0.0,0.0,0.0,0.0,0.0,0.0,0.0,0.0,0.0,0.0,0.0,0.0,0.0,6.6562,6.8125,6.9258,7.0,6.9609,6.8789,6.7539,6.582,6.3672,0.0,0.0,0.0,0.0,0.0,0.0,0.0,0.0,0.0,0.0,0.0,0.0,0.0,0.0,0.0,0.0,0.0,0.0,0.0,0.0,0.0,0.0,0.0,0.0,0.0,0.0,0.0,0.0,0.0,0.0,0.0,0.0,0.0,0.0,0.0,0.0,0.0,0.0,0.0,0.0,6.3195,6.4398,6.4003,0.0,0.0,0.0,0.0,0.0,0.0,5.9867,5.9001,0.0,0.0,0.0,0.0,0.0,0.0,0.0,0.0,0.0,0.0,0.0,0.0,0.0,0.0,0.0,0.0,0.0,0.0,0.0,0.0,0.0,0.0,0.0,0.0,0.0,0.0,0.0,0.0,0.0,0.0,0.0,0.0,0.0,0.0,0.0,0.0,0.0,0.0,0.0,0.0,0.0,0.0,0.0,0.0,0.0,0.0,0.0,0.0,0.0,0.0,0.0,0.0,0.0,0.0,0.0,6.4844,6.8203,6.9844,6.9648,6.9492,6.8711,6.7187,6.4961,6.2734,0.0,0.0,0.0,0.0,0.0,0.0,0.0,0.0,0.0,0.0,0.0,0.0,0.0,0.0,0.0,0.0,0.0,0.0,0.0,0.0,0.0,0.0,0.0,0.0,0.0,0.0,0.0,0.0,0.0,0.0,0.0,0.0,0.0,0.0,0.0,0.0,0.0,0.0,0.0,0.0,0.0,6.4638,6.3914,6.3624,0.0,0.0,0.0,0.0,6.163,6.0386,0.0,0.0,0.0,0.0,0.0,0.0,0.0,0.0,0.0,0.0,0.0,0.0,0.0,0.0,0.0,0.0,0.0,0.0,0.0,0.0,0.0,0.0,0.0,0.0,0.0,0.0,0.0,0.0,0.0,0.0,0.0,0.0,0.0,0.0,0.0,0.0,0.0,0.0,0.0,0.0,0.0,0.0,0.0,0.0,0.0,0.0,0.0,0.0,0.0,0.0,0.0,0.0,0.0,0.0,0.0,0.0,6.6406,6.707,6.8359,7.039,6.9844,6.9023,6.8086,6.6992,6.4531,0.0,0.0,0.0,0.0,0.0,0.0,0.0,0.0,0.0,0.0,0.0,0.0,0.0,0.0,0.0,0.0,0.0,0.0,0.0,0.0,0.0,0.0,0.0,0.0,0.0,0.0,0.0,0.0,0.0,0.0,0.0,0.0,0.0,0.0,0.0,0.0,0.0,0.0,0.0,0.0,0.0,6.7426,6.4232,6.5641,6.6504,0.0,0.0,6.313,6.2474,6.1573,0.0,0.0,0.0,0.0,0.0,0.0,0.0,0.0,0.0,0.0,0.0,0.0,0.0,0.0,0.0,0.0,0.0,0.0,0.0,0.0,0.0,0.0,0.0,0.0,0.0,0.0,0.0,0.0,0.0,0.0,0.0,0.0,0.0,0.0,0.0,0.0,0.0,0.0,0.0,0.0,0.0,0.0,0.0,0.0,0.0,0.0,0.0,0.0,0.0,0.0,0.0,0.0,0.0,0.0,0.0,6.2461,6.6055,6.7578,6.9101,7.0625,6.9922,6.9101,6.8242,6.5898,6.3125,0.0,0.0,0.0,0.0,0.0,0.0,0.0,0.0,0.0,0.0,0.0,0.0,0.0,0.0,0.0,0.0,0.0,0.0,0.0,0.0,0.0,0.0,0.0,0.0,0.0,0.0,0.0,0.0,0.0,0.0,0.0,0.0,0.0,0.0,0.0,0.0,0.0,0.0,0.0,0.0,0.0,0.0,6.5258,6.6065,0.0,0.0,0.0,6.372,6.3767,0.0,0.0,0.0,0.0,0.0,0.0,0.0,0.0,0.0,0.0,0.0,0.0,0.0,0.0,0.0,0.0,0.0,0.0,0.0,0.0,0.0,0.0,0.0,0.0,0.0,0.0,0.0,0.0,0.0,0.0,0.0,0.0,0.0,0.0,0.0,0.0,0.0,0.0,0.0,0.0,0.0,0.0,0.0,0.0,0.0,0.0,0.0,0.0,0.0,0.0,0.0,0.0,0.0,0.0,0.0,0.0,0.0,6.5898,6.8242,6.9922,7.0937,7.0039,6.918,6.8515,6.5351,0.0,0.0,0.0,0.0,0.0,0.0,0.0,0.0,0.0,0.0,0.0,0.0,0.0,0.0,0.0,0.0,0.0,0.0,0.0,0.0,0.0,0.0,0.0,0.0,0.0,0.0,0.0,5.2422,0.0,0.0,0.0,0.0,0.0,0.0,0.0,0.0,0.0,0.0,0.0,0.0,0.0,0.0,6.6235,6.6351,6.6706,6.6928,0.0,0.0,6.4531,6.4695,6.2955,6.0915,0.0,0.0,0.0,0.0,0.0,0.0,0.0,0.0,0.0,0.0,0.0,0.0,0.0,0.0,0.0,0.0,0.0,0.0,0.0,0.0,0.0,0.0,0.0,0.0,0.0,0.0,0.0,0.0,0.0,0.0,0.0,0.0,0.0,0.0,0.0,0.0,0.0,0.0,0.0,0.0,0.0,0.0,0.0,0.0,0.0,0.0,0.0,0.0,0.0,0.0,0.0,0.0,0.0,0.0,6.3359,6.6719,6.8594,7.0273,7.1797,7.0312,6.9492,6.9375,6.6836,6.3789,0.0,0.0,0.0,0.0,0.0,0.0,0.0,0.0,0.0,0.0,0.0,0.0,0.0,0.0,0.0,0.0,0.0,0.0,0.0,0.0,0.0,0.0,0.0,0.0,0.0,0.0,0.0,0.0,0.0,0.0,0.0,0.0,0.0,0.0,0.0,0.0,0.0,0.0,0.0,0.0,0.0,6.8272,6.7176,6.8437,6.9155,0.0,6.7462,6.6358,6.4857,6.3818,6.2305,5.9819,0.0,0.0,0.0,0.0,0.0,0.0,0.0,0.0,0.0,0.0,0.0,0.0,0.0,0.0,0.0,0.0,0.0,0.0,0.0,0.0,0.0,0.0,0.0,0.0,0.0,0.0,0.0,0.0,0.0,0.0,0.0,0.0,0.0,0.0,0.0,0.0,0.0,0.0,0.0,0.0,0.0,0.0,0.0,0.0,0.0,0.0,0.0,0.0,0.0,0.0,0.0,0.0,0.0,6.3437,6.6836,6.8594,7.0273,7.1836,7.0312,6.9414,6.9453,6.6953,6.4219,0.0,0.0,0.0,0.0,0.0,0.0,0.0,0.0,0.0,0.0,0.0,0.0,0.0,0.0,0.0,0.0,0.0,0.0,0.0,0.0,0.0,0.0,0.0,0.0,0.0,0.0,0.0,0.0,5.6601,5.6875,5.8086,0.0,0.0,0.0,0.0,0.0,0.0,0.0,0.0,0.0,0.0,6.8733,6.8694,6.8821,0.0,0.0,6.7244,6.632,6.6167,6.4974,6.3589,6.2089,6.1435,0.0,0.0,0.0,0.0,0.0,0.0,0.0,0.0,0.0,0.0,0.0,0.0,0.0,0.0,0.0,0.0,0.0,0.0,0.0,0.0,0.0,0.0,0.0,0.0,0.0,0.0,0.0,0.0,0.0,0.0,0.0,0.0,0.0,0.0,0.0,0.0,0.0,0.0,0.0,0.0,0.0,0.0,0.0,0.0,0.0,0.0,0.0,0.0,0.0,0.0,0.0,0.0,6.3672,6.6875,6.8555,7.0273,7.1953,7.0312,6.9414,6.9336,6.6953,6.4492,0.0,0.0,0.0,0.0,0.0,0.0,0.0,0.0,0.0,0.0,0.0,0.0,0.0,0.0,0.0,0.0,0.0,0.0,0.0,0.0,0.0,0.0,0.0,0.0,0.0,0.0,0.0,0.0,5.8789,5.8867,5.9492,0.0,0.0,0.0,0.0,0.0,0.0,0.0,0.0,0.0,0.0,6.9633,7.0064,6.9579,6.9155,6.9219,6.7769,6.6744,6.7051,6.5897,6.4512,6.3166,0.0,0.0,0.0,0.0,0.0,0.0,0.0,0.0,0.0,0.0,0.0,0.0,0.0,0.0,0.0,0.0,0.0,0.0,0.0,0.0,0.0,0.0,0.0,0.0,0.0,0.0,0.0,6.293,0.0,0.0,6.043,0.0,0.0,0.0,0.0,0.0,0.0,0.0,0.0,0.0,0.0,0.0,0.0,0.0,0.0,0.0,0.0,0.0,0.0,0.0,0.0,0.0,0.0,6.4258,6.6875,6.8633,7.0312,7.1914,7.0351,6.9492,6.9375,6.6953,6.4765,6.293,0.0,0.0,0.0,0.0,0.0,0.0,0.0,0.0,0.0,0.0,0.0,0.0,0.0,0.0,0.0,0.0,0.0,0.0,0.0,0.0,0.0,0.0,0.0,0.0,0.0,0.0,6.1406,6.0859,6.039,0.0,0.0,0.0,0.0,0.0,0.0,0.0,0.0,0.0,0.0,7.0926,7.1404,7.1203,7.1002,7.0876,7.1042,6.9524,6.8052,6.7244,6.6436,6.5013,0.0,0.0,0.0,0.0,0.0,0.0,0.0,0.0,0.0,0.0,0.0,0.0,0.0,0.0,0.0,0.0,0.0,0.0,0.0,0.0,0.0,0.0,0.0,0.0,0.0,0.0,0.0,6.6914,6.5547,0.0,0.0,0.0,0.0,0.0,0.0,0.0,0.0,0.0,0.0,0.0,6.9453,7.0312,0.0,0.0,0.0,0.0,0.0,0.0,0.0,0.0,0.0,0.0,0.0,0.0,6.457,6.7656,6.8906,7.0312,7.1914,7.0351,6.9726,7.0234,6.7226,6.4219,6.1367,0.0,0.0,0.0,0.0,0.0,0.0,0.0,0.0,0.0,0.0,0.0,0.0,0.0,0.0,0.0,0.0,0.0,0.0,0.0,0.0,0.0,0.0,0.0,0.0,0.0,6.1953,0.0,0.0,0.0,0.0,0.0,0.0,0.0,0.0,0.0,0.0,0.0,7.0108,7.1062,7.2846,7.3566,7.2259,7.1999,7.1561,0.0,0.0,0.0,0.0,0.0,0.0,0.0,0.0,0.0,0.0,0.0,0.0,0.0,0.0,6.7975,6.4072,6.1691,6.0189,5.9932,0.0,0.0,0.0,0.0,0.0,0.0,0.0,0.0,0.0,0.0,0.0,0.0,0.0,0.0,6.9844,6.9023,6.7578,0.0,0.0,0.0,0.0,0.0,0.0,0.0,0.0,7.1875,7.2812,7.3398,7.4258,7.375,0.0,7.207,7.0039,0.0,0.0,0.0,0.0,0.0,0.0,0.0,0.0,6.5781,6.8515,6.9453,7.0586,7.1875,7.0625,7.0156,7.0625,6.7969,6.5156,6.2305,6.2226,6.1133,0.0,0.0,0.0,0.0,0.0,0.0,0.0,0.0,0.0,0.0,0.0,0.0,0.0,0.0,0.0,0.0,0.0,0.0,0.0,0.0,0.0,0.0,0.0,6.332,0.0,0.0,0.0,0.0,0.0,0.0,0.0,0.0,0.0,7.0859,7.2021,7.3088,7.3885,7.5074,7.5268,7.3682,0.0,0.0,0.0,0.0,0.0,0.0,0.0,6.8872,7.0117,6.9663,6.927,6.9763,7.057,7.1014,7.0468,0.0,0.0,6.6849,6.4461,6.289,6.2579,6.3081,6.2959,6.1304,6.2243,6.2858,0.0,0.0,0.0,0.0,0.0,0.0,0.0,0.0,7.2656,7.2695,0.0,7.0742,0.0,0.0,0.0,0.0,6.957,7.1211,0.0,0.0,7.5508,7.5976,7.6015,7.6836,7.6367,7.4883,7.6328,7.5312,7.1914,6.707,0.0,0.0,0.0,0.0,0.0,0.0,6.7812,6.9453,7.0312,7.1172,7.1992,7.1172,7.0664,7.0625,6.9101,6.7422,6.5781,6.5625,6.4101,6.0742,6.1289,0.0,0.0,0.0,0.0,0.0,0.0,0.0,0.0,0.0,0.0,0.0,0.0,0.0,0.0,0.0,0.0,0.0,0.0,0.0,0.0,6.3828,0.0,0.0,0.0,0.0,0.0,0.0,0.0,0.0,0.0,0.0,7.6014,7.6757,7.7534,7.8071,0.0,0.0,0.0,0.0,7.3472,7.4735,7.3562,7.27,7.3248,7.1898,7.0375,6.912,0.0,0.0,6.9444,7.1345,7.2417,7.1013,7.1404,7.1674,7.0564,6.9206,6.8216,6.7515,6.6453,6.5972,6.5753,6.5282,6.532,7.6719,0.0,0.0,0.0,0.0,7.5976,7.6758,7.7851,7.7578,7.6601,7.5078,7.375,0.0,0.0,0.0,0.0,0.0,0.0,7.4805,7.6484,7.7344,7.7773,7.7812,7.8594,7.8437,7.7422,7.7265,7.6367,7.4687,7.2031,6.8906,6.5547,0.0,0.0,0.0,0.0,7.0156,7.1211,7.1484,7.2031,7.293,7.1484,7.039,6.9805,6.9922,6.918,6.7539,6.7461,6.6445,6.4219,6.3164,0.0,0.0,0.0,0.0,0.0,0.0,0.0,0.0,0.0,0.0,0.0,0.0,0.0,0.0,0.0,0.0,0.0,0.0,0.0,6.3828,6.4726,6.6133,0.0,0.0,0.0,0.0,0.0,0.0,0.0,0.0,0.0,8.0002,7.9918,7.9515,0.0,0.0,7.9848,7.7403,7.6699,7.6074,7.4938,7.3896,0.0,7.1797,7.0744,7.0411,7.1473,7.2004,7.2271,7.2141,7.2117,7.1933,7.1448,7.1515,7.137,7.0392,6.8565,6.7178,6.6737,6.5846,6.4837,6.4229,6.4512,6.4705,8.0508,7.8125,7.7422,7.7539,7.8242,7.8555,7.9297,8.0195,7.9844,7.9219,7.832,7.6836,7.5273,7.375,7.3086,0.0,0.0,0.0,7.707,7.8711,7.9258,7.9492,7.9531,8.0,7.9765,7.8984,7.8125,7.7265,7.6406,7.5351,7.3008,6.957,0.0,0.0,6.9492,7.0976,7.2148,7.2969,7.2695,7.2773,7.3242,7.1914,7.0976,7.0469,7.0937,7.0586,6.9258,6.918,6.8398,6.6719,6.5625,6.418,0.0,0.0,0.0,0.0,0.0,0.0,0.0,0.0,0.0,0.0,0.0,6.1992,6.1484,0.0,0.0,0.0,6.414,6.5703,6.7226,6.875,0.0,0.0,0.0,0.0,0.0,0.0,0.0,8.0586,8.0659,8.0912,8.2308,8.2335,8.1655,8.0007,8.0569,8.0344,7.8143,0.0,7.6825,7.6051,7.5298,7.4566,7.3751,7.2592,7.202,7.2565,7.2573,7.2622,7.2642,7.2086,7.1647,7.1667,7.1594,7.1322,7.0816,6.9156,6.7736,6.734,6.6369,6.5422,6.4897,6.4974,6.4859,8.375,8.3554,8.1953,8.082,8.0078,8.0781,8.1094,8.1054,8.0273,8.0781,8.1992,7.9726,7.8672,7.8476,7.6914,0.0,7.7539,7.8359,7.9531,8.1094,8.1054,8.0976,8.0976,8.0976,8.0586,7.9805,7.9023,7.8281,7.7539,7.7422,7.6211,7.3945,7.3047,7.289,7.3398,7.3594,7.4062,7.4765,7.3945,7.3398,7.3203,7.2422,7.1953,7.1875,7.1953,7.1601,7.0742,7.0703,6.9961,6.8398,6.8086,6.6484,6.332,0.0,0.0,0.0,0.0,0.0,0.0,0.0,0.0,0.0,0.0,0.0,0.0,0.0,0.0,6.5078,6.7187,0.0,7.1875,7.4336,0.0,0.0,0.0,7.6562,7.7695,7.8359,7.9375,8.1094,0.0,0.0,8.3315,8.3978,8.3469,8.0667,7.9934,7.9227,7.8136,7.6965,7.6501,7.7538,7.7172,7.6941,7.684,7.5584,7.3925,7.2724,7.1978,7.1655,7.1753,7.1658,7.1583,7.1675,7.1594,7.1485,7.1485,7.0713,6.9996,6.9022,6.7901,6.7113,6.6935,6.6357,6.5613,8.5195,8.457,8.414,8.3476,8.2656,8.2187,8.1992,8.1953,8.1758,8.1562,8.125,8.0664,8.0039,7.9375,7.8984,7.9258,8.0117,8.0312,8.0976,8.1914,8.1328,8.0976,8.0976,8.0976,8.0898,8.0703,8.0469,8.0273,8.0078,7.9414,7.914,7.914,7.832,7.668,7.4453,7.625,7.7031,7.6562,7.5742,7.4297,7.2383,7.2109,7.168,7.1055,7.164,7.1562,7.0742,7.0703,7.0195,6.914,6.7265,6.5547,6.4062,6.1914,0.0,0.0,0.0,0.0,0.0,0.0,0.0,0.0,0.0,6.8476,6.5234,0.0,7.1328,0.0,7.1328,7.2344,7.2969,7.414,0.0,0.0,7.8125,7.9258,8.2656,8.1484,8.1328,8.3711,8.3709,8.346,8.3327,8.3475,8.2577,7.9856,8.0669,8.0944,7.9144,7.8155,7.7653,7.765,7.6638,7.5742,7.5825,7.4452,7.319,7.2569,7.2015,7.1663,7.1686,7.1675,7.1663,7.1682,7.1594,7.1498,7.1523,7.1329,7.1121,7.072,6.9088,6.7532,6.7358,6.6678,6.5958,8.6836,8.6054,8.6054,8.5547,8.4648,8.3398,8.2656,8.2304,8.2304,8.2031,8.1562,8.1562,8.1328,8.0859,8.0859,8.1133,8.1562,8.1562,8.1836,8.2265,8.1797,8.1562,8.1562,8.1601,8.1601,8.1562,8.1172,8.0976,8.0937,8.0117,7.9922,8.039,7.9922,7.8945,7.7539,7.8515,7.8984,7.8867,7.6914,7.4648,7.2109,7.1601,7.1211,7.0742,7.1172,7.1172,7.0742,7.1055,7.0859,7.0,6.8281,6.7109,6.6562,6.4883,6.4023,0.0,0.0,0.0,0.0,0.0,0.0,0.0,0.0,0.0,0.0,0.0,7.3984,7.4297,7.543,7.664,7.7773,7.9023,8.0547,8.2383,8.1836,8.2148,8.4101,8.3047,8.2578,8.3633,8.332,8.2967,8.2871,8.2867,8.214,8.0079,8.0907,8.085,7.8633,7.7898,7.7698,7.7532,7.6747,7.595,7.5546,7.4327,7.3262,7.2663,7.2043,7.1633,7.1679,7.1651,7.1633,7.1675,7.1594,7.1523,7.1523,7.1549,7.1588,7.1326,6.9926,6.8534,6.8093,6.7044,6.6099,8.8633,8.7812,8.7695,8.7148,8.625,8.4648,8.3398,8.2461,8.2461,8.2422,8.2304,8.2304,8.2304,8.2304,8.2304,8.2304,8.2304,8.2304,8.2304,8.2304,8.2187,8.2187,8.2304,8.2187,8.2187,8.2265,8.1523,8.1172,8.1133,8.039,8.0078,8.0195,8.0078,8.0508,8.1406,8.0508,8.0273,8.0625,7.7617,7.4844,7.2422,7.168,7.1211,7.0898,7.0976,7.0976,7.0898,7.1719,7.1875,7.1211,7.0547,6.9961,6.957,6.9101,6.9023,0.0,6.9765,0.0,0.0,0.0,0.0,0.0,0.0,0.0,0.0,7.5703,7.6211,7.7734,7.9375,8.1289,8.3554,8.5039,8.5898,8.5976,8.5234,8.4492,8.3867,8.3672,8.332,8.2539,8.2383,8.2304,8.2304,8.2304,8.191,8.0941,8.0887,8.0191,7.7896,7.7449,7.75,7.7344,7.7265,7.6758,7.5957,7.5046,7.4152,7.3192,7.253,7.1878,7.1913,7.1984,7.1955,7.192,7.1881,7.1761,7.1743,7.1768,7.1744,7.1708,7.0532,6.9436,6.886,6.7417,6.6194,9.0937,8.9492,8.875,8.8008,8.7187,8.6133,8.4804,8.3359,8.3359,8.2969,8.2304,8.2304,8.2304,8.2304,8.2304,8.2304,8.2304,8.2304,8.2304,8.2265,8.1562,8.164,8.2226,8.1562,8.1601,8.2265,8.2148,8.2031,8.207,8.1875,8.2187,8.2812,8.2148,8.2617,8.3984,0.0,0.0,0.0,7.7656,7.6015,7.4219,7.4648,7.3906,7.1875,7.2461,0.0,7.1836,7.2578,7.332,7.3828,7.3711,0.0,0.0,0.0,0.0,0.0,0.0,0.0,0.0,0.0,0.0,0.0,7.664,7.5625,7.5937,7.8906,8.0976,8.1367,8.289,8.4101,8.4609,8.4297,8.4375,8.5,8.4375,8.4062,8.4531,8.4023,8.3515,8.3398,8.2734,8.2304,8.2304,8.2304,8.1953,8.1133,8.0976,8.0507,7.9375,7.8633,7.8242,7.8242,7.7695,7.7109,7.6702,7.5875,7.5144,7.4787,7.4216,7.3544,7.2942,7.3453,7.3672,7.3164,7.2962,7.293,7.293,7.2416,7.1992,7.1953,7.1133,7.0192,6.9309,6.7665,6.629,9.2851,9.125,9.082,8.9648,0.0,8.7617,8.6484,8.4844,8.3945,8.3086,8.2304,8.2304,8.2304,8.2304,8.2304,8.2304,8.2304,8.2304,8.2304,8.2265,8.1836,8.1875,8.2304,8.1836,8.1875,8.2304,8.2304,8.2304,8.2304,8.2304,8.2539,8.2929,8.2539,8.2734,8.3554,8.2344,8.0625,7.8515,7.7656,7.6367,7.4687,7.4609,7.3984,7.2734,7.3047,0.0,0.0,0.0,0.0,0.0,0.0,0.0,0.0,0.0,0.0,7.5117,7.6367,7.7109,7.7148,7.793,7.8945,8.0195,7.9961,7.9336,7.8476,8.082,8.25,8.2929,8.414,8.5078,8.5469,8.5117,8.5234,8.6015,8.5039,8.4453,8.4726,8.414,8.3437,8.3008,8.2578,8.2304,8.2304,8.2304,8.2148,8.1719,8.164,8.1484,8.0976,7.9883,7.8984,7.8594,7.8164,7.7461,7.659,7.6075,7.5547,7.5062,7.4652,7.4277,7.389,7.4254,7.4453,7.4023,7.3945,7.3828,7.3359,7.293,7.25,7.2031,7.1289,7.0625,6.9986,6.8801,6.7592,9.4492,9.3047,9.2734,9.1367,8.9375,8.8906,8.7656,8.5859,0.0,0.0,0.0,8.2304,8.2304,8.2304,8.2304,8.2383,8.25,8.2539,8.2617,8.2773,8.2617,8.2539,8.2539,8.2344,8.2304,8.2304,8.2304,8.2304,8.2304,8.2304,8.2304,8.2304,8.2304,8.2304,8.2226,8.1445,8.0312,7.8984,7.8086,7.6797,7.5117,7.4531,7.4062,7.3789,7.3906,7.3984,7.4023,7.5625,7.6328,7.5781,7.6015,7.6601,7.7539,7.7422,7.832,8.0547,8.1054,8.125,8.125,8.1875,8.1992,8.1289,8.1875,8.1992,8.1289,8.1875,8.2734,8.375,8.4492,8.5312,8.6328,8.625,8.6523,8.7383,8.5937,8.4961,8.5039,8.4179,8.3359,8.2656,8.2422,8.2304,8.2304,8.2304,8.2304,8.2304,8.2226,8.2304,8.2109,8.0898,7.9648,7.8945,7.8555,7.7969,7.6836,7.6484,7.6015,7.539,7.5312,7.5195,7.4922,7.4961,7.5,7.4883,7.4844,7.4531,7.3945,7.3515,7.3086,7.2344,7.1523,7.0937,7.0817,7.021,6.928,9.5742,9.4726,9.3242,9.2383,9.1875,8.9648,8.7344,8.5039,8.4062,8.3125,8.2304,8.2304,8.2304,8.2304,8.2304,8.2695,8.3398,8.3398,8.3828,8.4492,8.375,8.3398,8.3398,8.2656,8.2304,8.2304,8.2304,8.2304,8.2304,8.2304,8.2304,8.2304,8.2304,8.2304,8.2226,8.1445,8.0898,8.0625,7.9805,7.8515,7.6914,7.7461,7.7031,7.5664,7.625,7.664,7.668,7.8242,7.9453,8.0078,8.1523,8.1445,7.957,8.1289,8.1719,8.0156,8.1289,8.2109,8.2109,8.2226,8.2265,8.2148,8.2226,8.2226,8.2148,8.2226,8.2969,8.4492,8.4844,8.5586,8.7031,8.664,8.6601,8.7265,8.5937,8.5195,8.5781,8.457,8.3515,8.332,8.2734,8.2304,8.2304,8.2304,8.2304,8.2304,8.2304,8.2304,8.2148,8.1445,8.0508,7.9687,7.8945,7.8437,7.8086,7.8125,7.7695,7.6992,7.7383,7.7226,7.6015,7.625,7.6406,7.582,7.5742,7.5625,7.539,7.4258,7.3515,7.3125,7.2422,7.1794,7.1609,7.1345,7.0711,9.6679,9.5859,9.5039,9.3906,9.2383,8.9804,8.7773,8.625,8.539,8.3984,8.2383,8.2304,8.2578,8.3008,8.3008,8.3476,8.4297,8.4297,8.4531,8.4844,8.4492,8.4062,8.3594,8.3203,8.2734,8.2344,8.2304,8.2304,8.2304,8.2304,8.2304,8.2304,8.2304,8.2304,8.2265,8.1914,8.1484,8.0976,8.0156,7.9336,7.8594,7.8945,7.8789,7.7969,7.8359,7.8555,7.8555,7.9765,8.0586,8.0976,8.1758,8.1836,8.1211,8.1797,8.1875,8.1172,8.1875,8.25,8.2969,8.3437,8.332,8.2422,8.2734,8.2812,8.2344,8.2734,8.3554,8.4765,8.5312,8.6094,8.7344,8.7148,8.707,8.7461,8.6367,8.5586,8.5351,8.4414,8.3437,8.2969,8.2539,8.2304,8.2304,8.2304,8.2304,8.2304,8.2304,8.2304,8.2304,8.1992,8.1406,8.0547,8.0078,7.9648,7.9258,7.914,7.8984,7.8594,7.8476,7.8203,7.7344,7.7383,7.7031,7.6719,7.6601,7.6406,7.6094,7.5312,7.4609,7.3984,7.3196,7.2588,7.2399,7.1911,7.1124,9.7344,9.6758,9.6562,9.5,9.2461,9.0234,8.8633,8.7461,8.6758,8.5156,8.3086,8.289,8.3242,8.3867,8.3906,8.4375,8.5117,8.5195,8.5312,8.5469,8.5312,8.4844,8.4219,8.3984,8.3515,8.289,8.2695,8.2578,8.2578,8.2422,8.2304,8.2304,8.2304,8.2304,8.2304,8.2304,8.1953,8.1289,8.0625,8.0078,7.9726,7.9726,7.9726,7.9726,7.9883,8.0,8.0039,8.082,8.1289,8.1289,8.1289,8.1719,8.2461,8.1758,8.1679,8.2461,8.2422,8.2695,8.3554,8.4414,8.4336,8.3047,8.3476,8.3594,8.3047,8.3672,8.4336,8.4922,8.5664,8.6562,8.7304,8.7461,8.7578,8.7656,8.6797,8.6054,8.5508,8.4531,8.3672,8.3008,8.2695,8.2617,8.2539,8.2422,8.2304,8.2304,8.2304,8.2304,8.2304,8.2304,8.1992,8.1523,8.1172,8.0742,8.0117,8.0,7.9883,7.9765,7.9414,7.9062,7.8711,7.8047,7.7695,7.7695,7.7383,7.7226,7.6758,7.6172,7.5742,7.5152,7.4191,7.3282,7.3119,7.2483,7.1577,9.7656,9.7461,9.6797,9.5,9.2617,9.1484,8.9726,8.7695,8.7422,8.6367,8.4844,8.4687,8.4726,8.4765,8.4804,8.5273,8.6054,8.6094,8.6523,8.707,8.6445,8.6015,8.5898,8.5195,8.4765,8.457,8.3906,8.3554,8.3515,8.2734,8.2304,8.2304,8.2304,8.2304,8.2304,8.2304,8.2265,8.2187,8.2109,8.1289,7.9805,7.9726,7.9726,7.9726,8.0469,8.0859,8.0898,8.1719,8.2187,8.2187,8.2187,8.2578,8.3281,8.2656,8.2578,8.3398,8.2773,8.2695,8.3554,8.4414,8.4844,8.4687,8.4648,8.4648,8.457,8.539,8.5625,8.5234,8.5703,8.6601,8.7344,8.75,8.7773,8.832,8.7187,8.6445,8.6836,8.5781,8.4726,8.4687,8.3828,8.3476,8.332,8.2773,8.2344,8.2304,8.2304,8.2304,8.2304,8.2304,8.2304,8.2031,8.1562,8.1094,8.0898,8.0898,8.0625,8.0039,8.0312,8.0234,7.9687,7.8984,7.8555,7.875,7.8242,7.7851,7.8125,7.7695,7.6211,7.6136,7.5233,7.4036,7.373,7.3311,7.2713,9.8164,9.7656,9.7344,9.6015,9.4101,9.2656,9.1211,8.9765,8.9219,8.8554,8.789,8.7383,8.6601,8.5742,8.6211,8.664,8.7031,8.7969,8.832,8.8281,8.8359,8.8203,8.7656,8.7344,8.6914,8.6406,8.5547,8.5156,8.4922,8.375,8.2812,8.2344,8.2304,8.2304,8.2304,8.2304,8.2539,8.3047,8.2539,8.2422,8.2617,8.1758,8.1211,8.125,8.1601,8.1758,8.1797,8.2109,8.2304,8.2344,8.2812,8.3242,8.3594,8.375,8.3984,8.4336,8.4531,8.4531,8.4375,8.5664,8.5976,8.5,8.4883,8.4726,8.4219,8.4922,8.5273,8.5156,8.6172,8.7148,8.7461,8.75,8.7812,8.8359,8.7656,8.7109,8.7422,8.6406,8.5508,8.4961,8.414,8.3594,8.3476,8.2851,8.2344,8.2304,8.2304,8.2304,8.2304,8.2304,8.2304,8.2265,8.1953,8.1836,8.1758,8.1758,8.1562,8.1328,8.1054,8.0781,8.0508,7.9765,7.9336,7.9687,7.9023,7.8555,7.875,7.8281,7.7268,7.6934,7.5839,7.4515,7.3739,7.3534,7.3149,9.8633,9.8008,9.7578,9.6679,9.5429,9.3945,9.2695,9.164,9.0976,9.0429,8.9961,8.9336,8.8398,8.7422,8.7695,8.7969,8.832,8.9453,8.9648,8.9179,8.9961,9.0,8.9453,8.9414,8.9101,8.8398,8.7148,8.6289,8.5742,8.4375,8.3281,8.2734,8.2656,8.2656,8.2656,8.2851,8.332,8.3828,8.332,8.3633,8.4531,8.3672,8.289,8.2695,8.2656,8.2656,8.2656,8.289,8.3008,8.3008,8.3633,8.4062,8.4297,8.4726,8.4883,8.5,8.5976,8.6289,8.5664,8.6992,8.7304,8.6094,8.5781,8.5351,8.4922,8.5234,8.5586,8.5742,8.6758,8.7461,8.75,8.75,8.7851,8.8515,8.7969,8.7578,8.7773,8.707,8.6328,8.5664,8.5039,8.4062,8.3594,8.2851,8.2304,8.2304,8.2304,8.2304,8.2304,8.2304,8.2304,8.2304,8.2304,8.2265,8.2304,8.2226,8.2304,8.2226,8.1719,8.1445,8.1289,8.0586,8.0312,8.0664,8.0156,7.9961,8.0078,7.9492,7.8126,7.7215,7.6251,7.5306,7.4626,7.4259,7.4091,9.8984,9.8711,9.7226,9.6601,9.6367,9.5429,9.4101,9.2656,9.25,9.1601,9.0273,9.0,8.9883,8.9726,8.9023,8.9101,8.9765,9.0039,9.0117,9.0117,9.0898,9.125,9.1211,9.1172,9.1133,9.0742,8.8711,8.6797,8.5156,8.414,8.3594,8.3554,8.3554,8.3554,8.3633,8.4258,8.4765,8.4883,8.4687,8.4844,8.4961,8.4883,8.4297,8.3711,8.3554,8.3554,8.3633,8.4336,8.4726,8.4765,8.4844,8.5234,8.5898,8.5429,8.5117,8.5234,8.6562,8.7461,8.75,8.8125,8.8476,8.832,8.75,8.7226,8.6875,8.6992,8.707,8.7304,8.7383,8.7578,8.75,8.75,8.7851,8.8515,8.7969,8.789,8.8515,8.7812,8.75,8.7148,8.6406,8.5273,8.3828,8.2851,8.2539,8.2422,8.2344,8.2344,8.2304,8.2304,8.2304,8.2304,8.2304,8.2304,8.2304,8.2304,8.2304,8.2265,8.2187,8.2148,8.1914,8.1719,8.1719,8.1484,8.0742,8.0664,8.1328,8.0704,7.902,7.7948,7.7349,7.651,7.5952,7.5899,7.5592,10.0351,9.9726,9.8594,9.7812,9.7187,9.6367,9.5351,9.4258,9.4081,9.3361,9.2258,9.153,9.1266,9.1369,9.0549,9.0103,9.0117,9.1133,9.164,9.1758,9.2578,9.2969,9.2969,9.2969,9.2656,9.1953,9.0625,8.875,8.6679,8.5703,8.4961,8.4492,8.4453,8.4414,8.4492,8.4726,8.539,8.6328,8.5508,8.5664,8.6992,8.5742,8.4961,8.5234,8.4726,8.4414,8.4414,8.4726,8.4883,8.4883,8.5937,8.6719,8.707,8.7773,8.8121,8.806,8.8705,8.9101,8.9062,8.8828,8.8672,8.8594,8.7422,8.6719,8.6758,8.7148,8.7265,8.6992,8.7734,8.8047,8.7617,8.75,8.7812,8.8398,8.8008,8.7812,8.832,8.8008,8.75,8.7383,8.6719,8.5703,8.4765,8.414,8.375,8.3242,8.3125,8.289,8.2461,8.2304,8.2422,8.2304,8.2304,8.2304,8.2304,8.2304,8.2304,8.2304,8.2265,8.2265,8.2109,8.207,8.2031,8.1992,8.1328,8.1054,8.1635,8.0739,7.9228,7.851,7.7929,7.7583,7.7568,7.6669,7.6322,10.0664,9.9804,9.8945,9.8242,9.7656,9.7109,9.6366,9.5536,9.5293,9.469,9.377,9.3016,9.2681,9.2549,9.2061,9.1447,9.0976,9.2109,9.2734,9.3086,9.3906,9.4336,9.4336,9.4336,9.3867,9.2929,9.1836,9.0078,8.8086,8.7304,8.6406,8.539,8.5586,8.5742,8.5742,8.5742,8.6601,8.7695,8.6836,8.7148,8.8633,8.7187,8.6523,8.7148,8.6601,8.5976,8.5781,8.5976,8.6289,8.664,8.7614,8.8188,8.8203,8.9141,8.9704,8.9598,8.9966,9.0198,9.012,8.9378,8.8906,8.8828,8.7461,8.6475,8.6554,8.7342,8.75,8.7461,8.8203,8.8789,8.8125,8.789,8.8008,8.8242,8.7812,8.7734,8.8203,8.7851,8.7539,8.7383,8.6719,8.5976,8.5429,8.5078,8.4609,8.4062,8.4023,8.3711,8.3281,8.3125,8.2969,8.2773,8.2773,8.2812,8.2851,8.289,8.2539,8.2461,8.2422,8.2383,8.2304,8.2304,8.2304,8.2304,8.2148,8.1875,8.129,8.0469,7.9776,7.9078,7.8376,7.7915,7.7515,7.6823,7.6553,9.9883,9.9062,9.8086,9.789,9.7773,9.7617,9.7055,9.6219,9.6066,9.5406,9.4474,9.431,9.3864,9.3504,9.3203,9.3042,9.2617,9.2695,9.3164,9.3945,9.4804,9.5195,9.5195,9.5078,9.4531,9.3594,9.2109,9.0469,8.8906,8.8633,8.7851,8.6719,8.7187,8.75,8.75,8.7578,8.832,8.9336,8.8906,8.9023,8.9765,8.8984,8.8828,8.9531,8.8906,8.8203,8.7578,8.8203,8.8828,8.957,8.9645,8.9571,8.9395,8.9535,8.9424,8.9657,9.0211,9.0569,9.0539,8.9862,8.9379,8.9207,8.8017,8.7276,8.729,8.8125,8.8633,8.8594,8.9219,8.957,8.8906,8.8633,8.832,8.7695,8.75,8.7539,8.7539,8.7539,8.75,8.7461,8.6875,8.6289,8.6094,8.5703,8.5195,8.5,8.4922,8.4804,8.4531,8.4453,8.4375,8.3867,8.3594,8.3633,8.3594,8.3554,8.3047,8.2656,8.2578,8.2539,8.2383,8.2304,8.2304,8.2304,8.2304,8.2031,8.1797,8.1091,8.0763,8.0086,7.9248,7.8498,7.8284,7.7823,7.6784,10.0703,9.9804,9.8945,9.8594,9.8476,9.783,9.728,9.6958,9.6611,9.595,9.5157,9.4888,9.4253,9.3467,9.329,9.3369,9.3476,9.3515,9.3984,9.4844,9.5703,9.6054,9.5976,9.5469,9.4453,9.3125,9.25,9.1601,9.0547,8.9883,8.9258,8.8984,8.9023,8.9219,8.9219,8.9258,8.9804,9.0625,9.0039,9.0039,9.0742,9.0039,8.9765,8.9922,8.9592,8.9489,8.9841,8.9567,8.9727,9.0423,9.0358,9.0466,9.0746,9.0995,9.1005,9.0896,9.1199,9.1486,9.137,9.066,9.0155,9.0041,8.9325,8.8613,8.8205,8.8932,8.9258,8.8906,8.9492,8.9844,8.957,8.9023,8.8437,8.7578,8.75,8.75,8.75,8.7539,8.7773,8.8125,8.7617,8.7383,8.7617,8.7148,8.6445,8.5937,8.5859,8.5703,8.5156,8.5117,8.4883,8.4531,8.4492,8.4492,8.4492,8.4414,8.4023,8.3398,8.3086,8.2656,8.2422,8.2304,8.2304,8.2304,8.2304,8.2226,8.1992,8.1753,8.1351,8.0743,7.9787,7.9519,7.9629,7.8823,7.753,10.0781,10.0195,9.9023,9.8474,9.8346,9.7671,9.7265,9.7082,9.6745,9.6285,9.5756,9.5585,9.4945,9.4152,9.4076,9.4153,9.428,9.4648,9.5156,9.5703,9.6172,9.6484,9.6289,9.5234,9.4258,9.3203,9.2773,9.2148,9.1328,9.1094,9.0625,9.0117,9.0312,9.0664,9.082,9.0351,9.0625,9.1875,9.1445,9.1211,9.1562,9.125,9.0976,9.0898,9.0531,9.0732,9.1328,9.1163,9.1253,9.1495,9.1471,9.1575,9.1842,9.1708,9.158,9.1459,9.1515,9.1638,9.1672,9.0905,9.0548,9.0492,9.0033,8.9324,8.8798,8.9402,8.957,8.8984,8.9804,9.0351,9.0,8.9883,8.9179,8.8047,8.7656,8.7539,8.75,8.7773,8.8086,8.8437,8.8242,8.8281,8.8398,8.832,8.7773,8.7226,8.7109,8.7031,8.6406,8.6094,8.582,8.5547,8.539,8.539,8.539,8.5234,8.5,8.4375,8.3711,8.3047,8.25,8.2383,8.2304,8.2304,8.2304,8.2226,8.2039,8.198,8.17,8.0956,8.0317,8.0019,7.9789,7.8883,7.7814,10.0234,9.9999,9.8359,9.7591,9.7441,9.7333,9.7065,9.6682,9.6585,9.6452,9.6263,9.6191,9.582,9.5401,9.5284,9.5198,9.5104,9.5781,9.6328,9.6484,9.664,9.6601,9.6094,9.5156,9.4414,9.3672,9.3125,9.2383,9.1679,9.2031,9.1758,9.0508,9.1054,9.1797,9.2148,9.1015,9.1601,9.3242,9.3047,9.2773,9.2578,9.2617,9.2539,9.2422,9.1717,9.1543,9.2038,9.2783,9.3257,9.321,9.2959,9.2804,9.2409,9.1689,9.144,9.1341,9.1258,9.1383,9.1347,9.1032,9.0619,9.0747,9.0378,8.9411,8.8955,8.9414,8.9648,8.8906,8.9961,9.0703,9.0351,9.0508,9.0195,8.9023,8.8164,8.7773,8.7734,8.8359,8.8867,8.8945,8.8867,8.8828,8.9023,8.8945,8.875,8.8672,8.8633,8.8515,8.8164,8.7539,8.7109,8.6719,8.6328,8.6289,8.625,8.6211,8.5898,8.4844,8.4258,8.3672,8.2695,8.2383,8.2304,8.2304,8.2304,8.2187,8.2148,8.2109,8.1992,8.1546,8.0945,8.0405,7.9828,7.9194,7.8599,9.9553,9.8701,9.7649,9.7153,9.7082,9.6914,9.6745,9.6599,9.641,9.6355,9.6288,9.6288,9.594,9.536,9.539,9.5515,9.5795,9.6109,9.6702,9.7304,9.7383,9.6601,9.6054,9.6328,9.554,9.3985,9.3937,9.37,9.275,9.2503,9.2105,9.1673,9.1953,9.2656,9.3281,9.3008,9.3203,9.3906,9.4414,9.3789,9.2851,9.3281,9.3203,9.2617,9.217,9.206,9.2329,9.3478,9.4075,9.3915,9.4242,9.3774,9.2777,9.245,9.206,9.1624,9.1604,9.1717,9.1713,9.1588,9.1471,9.1573,9.1409,9.089,8.9485,8.9713,8.957,8.8984,8.9219,8.9883,9.0586,9.0625,9.0117,8.9687,8.8984,8.8672,8.9101,8.9531,8.9883,9.0429,9.0,9.0,9.0195,9.0,8.9648,8.9648,8.9609,8.9492,8.914,8.8672,8.8125,8.7539,8.7187,8.7148,8.7148,8.7148,8.664,8.539,8.4765,8.4453,8.3359,8.2383,8.2344,8.2304,8.2304,8.2226,8.2265,8.2226,8.207,8.1914,8.1253,8.0625,8.0605,8.024,7.9649,9.9469,9.8724,9.7518,9.6905,9.6827,9.6682,9.658,9.6474,9.6338,9.6288,9.6288,9.6288,9.6086,9.5741,9.5806,9.6007,9.6326,9.6536,9.7015,9.7442,9.7617,9.7148,9.6523,9.6679,9.5784,9.4792,9.4574,9.4255,9.3686,9.308,9.2754,9.2667,9.2647,9.3047,9.3789,9.3906,9.4101,9.4531,9.5234,9.4883,9.3359,9.4023,9.3633,9.289,9.2486,9.2588,9.3439,9.4201,9.4479,9.4446,9.4847,9.4839,9.3925,9.3245,9.2732,9.22,9.2045,9.191,9.1995,9.2009,9.2087,9.2173,9.2225,9.1315,9.0105,8.9707,8.9359,8.8711,8.8594,8.9486,9.0781,9.082,9.0781,9.0937,9.0312,8.9883,9.0039,9.0312,9.0742,9.1015,9.0898,9.0664,9.125,9.082,9.0625,9.0547,9.0547,9.0312,9.0,8.9531,8.9101,8.8554,8.8086,8.7969,8.7734,8.7656,8.7031,8.5859,8.457,8.4453,8.375,8.2539,8.2344,8.2304,8.2304,8.2304,8.2304,8.2304,8.2226,8.1915,8.1334,8.1123,8.1174,8.1011,8.046,9.9591,9.9228,9.7595,9.678,9.6599,9.6556,9.6474,9.6322,9.6288,9.6288,9.6288,9.6288,9.6268,9.6306,9.6297,9.6522,9.6592,9.6998,9.728,9.7382,9.7344,9.7109,9.707,9.6175,9.5651,9.5438,9.4816,9.4485,9.4027,9.357,9.3281,9.2953,9.2622,9.3161,9.3906,9.4101,9.4531,9.5351,9.6172,9.5586,9.4258,9.4492,9.4179,9.2812,9.2578,9.3281,9.4297,9.4847,9.4797,9.4645,9.5413,9.5642,9.5467,9.4141,9.3436,9.311,9.2603,9.2333,9.2251,9.2393,9.2489,9.2675,9.2522,9.1661,9.0462,8.9879,8.9411,8.8795,8.8552,8.9578,9.0859,9.1328,9.1679,9.2031,9.1719,9.1094,9.0625,9.0976,9.1445,9.1445,9.1445,9.1445,9.1445,9.1445,9.1445,9.1445,9.1367,9.1172,9.082,9.039,9.0,8.9609,8.9179,8.875,8.8437,8.8086,8.7265,8.6211,8.457,8.3867,8.3711,8.289,8.25,8.2304,8.2304,8.2304,8.2304,8.2304,8.2304,8.2181,8.1744,8.1704,8.1739,8.1456,8.1038,9.8369,9.7859,9.6895,9.642,9.6373,9.6355,9.634,9.6288,9.6288,9.6288,9.6288,9.6288,9.6288,9.6326,9.6355,9.6426,9.6588,9.6935,9.7271,9.7456,9.621,9.625,9.664,9.6442,9.6023,9.5307,9.5157,9.4729,9.3998,9.3359,9.2615,9.2081,9.2417,9.3036,9.4256,9.4648,9.5351,9.6211,9.6992,9.6172,9.4531,9.4687,9.4375,9.2812,9.2578,9.3125,9.4062,9.4764,9.5384,9.598,9.6317,9.6217,9.5852,9.5557,9.4747,9.3759,9.3476,9.3164,9.2767,9.2998,9.3421,9.3153,9.2958,9.2719,9.1592,9.06,9.001,8.9564,8.9446,8.9913,9.1094,9.1953,9.2304,9.2461,9.2383,9.2187,9.207,9.2187,9.2226,9.2265,9.2265,9.2304,9.2304,9.2344,9.2344,9.2344,9.2187,9.1992,9.1601,9.1211,9.0937,9.0586,9.0078,8.9648,8.9179,8.8594,8.7539,8.6484,8.4883,8.3633,8.3476,8.2969,8.2461,8.2304,8.2304,8.2304,8.2304,8.2304,8.2304,8.2226,8.2148,8.2046,8.1883,8.1742,8.1576,9.8221,9.7961,9.6826,9.6288,9.6288,9.6288,9.6288,9.6288,9.6288,9.6288,9.6288,9.6288,9.6288,9.6288,9.6288,9.6373,9.6413,9.6411,9.6647,9.6719,9.5781,9.5273,9.5273,9.586,9.5678,9.5182,9.5379,9.5067,9.4423,9.3451,9.2747,9.2122,9.2087,9.2474,9.3656,9.4538,9.5195,9.5976,9.707,9.664,9.5,9.4883,9.4375,9.2969,9.2617,9.3008,9.3906,9.4297,9.5234,9.6094,9.6328,9.6406,9.6523,9.6367,9.5586,9.4591,9.3945,9.3515,9.3008,9.2882,9.297,9.2958,9.2724,9.178,9.1018,9.0295,9.0118,8.9699,8.9598,8.9961,9.1172,9.207,9.25,9.2578,9.2578,9.2578,9.2578,9.2578,9.2578,9.2578,9.2539,9.2812,9.3008,9.2929,9.3086,9.3047,9.3086,9.2851,9.2304,9.1953,9.1836,9.1484,9.0937,9.0469,9.0,8.914,8.7851,8.664,8.5234,8.4219,8.3633,8.3008,8.2344,8.2304,8.2304,8.2304,8.2304,8.2304,8.2304,8.2265,8.2226,8.2109,8.2039,8.1883,8.185,9.8337,9.8288,9.6903,9.6288,9.6288,9.6288,9.6288,9.6288,9.6288,9.6288,9.6288,9.6288,9.6288,9.6288,9.6288,9.6325,9.6329,9.6213,9.6446,9.6445,9.5664,9.4844,9.4453,9.4626,9.5059,9.5699,9.5413,9.5127,9.4473,9.3783,9.2716,9.247,9.2066,9.2393,9.2936,9.3782,9.5084,9.6015,9.6875,9.6719,9.5469,9.5312,9.4648,9.3554,9.2969,9.3359,9.3984,9.4258,9.4726,9.6289,9.5781,9.6328,9.7031,9.6914,9.6211,9.539,9.4844,9.4062,9.3203,9.2903,9.2841,9.2539,9.2064,9.1347,9.052,9.0376,9.0259,9.0167,9.021,9.0547,9.1406,9.2148,9.2539,9.2578,9.2578,9.2578,9.2578,9.2578,9.2578,9.2578,9.2617,9.2812,9.3125,9.3242,9.3515,9.3711,9.3711,9.3554,9.2929,9.2539,9.2344,9.2265,9.1719,9.0781,9.0234,8.8984,8.7773,8.6797,8.5469,8.4765,8.3906,8.3008,8.2422,8.2304,8.2304,8.2304,8.2304,8.2304,8.2304,8.2304,8.2265,8.2187,8.2122,8.2056,8.2031,9.7678,9.6673,9.6442,9.6288,9.6288,9.6288,9.6288,9.6288,9.6288,9.6288,9.6288,9.6288,9.6288,9.6288,9.6288,9.6529,9.6706,9.6604,9.6485,9.6289,9.5508,9.4648,9.4101,9.3906,9.4179,9.4217,9.4248,9.3994,9.3476,9.2782,9.2265,9.167,9.1575,9.2222,9.3282,9.4034,9.4877,9.6172,9.664,9.6094,9.5469,9.539,9.5429,9.4336,9.3711,9.3984,9.4531,9.4375,9.4687,9.625,9.6328,9.6797,9.7304,9.6953,9.6445,9.6172,9.5937,9.5117,9.3828,9.3946,9.4117,9.3873,9.3019,9.2845,9.2534,9.1953,9.1362,9.1509,9.1679,9.207,9.2304,9.25,9.2578,9.2578,9.2578,9.2578,9.2578,9.2578,9.2539,9.2422,9.2539,9.2773,9.3164,9.3398,9.3437,9.3476,9.3476,9.3281,9.2773,9.2578,9.2539,9.25,9.2461,9.1367,9.0312,8.8789,8.7461,8.6719,8.5781,8.5273,8.4336,8.3125,8.2578,8.2812,8.2578,8.2304,8.2304,8.2304,8.2304,8.2304,8.2304,8.2265,8.2226,8.2187,8.2187,9.7428,9.7099,9.6551,9.6288,9.6288,9.6288,9.6288,9.6288,9.6288,9.6288,9.6288,9.6288,9.6288,9.6288,9.6288,9.656,9.6815,9.6467,9.6146,9.5703,9.4922,9.4375,9.3789,9.3476,9.3476,9.3465,9.325,9.3092,9.2898,9.2299,9.1737,9.1395,9.1329,9.2018,9.2949,9.3312,9.4224,9.5547,9.5781,9.5429,9.457,9.4726,9.4414,9.4375,9.3906,9.3984,9.4804,9.4375,9.4765,9.6015,9.6054,9.6601,9.707,9.707,9.6523,9.6523,9.6523,9.5742,9.4219,9.3998,9.3624,9.3103,9.2742,9.2383,9.2352,9.1993,9.2151,9.2245,9.2422,9.2578,9.2578,9.2617,9.2578,9.2578,9.2578,9.2578,9.2578,9.2578,9.2383,9.2226,9.2422,9.2773,9.3359,9.3476,9.332,9.3281,9.3242,9.2969,9.2617,9.2578,9.2578,9.2265,9.2109,9.1094,9.0,8.8789,8.7578,8.6836,8.6094,8.5586,8.4922,8.3789,8.3633,8.3867,8.3398,8.2383,8.2304,8.2344,8.2304,8.2304,8.2304,8.2304,8.2304,8.2304,8.2304,9.7479,9.7625,9.6792,9.6454,9.6454,9.6454,9.6432,9.6454,9.6487,9.6465,9.6437,9.6408,9.6334,9.6299,9.618,9.622,9.6634,9.5835,9.5288,9.4883,9.4297,9.3867,9.3437,9.3043,9.2753,9.2967,9.2407,9.22,9.2427,9.1914,9.1446,9.1236,9.121,9.1605,9.2336,9.2766,9.3325,9.4336,9.457,9.457,9.4101,9.3398,9.3281,9.4062,9.3476,9.3906,9.4961,9.4648,9.5039,9.5898,9.6094,9.6211,9.7304,9.7109,9.6758,9.6758,9.6758,9.5781,9.4609,9.386,9.3521,9.2783,9.2432,9.185,9.1727,9.2288,9.2596,9.2385,9.2461,9.2773,9.289,9.2695,9.2734,9.2812,9.2617,9.2383,9.2461,9.2422,9.2148,9.2109,9.2344,9.25,9.2773,9.2812,9.2539,9.3008,9.2969,9.2929,9.2656,9.2617,9.2461,9.1914,9.1406,9.0508,8.957,8.8789,8.789,8.7304,8.6562,8.5937,8.5351,8.457,8.457,8.4336,8.3164,8.2304,8.2344,8.2383,8.2304,8.2304,8.2304,8.2304,8.2304,8.2304,8.2304,9.7954,9.712,9.6963,9.6924,9.6893,9.6882,9.6903,9.6893,9.6871,9.6924,9.6866,9.6669,9.6556,9.6313,9.5542,9.5521,9.5472,9.5119,9.4552,9.4219,9.3984,9.3554,9.289,9.2422,9.2385,9.2489,9.1908,9.1604,9.1696,9.1376,9.1236,9.121,9.133,9.1721,9.2579,9.2424,9.3527,9.5312,9.4726,9.4375,9.4687,9.4062,9.4179,9.4609,9.4765,9.4844,9.5234,9.5156,9.5625,9.6328,9.6484,9.6797,9.75,9.7656,9.7578,9.7578,9.7383,9.6836,9.5273,9.4715,9.3967,9.3074,9.2576,9.2518,9.2756,9.2734,9.289,9.2613,9.2656,9.2969,9.332,9.3008,9.3125,9.2851,9.2461,9.2304,9.2344,9.2031,9.1758,9.1562,9.1601,9.1562,9.1679,9.1719,9.1797,9.2344,9.2734,9.2695,9.2656,9.2617,9.2265,9.1719,9.0898,9.0,8.9258,8.8476,8.8008,8.7539,8.6875,8.6211,8.5703,8.5117,8.4687,8.4219,8.3164,8.2773,8.3164,8.3086,8.2578,8.2304,8.2304,8.2304,8.2304,8.2304,8.2304,9.7749,9.7227,9.7065,9.6973,9.6973,9.6973,9.6973,9.6973,9.6973,9.6973,9.6993,9.6864,9.6512,9.5891,9.5339,9.508,9.4951,9.4637,9.4333,9.3942,9.3789,9.359,9.3125,9.2546,9.229,9.2277,9.1816,9.1166,9.1044,9.1091,9.121,9.1202,9.1338,9.1644,9.2554,9.2235,9.2897,9.3789,9.3984,9.4101,9.4258,9.414,9.4062,9.4453,9.4492,9.4961,9.5625,9.5937,9.6367,9.6992,9.7187,9.7304,9.7617,9.7695,9.7695,9.7695,9.7695,9.6875,9.5469,9.5429,9.4544,9.3481,9.3042,9.3679,9.4076,9.4101,9.3984,9.4101,9.3594,9.3594,9.3633,9.3086,9.2969,9.2734,9.2383,9.2304,9.2148,9.164,9.1328,9.1094,9.0859,9.082,9.0976,9.1445,9.1797,9.2344,9.2656,9.2656,9.2617,9.2617,9.2109,9.1484,9.0547,8.957,8.8867,8.8164,8.7851,8.7383,8.6836,8.625,8.5976,8.5508,8.5156,8.4687,8.3984,8.3906,8.414,8.3359,8.2422,8.2304,8.2304,8.2304,8.2304,8.2304,8.2304,9.7609,9.7444,9.7265,9.7174,9.7174,9.6979,9.6986,9.7135,9.6915,9.6869,9.6748,9.6481,9.58,9.5145,9.4729,9.4341,9.4093,9.4139,9.3946,9.3667,9.3473,9.3296,9.285,9.2351,9.2165,9.2572,9.1824,9.1153,9.0791,9.0762,9.0996,9.1076,9.1463,9.1732,9.195,9.2162,9.2539,9.2851,9.3594,9.375,9.3594,9.3554,9.3515,9.3633,9.3906,9.4492,9.5625,9.6054,9.6484,9.7109,9.7226,9.7304,9.7617,9.7695,9.7695,9.7695,9.7695,9.7109,9.6172,9.5688,9.4802,9.3873,9.3374,9.4105,9.4399,9.4883,9.4961,9.4609,9.4179,9.3867,9.375,9.3125,9.2969,9.2773,9.25,9.2422,9.2148,9.1367,9.082,9.0586,9.0351,9.0078,9.039,9.1211,9.1836,9.2422,9.2578,9.2578,9.2578,9.2539,9.1953,9.125,9.0156,8.9258,8.875,8.8125,8.7773,8.7344,8.6758,8.6328,8.6094,8.5898,8.5625,8.5156,8.4648,8.4453,8.4336,8.3281,8.2304,8.2304,8.2304,8.2304,8.2304,8.2304,8.2304,9.7695,9.7695,9.7656,9.7578,9.7539,9.6836,9.6953,9.7304,9.6758,9.6484,9.6266,9.5219,9.4454,9.4072,9.3464,9.3115,9.3207,9.2663,9.2457,9.2443,9.2429,9.2295,9.2081,9.1867,9.1728,9.1936,9.1672,9.1229,9.0733,9.0635,9.0694,9.0702,9.11,9.1754,9.2084,9.2147,9.2471,9.2851,9.3554,9.3515,9.3125,9.2929,9.289,9.2969,9.3437,9.4023,9.414,9.5,9.5859,9.664,9.6601,9.6953,9.7344,9.7304,9.7265,9.7265,9.7265,9.6836,9.6445,9.6289,9.5547,9.4453,9.4062,9.4414,9.4609,9.5,9.4844,9.4531,9.4375,9.4023,9.3711,9.3281,9.2969,9.2851,9.25,9.1992,9.1562,9.0781,9.0273,9.0078,8.9765,8.9375,8.9531,9.0273,9.1015,9.1562,9.2226,9.2226,9.2383,9.2304,9.1719,9.0937,8.9765,8.8984,8.8672,8.8164,8.7656,8.7383,8.6992,8.6562,8.625,8.6094,8.5937,8.5547,8.5039,8.4804,8.4336,8.3242,8.2461,8.2344,8.2304,8.2304,8.2304,8.2304,8.2304,9.7695,9.7656,9.7148,9.6953,9.6953,9.664,9.6367,9.6133,9.582,9.5703,9.5546,9.3938,9.3302,9.3235,9.2246,9.17,9.1703,9.1013,9.0878,9.0906,9.1002,9.1132,9.1141,9.1451,9.176,9.1639,9.159,9.108,9.0164,9.0411,9.0018,9.0027,9.0261,9.088,9.1323,9.2031,9.2617,9.3203,9.3594,9.3594,9.3554,9.3359,9.3164,9.2695,9.3437,9.3867,9.4062,9.4765,9.5586,9.6094,9.5898,9.6289,9.6719,9.6523,9.6328,9.6289,9.6328,9.6367,9.6679,9.6836,9.664,9.5898,9.5508,9.5429,9.5351,9.6211,9.6211,9.5742,9.4883,9.4492,9.3789,9.3164,9.2695,9.2812,9.2539,9.1914,9.1211,9.0469,8.9765,8.9531,8.8984,8.8437,8.8789,8.9219,8.9961,9.0703,9.1367,9.1875,9.1953,9.2031,9.1484,9.0781,8.9648,8.875,8.8398,8.7969,8.75,8.7344,8.7148,8.6836,8.6484,8.6211,8.6054,8.5703,8.5351,8.4922,8.4219,8.3203,8.2617,8.2383,8.2304,8.2304,8.2304,8.2304,8.2304,9.7539,9.7265,9.6719,9.6484,9.6445,9.5937,9.5547,9.5156,9.4609,9.4258,9.3945,9.2496,9.1915,9.1939,9.1754,9.0755,9.0631,9.0203,8.9888,8.9879,8.9986,9.0047,9.0218,9.039,9.0598,9.0804,9.0897,9.0337,8.935,9.002,8.9429,8.8855,8.885,8.9573,9.0713,9.1406,9.2265,9.289,9.2851,9.3203,9.3242,9.3125,9.3125,9.2578,9.3164,9.3359,9.3515,9.3945,9.4609,9.5078,9.5234,9.5351,9.5547,9.5586,9.5234,9.5156,9.5273,9.5586,9.6367,9.6836,9.707,9.6367,9.6328,9.6367,9.6679,9.7187,9.6953,9.5976,9.539,9.4765,9.3789,9.289,9.2617,9.2695,9.2695,9.2148,9.1289,9.0547,8.9648,8.8984,8.8398,8.7851,8.7969,8.8398,8.914,9.0039,9.1054,9.1367,9.1211,9.1289,9.1328,9.0547,8.9648,8.8828,8.8164,8.7812,8.75,8.7461,8.7265,8.707,8.6758,8.6484,8.6211,8.5976,8.5547,8.4961,8.4062,8.3047,8.2617,8.2344,8.2304,8.2304,8.2304,8.2304,8.2304,9.7226,9.6562,9.6445,9.6406,9.6133,9.4687,9.4375,9.4531,9.3203,9.2187,9.1601,9.0963,9.039,9.0088,9.0696,9.0193,8.9498,8.9778,8.9713,8.9117,8.8983,8.8984,8.9035,8.917,8.9563,8.9189,8.9469,8.9455,8.8552,8.8951,8.8433,8.789,8.7924,8.851,8.9882,9.0078,9.0547,9.1133,9.0664,9.1367,9.1992,9.1836,9.1836,9.207,9.2265,9.2344,9.2617,9.2734,9.3437,9.4219,9.414,9.4375,9.5,9.4961,9.4844,9.4883,9.4922,9.5429,9.6289,9.6445,9.6523,9.6601,9.6679,9.6562,9.6679,9.7031,9.6992,9.5742,9.5156,9.4297,9.3359,9.2734,9.2734,9.2656,9.2656,9.2344,9.1523,9.0469,8.957,8.8672,8.8008,8.75,8.7422,8.7578,8.832,8.9336,9.0586,9.0898,9.0664,9.0586,9.0742,9.0117,8.9297,8.875,8.8086,8.7734,8.75,8.7461,8.7265,8.6914,8.6758,8.6562,8.6328,8.6172,8.539,8.4453,8.3711,8.2929,8.2578,8.2304,8.2304,8.2304,8.2304,8.2304,8.2304,9.6406,9.5586,9.5039,9.4765,9.4687,9.4179,9.3476,9.2383,9.0898,9.0073,8.9927,8.9025,8.8947,8.9138,8.8793,8.8652,8.8517,8.7623,8.7575,8.7619,8.7793,8.7904,8.8051,8.8456,8.8812,8.9021,8.9158,8.8895,8.8435,8.8399,8.8075,8.7614,8.741,8.7957,8.8984,8.957,9.0234,9.039,9.0195,9.0351,9.0781,9.0625,9.0545,9.0798,9.0934,9.1208,9.1547,9.1677,9.2383,9.3398,9.3359,9.3476,9.4023,9.4023,9.3594,9.3554,9.3554,9.3867,9.4726,9.5273,9.6211,9.6601,9.6719,9.664,9.7226,9.6914,9.6289,9.539,9.4726,9.3828,9.289,9.3242,9.332,9.289,9.2734,9.2422,9.1679,9.0469,8.9414,8.8515,8.7734,8.7316,8.7114,8.7147,8.7693,8.8155,8.9216,9.0237,9.0273,9.0117,9.0078,8.9492,8.8828,8.8398,8.7969,8.7265,8.6797,8.664,8.6601,8.6484,8.6406,8.6328,8.6094,8.5703,8.4804,8.3906,8.332,8.2812,8.25,8.2304,8.2304,8.2304,8.2304,8.2304,8.2304,9.5976,9.5078,9.3945,9.3281,9.3047,9.3008,9.2031,9.0429,8.941,8.9032,8.8635,8.7804,8.7681,8.8078,8.7944,8.7103,8.7486,8.7126,8.6489,8.65,8.6755,8.6929,8.724,8.7556,8.7663,8.8081,8.8224,8.8036,8.7666,8.7843,8.7681,8.7353,8.7176,8.7436,8.8086,8.8476,8.8945,8.9023,8.8984,8.914,8.9609,8.9719,8.9609,8.9877,9.0071,9.0271,9.0574,9.0976,9.1484,9.2383,9.2695,9.2578,9.2929,9.3008,9.2578,9.2617,9.3008,9.3359,9.4062,9.4375,9.539,9.6406,9.625,9.6328,9.6679,9.625,9.5586,9.4844,9.4219,9.3515,9.289,9.3476,9.3281,9.2851,9.2656,9.2344,9.1836,9.0625,8.9454,8.8514,8.7617,8.7206,8.6933,8.6914,8.7108,8.7426,8.7814,8.8748,8.9676,8.957,8.9219,8.8554,8.789,8.7344,8.6875,8.6367,8.6015,8.5781,8.5742,8.5742,8.5703,8.5547,8.539,8.5195,8.4336,8.3594,8.3125,8.2695,8.2422,8.2304,8.2304,8.2304,8.2304,8.2304,8.2304,9.5898,9.4922,9.3281,9.2109,9.1406,9.1367,9.0312,8.8827,8.9258,8.8548,8.7078,8.7573,8.7156,8.6713,8.7797,8.7244,8.606,8.6445,8.617,8.5918,8.5731,8.5846,8.5863,8.5989,8.6223,8.6262,8.6373,8.658,8.6537,8.6809,8.6961,8.6896,8.6584,8.6566,8.6583,8.6588,8.7183,8.7673,8.7642,8.802,8.8638,8.8665,8.8756,8.9016,8.9334,8.9531,8.9765,9.0,9.0508,9.1094,9.1406,9.1836,9.2226,9.2539,9.2539,9.2656,9.3086,9.332,9.3281,9.3359,9.375,9.4492,9.4922,9.5039,9.5312,9.5351,9.4844,9.4336,9.3789,9.3242,9.2851,9.2851,9.2812,9.2617,9.25,9.2187,9.1836,9.0866,8.966,8.8641,8.7632,8.7125,8.7059,8.6984,8.6881,8.6996,8.7237,8.7355,8.8173,8.8672,8.8242,8.7422,8.6797,8.6133,8.5742,8.5664,8.5195,8.4961,8.4883,8.4844,8.4804,8.4687,8.4453,8.414,8.3789,8.3281,8.2812,8.2539,8.2383,8.2304,8.2304,8.2304,8.2304,8.2304,8.2265,9.414,9.3242,9.2148,9.144,9.1009,9.0272,8.9384,8.8504,8.8088,8.7052,8.5767,8.5967,8.5332,8.3951,8.43,8.3907,8.3694,8.3597,8.3812,8.3961,8.4438,8.4368,8.4401,8.4516,8.4709,8.4895,8.4982,8.5211,8.6091,8.6264,8.5974,8.5889,8.5455,8.5078,8.4746,8.4223,8.5461,8.6267,8.6129,8.6622,8.7197,8.7168,8.7331,8.7408,8.7837,8.8092,8.8476,8.8906,8.9492,9.0234,9.0976,9.1328,9.0664,9.125,9.1562,9.0898,9.1367,9.1797,9.1367,9.1719,9.2109,9.2304,9.2812,9.414,9.457,9.4492,9.4023,9.3515,9.3086,9.2539,9.2543,9.261,9.2475,9.2305,9.2276,9.2182,9.1731,9.0626,8.9499,8.8538,8.7549,8.6881,8.6853,8.7001,8.69,8.6832,8.6801,8.6806,8.6884,8.7456,8.7383,8.6601,8.5937,8.5351,8.539,8.5351,8.4687,8.4179,8.4062,8.3945,8.3867,8.3711,8.3437,8.3242,8.3125,8.2851,8.2461,8.2304,8.2304,8.2304,8.2304,8.2304,8.2304,8.2304,8.2304,9.2722,9.1864,9.0741,8.9988,8.9363,8.8669,8.7916,8.7167,8.6926,8.6204,8.5214,8.4752,8.3878,8.297,8.2892,8.2572,8.2013,8.2669,8.295,8.3104,8.3239,8.3621,8.3632,8.3555,8.3939,8.4016,8.4087,8.4288,8.5113,8.5164,8.4855,8.4806,8.4072,8.3914,8.363,8.3208,8.3441,8.4225,8.4627,8.4787,8.5046,8.5216,8.4954,8.5153,8.5626,8.6368,8.6942,8.747,8.8509,8.9297,9.0117,9.0273,8.9883,9.0547,9.0703,9.0234,9.0469,9.0664,9.0429,9.0586,9.0625,9.0781,9.1322,9.2226,9.2812,9.2812,9.2578,9.2265,9.2031,9.1874,9.2183,9.2438,9.2221,9.1987,9.2102,9.2208,9.1327,9.0262,8.929,8.8393,8.7541,8.6762,8.6572,8.6786,8.6819,8.6569,8.6539,8.671,8.6615,8.6692,8.6508,8.5859,8.5273,8.4726,8.4765,8.4609,8.3906,8.332,8.3164,8.3047,8.2969,8.2929,8.2851,8.2773,8.2656,8.2422,8.2304,8.2304,8.2304,8.2304,8.2304,8.2304,8.2304,8.2304,8.2304,9.151,9.0633,8.9207,8.8019,8.7039,8.681,8.6105,8.5177,8.5629,8.5617,8.4727,8.3933,8.3013,8.2048,8.1887,8.1572,8.1248,8.1556,8.1913,8.2491,8.2779,8.2978,8.3054,8.3362,8.3208,8.3362,8.3378,8.3179,8.3487,8.3693,8.3784,8.3757,8.3561,8.327,8.2894,8.2034,8.2089,8.2431,8.2271,8.2103,8.2871,8.2703,8.2186,8.2692,8.3603,8.4583,8.5088,8.6044,8.7344,8.8047,8.8711,8.9062,8.957,8.9844,8.9844,8.9883,8.9922,8.9765,8.9726,8.9922,9.0156,9.0429,9.0898,9.0506,9.0423,9.1136,9.1158,9.1077,9.0859,9.1127,9.1461,9.185,9.1889,9.1711,9.1734,9.1773,9.1315,9.0149,8.8938,8.8104,8.7417,8.6671,8.6363,8.6594,8.6786,8.6384,8.6268,8.6492,8.6156,8.5994,8.5758,8.5267,8.4687,8.414,8.3633,8.3398,8.289,8.2461,8.2422,8.2461,8.2617,8.25,8.2344,8.2383,8.2461,8.2383,8.2304,8.2304,8.2304,8.2304,8.2304,8.2304,8.2304,8.2304,8.2304,8.967,8.8934,8.7732,8.6734,8.5876,8.55,8.4817,8.3911,8.2932,8.2847,8.2917,8.2615,8.1669,8.0384,8.0257,7.9958,7.9604,8.0272,8.0347,8.0946,8.1589,8.2054,8.1823,8.2016,8.2131,8.2247,8.2208,8.217,8.2563,8.2693,8.2699,8.2613,8.2405,8.2121,8.1916,8.1059,8.0866,8.1035,8.0117,8.0318,8.1458,8.1885,8.1875,8.1942,8.2493,8.2935,8.345,8.4106,8.5325,8.6289,8.7383,8.8164,8.8945,8.8984,8.8672,8.8437,8.9219,8.914,8.8906,8.9101,8.9453,8.8841,8.8611,8.7953,8.8068,8.921,8.9782,8.9752,8.9861,9.0221,9.0653,9.1074,9.145,9.1296,9.1191,9.1143,9.111,8.9888,8.8573,8.7902,8.7248,8.6748,8.6363,8.6324,8.6555,8.6456,8.6242,8.6052,8.5371,8.5049,8.5264,8.4834,8.4216,8.3633,8.3008,8.2695,8.2422,8.2304,8.2344,8.2344,8.2304,8.2304,8.2304,8.2304,8.2344,8.2304,8.2304,8.2304,8.2304,8.2304,8.2304,8.2304,8.2304,8.2304,8.2304,8.7106,8.6382,8.5757,8.5224,8.4743,8.415,8.342,8.2526,8.1474,8.0936,8.0927,8.0812,8.0102,7.8902,7.8804,7.8754,7.8458,7.8975,7.9708,8.022,8.0733,8.1106,8.1093,8.1093,8.14,8.1554,8.14,8.1439,8.1785,8.1801,8.1755,8.1755,8.1382,8.1175,8.0968,8.0417,7.995,7.984,7.8565,7.8823,7.9919,7.9866,7.9775,7.9837,8.0502,8.1106,8.1915,8.2554,8.3794,8.4879,8.5882,8.6944,8.7617,8.7812,8.7695,8.7812,8.8281,8.8695,8.8147,8.8175,8.8678,8.7999,8.7329,8.7012,8.688,8.7837,8.7581,8.7539,8.7945,8.8341,8.9124,8.9684,8.9975,8.9995,8.9937,8.9898,8.9601,8.8837,8.8055,8.7671,8.694,8.617,8.5824,8.5517,8.5593,8.4978,8.4994,8.5136,8.4532,8.4069,8.4276,8.4234,8.3546,8.3164,8.2734,8.25,8.2344,8.2304,8.2304,8.2304,8.2304,8.2304,8.2304,8.2304,8.2304,8.2304,8.2304,8.2304,8.2304,8.2304,8.2304,8.2304,8.2304,8.2226,8.1992,8.4635,8.3936,8.3832,8.368,8.3515,8.2863,8.2032,8.1109,8.0439,7.9783,7.9256,7.9085,7.8653,7.8458,7.8309,7.8363,7.8588,7.8986,7.9535,8.0296,8.0855,8.1007,8.1093,8.1093,8.1208,8.1208,8.1131,8.1093,8.1246,8.1246,8.1246,8.1131,8.1124,8.1085,8.066,8.0087,7.9491,7.904,7.8228,7.757,7.7463,7.731,7.7604,7.7991,7.843,7.9321,8.022,8.1155,8.2386,8.3515,8.4386,8.5379,8.619,8.6566,8.6855,8.7085,8.7892,8.7804,8.7359,8.7649,8.7776,8.7487,8.6801,8.6317,8.6083,8.5761,8.5455,8.5703,8.6113,8.6681,8.7511,8.8205,8.8507,8.8765,8.8705,8.8993,8.8555,8.8017,8.7671,8.7363,8.6632,8.5824,8.5324,8.5016,8.4478,8.3824,8.3572,8.362,8.3591,8.327,8.3181,8.3079,8.2635,8.2344,8.2304,8.2344,8.2304,8.2304,8.2304,8.2304,8.2304,8.2304,8.2304,8.2304,8.2304,8.2304,8.2304,8.2304,8.2304,8.2304,8.2304,8.2304,8.2148,8.1992,8.1523,8.3909,8.382,8.3149,8.2574,8.2109,8.1746,8.0895,7.9615,7.9016,7.8596,7.8389,7.7923,7.7789,7.8309,7.8309,7.8458,7.8927,7.9175,7.9987,8.0855,8.0991,8.1077,8.1093,8.1093,8.1093,8.1093,8.1093,8.1093,8.1045,8.1061,8.1077,8.1045,8.1192,8.093,8.0294,7.9776,7.9415,7.8741,7.8255,7.771,7.7365,7.731,7.731,7.7469,7.7567,7.808,7.8648,7.91,8.0096,8.1398,8.2894,8.3808,8.4618,8.5268,8.5742,8.6295,8.7176,8.7011,8.6767,8.6987,8.6967,8.5964,8.5214,8.4658,8.4316,8.3788,8.3804,8.416,8.4621,8.5171,8.591,8.6696,8.716,8.7426,8.7505,8.84,8.8685,8.7944,8.7325,8.6978,8.6478,8.567,8.4901,8.4555,8.417,8.3593,8.3208,8.3209,8.2685,8.2396,8.2171,8.2007,8.1817,8.1914,8.2031,8.2265,8.2304,8.2304,8.2304,8.2304,8.2304,8.2304,8.2304,8.2304,8.2304,8.2304,8.2304,8.2304,8.2304,8.2304,8.2304,8.2265,8.207,8.1671,8.1063]}]]